<?xml version="1.0" encoding="UTF-8" standalone="no" ?>
<gpx xmlns="http://www.topografix.com/GPX/1/1" xmlns:xsi="http://www.w3.org/2001/XMLSchema-instance" xsi:schemaLocation="http://www.topografix.com/GPX/1/1 http://www.topografix.com/GPX/1/1/gpx.xsd" version="1.1" creator="VisuGPX - https://www.visugpx.com">
  <metadata>
    <name>tour mas de la barque-bellecoste-gourdouze-bouzede</name>
    <desc><![CDATA[rando entre retraités autour du [b]Mas de la Barque[/b] via GR72-GR7-GR68 jusqu'au belvédère des Bouzèdes puis fin de boucle vers les Mas]]></desc>
  </metadata>
  <trk>
    <name><![CDATA[randogps48-195_1_1_1_1_1_1]]></name>
    <trkseg>
      <trkpt lat="44.38541" lon="3.87678">
        <ele>1419</ele>
        <time>1970-01-01T00:00:01.000Z</time>
      </trkpt>
      <trkpt lat="44.38536" lon="3.87689">
        <ele>1418</ele>
        <time>1970-01-01T00:00:02.000Z</time>
      </trkpt>
      <trkpt lat="44.38532" lon="3.877">
        <ele>1418</ele>
        <time>1970-01-01T00:00:03.000Z</time>
      </trkpt>
      <trkpt lat="44.38528" lon="3.87711">
        <ele>1418</ele>
        <time>1970-01-01T00:00:04.000Z</time>
      </trkpt>
      <trkpt lat="44.38523" lon="3.87722">
        <ele>1418</ele>
        <time>1970-01-01T00:00:05.000Z</time>
      </trkpt>
      <trkpt lat="44.38519" lon="3.87733">
        <ele>1418</ele>
        <time>1970-01-01T00:00:06.000Z</time>
      </trkpt>
      <trkpt lat="44.38514" lon="3.87743">
        <ele>1417</ele>
        <time>1970-01-01T00:00:07.000Z</time>
      </trkpt>
      <trkpt lat="44.3851" lon="3.87754">
        <ele>1417</ele>
        <time>1970-01-01T00:00:08.000Z</time>
      </trkpt>
      <trkpt lat="44.38506" lon="3.87765">
        <ele>1418</ele>
        <time>1970-01-01T00:00:09.000Z</time>
      </trkpt>
      <trkpt lat="44.38501" lon="3.87776">
        <ele>1418</ele>
        <time>1970-01-01T00:00:10.000Z</time>
      </trkpt>
      <trkpt lat="44.38496" lon="3.87787">
        <ele>1415</ele>
        <time>1970-01-01T00:00:11.000Z</time>
      </trkpt>
      <trkpt lat="44.38492" lon="3.87798">
        <ele>1415</ele>
        <time>1970-01-01T00:00:12.000Z</time>
      </trkpt>
      <trkpt lat="44.38488" lon="3.87809">
        <ele>1415</ele>
        <time>1970-01-01T00:00:13.000Z</time>
      </trkpt>
      <trkpt lat="44.38483" lon="3.8782">
        <ele>1415</ele>
        <time>1970-01-01T00:00:14.000Z</time>
      </trkpt>
      <trkpt lat="44.38478" lon="3.87831">
        <ele>1415</ele>
        <time>1970-01-01T00:00:15.000Z</time>
      </trkpt>
      <trkpt lat="44.38474" lon="3.87842">
        <ele>1416</ele>
        <time>1970-01-01T00:00:16.000Z</time>
      </trkpt>
      <trkpt lat="44.3847" lon="3.87853">
        <ele>1416</ele>
        <time>1970-01-01T00:00:17.000Z</time>
      </trkpt>
      <trkpt lat="44.38465" lon="3.87864">
        <ele>1416</ele>
        <time>1970-01-01T00:00:18.000Z</time>
      </trkpt>
      <trkpt lat="44.38461" lon="3.87874">
        <ele>1416</ele>
        <time>1970-01-01T00:00:19.000Z</time>
      </trkpt>
      <trkpt lat="44.38456" lon="3.87885">
        <ele>1416</ele>
        <time>1970-01-01T00:00:20.000Z</time>
      </trkpt>
      <trkpt lat="44.38452" lon="3.87895">
        <ele>1416</ele>
        <time>1970-01-01T00:00:21.000Z</time>
      </trkpt>
      <trkpt lat="44.38448" lon="3.87906">
        <ele>1416</ele>
        <time>1970-01-01T00:00:22.000Z</time>
      </trkpt>
      <trkpt lat="44.38444" lon="3.87917">
        <ele>1417</ele>
        <time>1970-01-01T00:00:23.000Z</time>
      </trkpt>
      <trkpt lat="44.3844" lon="3.87928">
        <ele>1417</ele>
        <time>1970-01-01T00:00:24.000Z</time>
      </trkpt>
      <trkpt lat="44.38435" lon="3.87939">
        <ele>1417</ele>
        <time>1970-01-01T00:00:25.000Z</time>
      </trkpt>
      <trkpt lat="44.38433" lon="3.87945">
        <ele>1417</ele>
        <time>1970-01-01T00:00:26.000Z</time>
      </trkpt>
      <trkpt lat="44.38434" lon="3.87957">
        <ele>1417</ele>
        <time>1970-01-01T00:00:27.000Z</time>
      </trkpt>
      <trkpt lat="44.38435" lon="3.8797">
        <ele>1417</ele>
        <time>1970-01-01T00:00:28.000Z</time>
      </trkpt>
      <trkpt lat="44.38437" lon="3.87982">
        <ele>1417</ele>
        <time>1970-01-01T00:00:29.000Z</time>
      </trkpt>
      <trkpt lat="44.38438" lon="3.87995">
        <ele>1417</ele>
        <time>1970-01-01T00:00:30.000Z</time>
      </trkpt>
      <trkpt lat="44.38439" lon="3.88007">
        <ele>1418</ele>
        <time>1970-01-01T00:00:31.000Z</time>
      </trkpt>
      <trkpt lat="44.3844" lon="3.8802">
        <ele>1418</ele>
        <time>1970-01-01T00:00:32.000Z</time>
      </trkpt>
      <trkpt lat="44.38441" lon="3.88032">
        <ele>1419</ele>
        <time>1970-01-01T00:00:33.000Z</time>
      </trkpt>
      <trkpt lat="44.38442" lon="3.88045">
        <ele>1419</ele>
        <time>1970-01-01T00:00:34.000Z</time>
      </trkpt>
      <trkpt lat="44.38444" lon="3.88057">
        <ele>1419</ele>
        <time>1970-01-01T00:00:35.000Z</time>
      </trkpt>
      <trkpt lat="44.38445" lon="3.8807">
        <ele>1419</ele>
        <time>1970-01-01T00:00:36.000Z</time>
      </trkpt>
      <trkpt lat="44.38445" lon="3.88071">
        <ele>1419</ele>
        <time>1970-01-01T00:00:37.000Z</time>
      </trkpt>
      <trkpt lat="44.38441" lon="3.88083">
        <ele>1418</ele>
        <time>1970-01-01T00:00:38.000Z</time>
      </trkpt>
      <trkpt lat="44.38438" lon="3.88094">
        <ele>1418</ele>
        <time>1970-01-01T00:00:39.000Z</time>
      </trkpt>
      <trkpt lat="44.38435" lon="3.88106">
        <ele>1418</ele>
        <time>1970-01-01T00:00:40.000Z</time>
      </trkpt>
      <trkpt lat="44.38432" lon="3.88118">
        <ele>1418</ele>
        <time>1970-01-01T00:00:41.000Z</time>
      </trkpt>
      <trkpt lat="44.38428" lon="3.88129">
        <ele>1417</ele>
        <time>1970-01-01T00:00:42.000Z</time>
      </trkpt>
      <trkpt lat="44.38425" lon="3.88141">
        <ele>1417</ele>
        <time>1970-01-01T00:00:43.000Z</time>
      </trkpt>
      <trkpt lat="44.38422" lon="3.88152">
        <ele>1416</ele>
        <time>1970-01-01T00:00:44.000Z</time>
      </trkpt>
      <trkpt lat="44.38428" lon="3.88161">
        <ele>1416</ele>
        <time>1970-01-01T00:00:45.000Z</time>
      </trkpt>
      <trkpt lat="44.38435" lon="3.88169">
        <ele>1414</ele>
        <time>1970-01-01T00:00:46.000Z</time>
      </trkpt>
      <trkpt lat="44.38442" lon="3.88178">
        <ele>1414</ele>
        <time>1970-01-01T00:00:47.000Z</time>
      </trkpt>
      <trkpt lat="44.38448" lon="3.88186">
        <ele>1414</ele>
        <time>1970-01-01T00:00:48.000Z</time>
      </trkpt>
      <trkpt lat="44.38455" lon="3.88195">
        <ele>1414</ele>
        <time>1970-01-01T00:00:49.000Z</time>
      </trkpt>
      <trkpt lat="44.38461" lon="3.88203">
        <ele>1414</ele>
        <time>1970-01-01T00:00:50.000Z</time>
      </trkpt>
      <trkpt lat="44.38466" lon="3.88209">
        <ele>1414</ele>
        <time>1970-01-01T00:00:51.000Z</time>
      </trkpt>
      <trkpt lat="44.38469" lon="3.88221">
        <ele>1414</ele>
        <time>1970-01-01T00:00:52.000Z</time>
      </trkpt>
      <trkpt lat="44.38472" lon="3.88233">
        <ele>1413</ele>
        <time>1970-01-01T00:00:53.000Z</time>
      </trkpt>
      <trkpt lat="44.38474" lon="3.88245">
        <ele>1413</ele>
        <time>1970-01-01T00:00:54.000Z</time>
      </trkpt>
      <trkpt lat="44.38477" lon="3.88257">
        <ele>1409</ele>
        <time>1970-01-01T00:00:55.000Z</time>
      </trkpt>
      <trkpt lat="44.3848" lon="3.88269">
        <ele>1408</ele>
        <time>1970-01-01T00:00:56.000Z</time>
      </trkpt>
      <trkpt lat="44.38483" lon="3.88281">
        <ele>1408</ele>
        <time>1970-01-01T00:00:57.000Z</time>
      </trkpt>
      <trkpt lat="44.38485" lon="3.88293">
        <ele>1407</ele>
        <time>1970-01-01T00:00:58.000Z</time>
      </trkpt>
      <trkpt lat="44.38487" lon="3.88298">
        <ele>1407</ele>
        <time>1970-01-01T00:00:59.000Z</time>
      </trkpt>
      <trkpt lat="44.38488" lon="3.8831">
        <ele>1406</ele>
        <time>1970-01-01T00:01:00.000Z</time>
      </trkpt>
      <trkpt lat="44.3849" lon="3.88323">
        <ele>1405</ele>
        <time>1970-01-01T00:01:01.000Z</time>
      </trkpt>
      <trkpt lat="44.38491" lon="3.88335">
        <ele>1403</ele>
        <time>1970-01-01T00:01:02.000Z</time>
      </trkpt>
      <trkpt lat="44.38493" lon="3.88348">
        <ele>1402</ele>
        <time>1970-01-01T00:01:03.000Z</time>
      </trkpt>
      <trkpt lat="44.38494" lon="3.8836">
        <ele>1401</ele>
        <time>1970-01-01T00:01:04.000Z</time>
      </trkpt>
      <trkpt lat="44.38495" lon="3.88372">
        <ele>1400</ele>
        <time>1970-01-01T00:01:05.000Z</time>
      </trkpt>
      <trkpt lat="44.38497" lon="3.88385">
        <ele>1399</ele>
        <time>1970-01-01T00:01:06.000Z</time>
      </trkpt>
      <trkpt lat="44.38498" lon="3.88397">
        <ele>1399</ele>
        <time>1970-01-01T00:01:07.000Z</time>
      </trkpt>
      <trkpt lat="44.38499" lon="3.88404">
        <ele>1398</ele>
        <time>1970-01-01T00:01:08.000Z</time>
      </trkpt>
      <trkpt lat="44.38507" lon="3.88411">
        <ele>1399</ele>
        <time>1970-01-01T00:01:09.000Z</time>
      </trkpt>
      <trkpt lat="44.38514" lon="3.88417">
        <ele>1396</ele>
        <time>1970-01-01T00:01:10.000Z</time>
      </trkpt>
      <trkpt lat="44.38522" lon="3.88424">
        <ele>1395</ele>
        <time>1970-01-01T00:01:11.000Z</time>
      </trkpt>
      <trkpt lat="44.3853" lon="3.88431">
        <ele>1394</ele>
        <time>1970-01-01T00:01:12.000Z</time>
      </trkpt>
      <trkpt lat="44.38537" lon="3.88437">
        <ele>1394</ele>
        <time>1970-01-01T00:01:13.000Z</time>
      </trkpt>
      <trkpt lat="44.38545" lon="3.88444">
        <ele>1393</ele>
        <time>1970-01-01T00:01:14.000Z</time>
      </trkpt>
      <trkpt lat="44.38552" lon="3.8845">
        <ele>1393</ele>
        <time>1970-01-01T00:01:15.000Z</time>
      </trkpt>
      <trkpt lat="44.38561" lon="3.88453">
        <ele>1393</ele>
        <time>1970-01-01T00:01:16.000Z</time>
      </trkpt>
      <trkpt lat="44.3857" lon="3.88456">
        <ele>1393</ele>
        <time>1970-01-01T00:01:17.000Z</time>
      </trkpt>
      <trkpt lat="44.38578" lon="3.88459">
        <ele>1392</ele>
        <time>1970-01-01T00:01:18.000Z</time>
      </trkpt>
      <trkpt lat="44.38587" lon="3.88462">
        <ele>1391</ele>
        <time>1970-01-01T00:01:19.000Z</time>
      </trkpt>
      <trkpt lat="44.38596" lon="3.88466">
        <ele>1390</ele>
        <time>1970-01-01T00:01:20.000Z</time>
      </trkpt>
      <trkpt lat="44.38604" lon="3.88469">
        <ele>1390</ele>
        <time>1970-01-01T00:01:21.000Z</time>
      </trkpt>
      <trkpt lat="44.38613" lon="3.88472">
        <ele>1390</ele>
        <time>1970-01-01T00:01:22.000Z</time>
      </trkpt>
      <trkpt lat="44.38622" lon="3.88475">
        <ele>1389</ele>
        <time>1970-01-01T00:01:23.000Z</time>
      </trkpt>
      <trkpt lat="44.38628" lon="3.88477">
        <ele>1389</ele>
        <time>1970-01-01T00:01:24.000Z</time>
      </trkpt>
      <trkpt lat="44.38637" lon="3.88477">
        <ele>1389</ele>
        <time>1970-01-01T00:01:25.000Z</time>
      </trkpt>
      <trkpt lat="44.38646" lon="3.88478">
        <ele>1388</ele>
        <time>1970-01-01T00:01:26.000Z</time>
      </trkpt>
      <trkpt lat="44.38655" lon="3.88478">
        <ele>1388</ele>
        <time>1970-01-01T00:01:27.000Z</time>
      </trkpt>
      <trkpt lat="44.38664" lon="3.88478">
        <ele>1388</ele>
        <time>1970-01-01T00:01:28.000Z</time>
      </trkpt>
      <trkpt lat="44.38673" lon="3.88478">
        <ele>1386</ele>
        <time>1970-01-01T00:01:29.000Z</time>
      </trkpt>
      <trkpt lat="44.38682" lon="3.88479">
        <ele>1386</ele>
        <time>1970-01-01T00:01:30.000Z</time>
      </trkpt>
      <trkpt lat="44.38691" lon="3.88479">
        <ele>1386</ele>
        <time>1970-01-01T00:01:31.000Z</time>
      </trkpt>
      <trkpt lat="44.38684" lon="3.88488">
        <ele>1386</ele>
        <time>1970-01-01T00:01:32.000Z</time>
      </trkpt>
      <trkpt lat="44.38678" lon="3.88496">
        <ele>1385</ele>
        <time>1970-01-01T00:01:33.000Z</time>
      </trkpt>
      <trkpt lat="44.38671" lon="3.88505">
        <ele>1384</ele>
        <time>1970-01-01T00:01:34.000Z</time>
      </trkpt>
      <trkpt lat="44.38665" lon="3.88514">
        <ele>1383</ele>
        <time>1970-01-01T00:01:35.000Z</time>
      </trkpt>
      <trkpt lat="44.38659" lon="3.88522">
        <ele>1383</ele>
        <time>1970-01-01T00:01:36.000Z</time>
      </trkpt>
      <trkpt lat="44.38659" lon="3.88535">
        <ele>1382</ele>
        <time>1970-01-01T00:01:37.000Z</time>
      </trkpt>
      <trkpt lat="44.38659" lon="3.88547">
        <ele>1382</ele>
        <time>1970-01-01T00:01:38.000Z</time>
      </trkpt>
      <trkpt lat="44.38659" lon="3.8856">
        <ele>1382</ele>
        <time>1970-01-01T00:01:39.000Z</time>
      </trkpt>
      <trkpt lat="44.38659" lon="3.88572">
        <ele>1381</ele>
        <time>1970-01-01T00:01:40.000Z</time>
      </trkpt>
      <trkpt lat="44.38658" lon="3.88585">
        <ele>1382</ele>
        <time>1970-01-01T00:01:41.000Z</time>
      </trkpt>
      <trkpt lat="44.38658" lon="3.88597">
        <ele>1382</ele>
        <time>1970-01-01T00:01:42.000Z</time>
      </trkpt>
      <trkpt lat="44.38654" lon="3.88608">
        <ele>1383</ele>
        <time>1970-01-01T00:01:43.000Z</time>
      </trkpt>
      <trkpt lat="44.38649" lon="3.88619">
        <ele>1383</ele>
        <time>1970-01-01T00:01:44.000Z</time>
      </trkpt>
      <trkpt lat="44.38645" lon="3.8863">
        <ele>1384</ele>
        <time>1970-01-01T00:01:45.000Z</time>
      </trkpt>
      <trkpt lat="44.38641" lon="3.88641">
        <ele>1384</ele>
        <time>1970-01-01T00:01:46.000Z</time>
      </trkpt>
      <trkpt lat="44.38636" lon="3.88652">
        <ele>1385</ele>
        <time>1970-01-01T00:01:47.000Z</time>
      </trkpt>
      <trkpt lat="44.38632" lon="3.88663">
        <ele>1385</ele>
        <time>1970-01-01T00:01:48.000Z</time>
      </trkpt>
      <trkpt lat="44.38628" lon="3.88674">
        <ele>1393</ele>
        <time>1970-01-01T00:01:49.000Z</time>
      </trkpt>
      <trkpt lat="44.38623" lon="3.88685">
        <ele>1393</ele>
        <time>1970-01-01T00:01:50.000Z</time>
      </trkpt>
      <trkpt lat="44.38621" lon="3.8869">
        <ele>1393</ele>
        <time>1970-01-01T00:01:51.000Z</time>
      </trkpt>
      <trkpt lat="44.38613" lon="3.88696">
        <ele>1394</ele>
        <time>1970-01-01T00:01:52.000Z</time>
      </trkpt>
      <trkpt lat="44.38605" lon="3.88702">
        <ele>1394</ele>
        <time>1970-01-01T00:01:53.000Z</time>
      </trkpt>
      <trkpt lat="44.38597" lon="3.88708">
        <ele>1395</ele>
        <time>1970-01-01T00:01:54.000Z</time>
      </trkpt>
      <trkpt lat="44.38589" lon="3.88714">
        <ele>1395</ele>
        <time>1970-01-01T00:01:55.000Z</time>
      </trkpt>
      <trkpt lat="44.38581" lon="3.8872">
        <ele>1392</ele>
        <time>1970-01-01T00:01:56.000Z</time>
      </trkpt>
      <trkpt lat="44.38574" lon="3.88726">
        <ele>1393</ele>
        <time>1970-01-01T00:01:57.000Z</time>
      </trkpt>
      <trkpt lat="44.38566" lon="3.88732">
        <ele>1393</ele>
        <time>1970-01-01T00:01:58.000Z</time>
      </trkpt>
      <trkpt lat="44.38558" lon="3.88738">
        <ele>1393</ele>
        <time>1970-01-01T00:01:59.000Z</time>
      </trkpt>
      <trkpt lat="44.3855" lon="3.88744">
        <ele>1392</ele>
        <time>1970-01-01T00:02:00.000Z</time>
      </trkpt>
      <trkpt lat="44.38542" lon="3.88749">
        <ele>1391</ele>
        <time>1970-01-01T00:02:01.000Z</time>
      </trkpt>
      <trkpt lat="44.38534" lon="3.88755">
        <ele>1400</ele>
        <time>1970-01-01T00:02:02.000Z</time>
      </trkpt>
      <trkpt lat="44.38526" lon="3.88761">
        <ele>1400</ele>
        <time>1970-01-01T00:02:03.000Z</time>
      </trkpt>
      <trkpt lat="44.38518" lon="3.88767">
        <ele>1399</ele>
        <time>1970-01-01T00:02:04.000Z</time>
      </trkpt>
      <trkpt lat="44.38511" lon="3.88773">
        <ele>1399</ele>
        <time>1970-01-01T00:02:05.000Z</time>
      </trkpt>
      <trkpt lat="44.38503" lon="3.88779">
        <ele>1400</ele>
        <time>1970-01-01T00:02:06.000Z</time>
      </trkpt>
      <trkpt lat="44.38494" lon="3.88785">
        <ele>1395</ele>
        <time>1970-01-01T00:02:07.000Z</time>
      </trkpt>
      <trkpt lat="44.38486" lon="3.88791">
        <ele>1396</ele>
        <time>1970-01-01T00:02:08.000Z</time>
      </trkpt>
      <trkpt lat="44.38479" lon="3.88797">
        <ele>1396</ele>
        <time>1970-01-01T00:02:09.000Z</time>
      </trkpt>
      <trkpt lat="44.38471" lon="3.88803">
        <ele>1397</ele>
        <time>1970-01-01T00:02:10.000Z</time>
      </trkpt>
      <trkpt lat="44.38463" lon="3.88809">
        <ele>1397</ele>
        <time>1970-01-01T00:02:11.000Z</time>
      </trkpt>
      <trkpt lat="44.38455" lon="3.88815">
        <ele>1396</ele>
        <time>1970-01-01T00:02:12.000Z</time>
      </trkpt>
      <trkpt lat="44.38447" lon="3.88821">
        <ele>1396</ele>
        <time>1970-01-01T00:02:13.000Z</time>
      </trkpt>
      <trkpt lat="44.38439" lon="3.88827">
        <ele>1397</ele>
        <time>1970-01-01T00:02:14.000Z</time>
      </trkpt>
      <trkpt lat="44.38431" lon="3.88833">
        <ele>1397</ele>
        <time>1970-01-01T00:02:15.000Z</time>
      </trkpt>
      <trkpt lat="44.38423" lon="3.88839">
        <ele>1402</ele>
        <time>1970-01-01T00:02:16.000Z</time>
      </trkpt>
      <trkpt lat="44.38416" lon="3.88845">
        <ele>1399</ele>
        <time>1970-01-01T00:02:17.000Z</time>
      </trkpt>
      <trkpt lat="44.38408" lon="3.88851">
        <ele>1400</ele>
        <time>1970-01-01T00:02:18.000Z</time>
      </trkpt>
      <trkpt lat="44.384" lon="3.88857">
        <ele>1401</ele>
        <time>1970-01-01T00:02:19.000Z</time>
      </trkpt>
      <trkpt lat="44.38391" lon="3.88862">
        <ele>1401</ele>
        <time>1970-01-01T00:02:20.000Z</time>
      </trkpt>
      <trkpt lat="44.38384" lon="3.88868">
        <ele>1401</ele>
        <time>1970-01-01T00:02:21.000Z</time>
      </trkpt>
      <trkpt lat="44.38376" lon="3.88874">
        <ele>1401</ele>
        <time>1970-01-01T00:02:22.000Z</time>
      </trkpt>
      <trkpt lat="44.38368" lon="3.8888">
        <ele>1402</ele>
        <time>1970-01-01T00:02:23.000Z</time>
      </trkpt>
      <trkpt lat="44.3836" lon="3.88886">
        <ele>1402</ele>
        <time>1970-01-01T00:02:24.000Z</time>
      </trkpt>
      <trkpt lat="44.38352" lon="3.88892">
        <ele>1402</ele>
        <time>1970-01-01T00:02:25.000Z</time>
      </trkpt>
      <trkpt lat="44.38344" lon="3.88898">
        <ele>1402</ele>
        <time>1970-01-01T00:02:26.000Z</time>
      </trkpt>
      <trkpt lat="44.38336" lon="3.88904">
        <ele>1403</ele>
        <time>1970-01-01T00:02:27.000Z</time>
      </trkpt>
      <trkpt lat="44.3833" lon="3.88908">
        <ele>1400</ele>
        <time>1970-01-01T00:02:28.000Z</time>
      </trkpt>
      <trkpt lat="44.38322" lon="3.88914">
        <ele>1399</ele>
        <time>1970-01-01T00:02:29.000Z</time>
      </trkpt>
      <trkpt lat="44.38314" lon="3.88919">
        <ele>1405</ele>
        <time>1970-01-01T00:02:30.000Z</time>
      </trkpt>
      <trkpt lat="44.38306" lon="3.88925">
        <ele>1405</ele>
        <time>1970-01-01T00:02:31.000Z</time>
      </trkpt>
      <trkpt lat="44.38298" lon="3.88931">
        <ele>1405</ele>
        <time>1970-01-01T00:02:32.000Z</time>
      </trkpt>
      <trkpt lat="44.3829" lon="3.88937">
        <ele>1404</ele>
        <time>1970-01-01T00:02:33.000Z</time>
      </trkpt>
      <trkpt lat="44.38282" lon="3.88942">
        <ele>1404</ele>
        <time>1970-01-01T00:02:34.000Z</time>
      </trkpt>
      <trkpt lat="44.38274" lon="3.88948">
        <ele>1404</ele>
        <time>1970-01-01T00:02:35.000Z</time>
      </trkpt>
      <trkpt lat="44.38266" lon="3.88954">
        <ele>1404</ele>
        <time>1970-01-01T00:02:36.000Z</time>
      </trkpt>
      <trkpt lat="44.38258" lon="3.8896">
        <ele>1405</ele>
        <time>1970-01-01T00:02:37.000Z</time>
      </trkpt>
      <trkpt lat="44.3825" lon="3.88965">
        <ele>1400</ele>
        <time>1970-01-01T00:02:38.000Z</time>
      </trkpt>
      <trkpt lat="44.38242" lon="3.88971">
        <ele>1400</ele>
        <time>1970-01-01T00:02:39.000Z</time>
      </trkpt>
      <trkpt lat="44.38234" lon="3.88977">
        <ele>1401</ele>
        <time>1970-01-01T00:02:40.000Z</time>
      </trkpt>
      <trkpt lat="44.38226" lon="3.88983">
        <ele>1401</ele>
        <time>1970-01-01T00:02:41.000Z</time>
      </trkpt>
      <trkpt lat="44.38221" lon="3.88986">
        <ele>1401</ele>
        <time>1970-01-01T00:02:42.000Z</time>
      </trkpt>
      <trkpt lat="44.38213" lon="3.8899">
        <ele>1400</ele>
        <time>1970-01-01T00:02:43.000Z</time>
      </trkpt>
      <trkpt lat="44.38204" lon="3.88994">
        <ele>1400</ele>
        <time>1970-01-01T00:02:44.000Z</time>
      </trkpt>
      <trkpt lat="44.38195" lon="3.88998">
        <ele>1400</ele>
        <time>1970-01-01T00:02:45.000Z</time>
      </trkpt>
      <trkpt lat="44.38187" lon="3.89002">
        <ele>1407</ele>
        <time>1970-01-01T00:02:46.000Z</time>
      </trkpt>
      <trkpt lat="44.38179" lon="3.89006">
        <ele>1406</ele>
        <time>1970-01-01T00:02:47.000Z</time>
      </trkpt>
      <trkpt lat="44.3817" lon="3.8901">
        <ele>1406</ele>
        <time>1970-01-01T00:02:48.000Z</time>
      </trkpt>
      <trkpt lat="44.38161" lon="3.89014">
        <ele>1404</ele>
        <time>1970-01-01T00:02:49.000Z</time>
      </trkpt>
      <trkpt lat="44.38153" lon="3.89018">
        <ele>1405</ele>
        <time>1970-01-01T00:02:50.000Z</time>
      </trkpt>
      <trkpt lat="44.38144" lon="3.89023">
        <ele>1406</ele>
        <time>1970-01-01T00:02:51.000Z</time>
      </trkpt>
      <trkpt lat="44.38136" lon="3.89027">
        <ele>1406</ele>
        <time>1970-01-01T00:02:52.000Z</time>
      </trkpt>
      <trkpt lat="44.38128" lon="3.89031">
        <ele>1406</ele>
        <time>1970-01-01T00:02:53.000Z</time>
      </trkpt>
      <trkpt lat="44.38119" lon="3.89035">
        <ele>1406</ele>
        <time>1970-01-01T00:02:54.000Z</time>
      </trkpt>
      <trkpt lat="44.3811" lon="3.89039">
        <ele>1406</ele>
        <time>1970-01-01T00:02:55.000Z</time>
      </trkpt>
      <trkpt lat="44.38102" lon="3.89043">
        <ele>1407</ele>
        <time>1970-01-01T00:02:56.000Z</time>
      </trkpt>
      <trkpt lat="44.38094" lon="3.89047">
        <ele>1407</ele>
        <time>1970-01-01T00:02:57.000Z</time>
      </trkpt>
      <trkpt lat="44.38085" lon="3.89051">
        <ele>1407</ele>
        <time>1970-01-01T00:02:58.000Z</time>
      </trkpt>
      <trkpt lat="44.38076" lon="3.89055">
        <ele>1406</ele>
        <time>1970-01-01T00:02:59.000Z</time>
      </trkpt>
      <trkpt lat="44.38068" lon="3.89059">
        <ele>1406</ele>
        <time>1970-01-01T00:03:00.000Z</time>
      </trkpt>
      <trkpt lat="44.3806" lon="3.89063">
        <ele>1406</ele>
        <time>1970-01-01T00:03:01.000Z</time>
      </trkpt>
      <trkpt lat="44.38051" lon="3.89067">
        <ele>1406</ele>
        <time>1970-01-01T00:03:02.000Z</time>
      </trkpt>
      <trkpt lat="44.38042" lon="3.89071">
        <ele>1406</ele>
        <time>1970-01-01T00:03:03.000Z</time>
      </trkpt>
      <trkpt lat="44.38034" lon="3.89075">
        <ele>1406</ele>
        <time>1970-01-01T00:03:04.000Z</time>
      </trkpt>
      <trkpt lat="44.38025" lon="3.89079">
        <ele>1406</ele>
        <time>1970-01-01T00:03:05.000Z</time>
      </trkpt>
      <trkpt lat="44.38017" lon="3.89083">
        <ele>1413</ele>
        <time>1970-01-01T00:03:06.000Z</time>
      </trkpt>
      <trkpt lat="44.38008" lon="3.89087">
        <ele>1412</ele>
        <time>1970-01-01T00:03:07.000Z</time>
      </trkpt>
      <trkpt lat="44.38" lon="3.89092">
        <ele>1412</ele>
        <time>1970-01-01T00:03:08.000Z</time>
      </trkpt>
      <trkpt lat="44.37991" lon="3.89096">
        <ele>1411</ele>
        <time>1970-01-01T00:03:09.000Z</time>
      </trkpt>
      <trkpt lat="44.37983" lon="3.891">
        <ele>1411</ele>
        <time>1970-01-01T00:03:10.000Z</time>
      </trkpt>
      <trkpt lat="44.37975" lon="3.89104">
        <ele>1412</ele>
        <time>1970-01-01T00:03:11.000Z</time>
      </trkpt>
      <trkpt lat="44.37966" lon="3.89108">
        <ele>1412</ele>
        <time>1970-01-01T00:03:12.000Z</time>
      </trkpt>
      <trkpt lat="44.37957" lon="3.89112">
        <ele>1412</ele>
        <time>1970-01-01T00:03:13.000Z</time>
      </trkpt>
      <trkpt lat="44.37949" lon="3.89116">
        <ele>1412</ele>
        <time>1970-01-01T00:03:14.000Z</time>
      </trkpt>
      <trkpt lat="44.37941" lon="3.8912">
        <ele>1412</ele>
        <time>1970-01-01T00:03:15.000Z</time>
      </trkpt>
      <trkpt lat="44.37932" lon="3.89124">
        <ele>1412</ele>
        <time>1970-01-01T00:03:16.000Z</time>
      </trkpt>
      <trkpt lat="44.37923" lon="3.89128">
        <ele>1412</ele>
        <time>1970-01-01T00:03:17.000Z</time>
      </trkpt>
      <trkpt lat="44.37915" lon="3.89132">
        <ele>1408</ele>
        <time>1970-01-01T00:03:18.000Z</time>
      </trkpt>
      <trkpt lat="44.37906" lon="3.89136">
        <ele>1408</ele>
        <time>1970-01-01T00:03:19.000Z</time>
      </trkpt>
      <trkpt lat="44.37898" lon="3.8914">
        <ele>1408</ele>
        <time>1970-01-01T00:03:20.000Z</time>
      </trkpt>
      <trkpt lat="44.37889" lon="3.89144">
        <ele>1408</ele>
        <time>1970-01-01T00:03:21.000Z</time>
      </trkpt>
      <trkpt lat="44.37881" lon="3.89148">
        <ele>1407</ele>
        <time>1970-01-01T00:03:22.000Z</time>
      </trkpt>
      <trkpt lat="44.37872" lon="3.89152">
        <ele>1407</ele>
        <time>1970-01-01T00:03:23.000Z</time>
      </trkpt>
      <trkpt lat="44.37864" lon="3.89156">
        <ele>1407</ele>
        <time>1970-01-01T00:03:24.000Z</time>
      </trkpt>
      <trkpt lat="44.37856" lon="3.89161">
        <ele>1407</ele>
        <time>1970-01-01T00:03:25.000Z</time>
      </trkpt>
      <trkpt lat="44.37847" lon="3.89165">
        <ele>1407</ele>
        <time>1970-01-01T00:03:26.000Z</time>
      </trkpt>
      <trkpt lat="44.37838" lon="3.89169">
        <ele>1410</ele>
        <time>1970-01-01T00:03:27.000Z</time>
      </trkpt>
      <trkpt lat="44.3783" lon="3.89173">
        <ele>1408</ele>
        <time>1970-01-01T00:03:28.000Z</time>
      </trkpt>
      <trkpt lat="44.37822" lon="3.89177">
        <ele>1408</ele>
        <time>1970-01-01T00:03:29.000Z</time>
      </trkpt>
      <trkpt lat="44.37813" lon="3.89181">
        <ele>1408</ele>
        <time>1970-01-01T00:03:30.000Z</time>
      </trkpt>
      <trkpt lat="44.37809" lon="3.89182">
        <ele>1408</ele>
        <time>1970-01-01T00:03:31.000Z</time>
      </trkpt>
      <trkpt lat="44.37806" lon="3.89194">
        <ele>1408</ele>
        <time>1970-01-01T00:03:32.000Z</time>
      </trkpt>
      <trkpt lat="44.37803" lon="3.89206">
        <ele>1408</ele>
        <time>1970-01-01T00:03:33.000Z</time>
      </trkpt>
      <trkpt lat="44.37799" lon="3.89217">
        <ele>1409</ele>
        <time>1970-01-01T00:03:34.000Z</time>
      </trkpt>
      <trkpt lat="44.37796" lon="3.89229">
        <ele>1409</ele>
        <time>1970-01-01T00:03:35.000Z</time>
      </trkpt>
      <trkpt lat="44.37793" lon="3.89241">
        <ele>1410</ele>
        <time>1970-01-01T00:03:36.000Z</time>
      </trkpt>
      <trkpt lat="44.3779" lon="3.89253">
        <ele>1414</ele>
        <time>1970-01-01T00:03:37.000Z</time>
      </trkpt>
      <trkpt lat="44.37787" lon="3.89264">
        <ele>1414</ele>
        <time>1970-01-01T00:03:38.000Z</time>
      </trkpt>
      <trkpt lat="44.37784" lon="3.89276">
        <ele>1414</ele>
        <time>1970-01-01T00:03:39.000Z</time>
      </trkpt>
      <trkpt lat="44.37781" lon="3.89288">
        <ele>1415</ele>
        <time>1970-01-01T00:03:40.000Z</time>
      </trkpt>
      <trkpt lat="44.37778" lon="3.893">
        <ele>1415</ele>
        <time>1970-01-01T00:03:41.000Z</time>
      </trkpt>
      <trkpt lat="44.37775" lon="3.89312">
        <ele>1415</ele>
        <time>1970-01-01T00:03:42.000Z</time>
      </trkpt>
      <trkpt lat="44.37772" lon="3.89323">
        <ele>1415</ele>
        <time>1970-01-01T00:03:43.000Z</time>
      </trkpt>
      <trkpt lat="44.37769" lon="3.89335">
        <ele>1417</ele>
        <time>1970-01-01T00:03:44.000Z</time>
      </trkpt>
      <trkpt lat="44.37766" lon="3.89344">
        <ele>1417</ele>
        <time>1970-01-01T00:03:45.000Z</time>
      </trkpt>
      <trkpt lat="44.37768" lon="3.89356">
        <ele>1418</ele>
        <time>1970-01-01T00:03:46.000Z</time>
      </trkpt>
      <trkpt lat="44.3777" lon="3.89368">
        <ele>1419</ele>
        <time>1970-01-01T00:03:47.000Z</time>
      </trkpt>
      <trkpt lat="44.37773" lon="3.8938">
        <ele>1419</ele>
        <time>1970-01-01T00:03:48.000Z</time>
      </trkpt>
      <trkpt lat="44.37775" lon="3.89393">
        <ele>1419</ele>
        <time>1970-01-01T00:03:49.000Z</time>
      </trkpt>
      <trkpt lat="44.37777" lon="3.89405">
        <ele>1419</ele>
        <time>1970-01-01T00:03:50.000Z</time>
      </trkpt>
      <trkpt lat="44.37779" lon="3.89413">
        <ele>1420</ele>
        <time>1970-01-01T00:03:51.000Z</time>
      </trkpt>
      <trkpt lat="44.3777" lon="3.89415">
        <ele>1419</ele>
        <time>1970-01-01T00:03:52.000Z</time>
      </trkpt>
      <trkpt lat="44.37761" lon="3.89417">
        <ele>1419</ele>
        <time>1970-01-01T00:03:53.000Z</time>
      </trkpt>
      <trkpt lat="44.37752" lon="3.89419">
        <ele>1418</ele>
        <time>1970-01-01T00:03:54.000Z</time>
      </trkpt>
      <trkpt lat="44.37743" lon="3.89421">
        <ele>1418</ele>
        <time>1970-01-01T00:03:55.000Z</time>
      </trkpt>
      <trkpt lat="44.37735" lon="3.89423">
        <ele>1418</ele>
        <time>1970-01-01T00:03:56.000Z</time>
      </trkpt>
      <trkpt lat="44.37729" lon="3.89424">
        <ele>1418</ele>
        <time>1970-01-01T00:03:57.000Z</time>
      </trkpt>
      <trkpt lat="44.37721" lon="3.89418">
        <ele>1418</ele>
        <time>1970-01-01T00:03:58.000Z</time>
      </trkpt>
      <trkpt lat="44.37713" lon="3.89411">
        <ele>1415</ele>
        <time>1970-01-01T00:03:59.000Z</time>
      </trkpt>
      <trkpt lat="44.37706" lon="3.89405">
        <ele>1415</ele>
        <time>1970-01-01T00:04:00.000Z</time>
      </trkpt>
      <trkpt lat="44.37698" lon="3.89399">
        <ele>1415</ele>
        <time>1970-01-01T00:04:01.000Z</time>
      </trkpt>
      <trkpt lat="44.3769" lon="3.89393">
        <ele>1415</ele>
        <time>1970-01-01T00:04:02.000Z</time>
      </trkpt>
      <trkpt lat="44.37682" lon="3.89387">
        <ele>1414</ele>
        <time>1970-01-01T00:04:03.000Z</time>
      </trkpt>
      <trkpt lat="44.3768" lon="3.89385">
        <ele>1414</ele>
        <time>1970-01-01T00:04:04.000Z</time>
      </trkpt>
      <trkpt lat="44.37672" lon="3.89389">
        <ele>1414</ele>
        <time>1970-01-01T00:04:05.000Z</time>
      </trkpt>
      <trkpt lat="44.37663" lon="3.89393">
        <ele>1414</ele>
        <time>1970-01-01T00:04:06.000Z</time>
      </trkpt>
      <trkpt lat="44.37654" lon="3.89397">
        <ele>1414</ele>
        <time>1970-01-01T00:04:07.000Z</time>
      </trkpt>
      <trkpt lat="44.37646" lon="3.89402">
        <ele>1414</ele>
        <time>1970-01-01T00:04:08.000Z</time>
      </trkpt>
      <trkpt lat="44.37638" lon="3.89406">
        <ele>1414</ele>
        <time>1970-01-01T00:04:09.000Z</time>
      </trkpt>
      <trkpt lat="44.37629" lon="3.8941">
        <ele>1414</ele>
        <time>1970-01-01T00:04:10.000Z</time>
      </trkpt>
      <trkpt lat="44.37621" lon="3.89414">
        <ele>1414</ele>
        <time>1970-01-01T00:04:11.000Z</time>
      </trkpt>
      <trkpt lat="44.37612" lon="3.89418">
        <ele>1418</ele>
        <time>1970-01-01T00:04:12.000Z</time>
      </trkpt>
      <trkpt lat="44.37604" lon="3.89422">
        <ele>1418</ele>
        <time>1970-01-01T00:04:13.000Z</time>
      </trkpt>
      <trkpt lat="44.37595" lon="3.89426">
        <ele>1418</ele>
        <time>1970-01-01T00:04:14.000Z</time>
      </trkpt>
      <trkpt lat="44.37594" lon="3.89427">
        <ele>1418</ele>
        <time>1970-01-01T00:04:15.000Z</time>
      </trkpt>
      <trkpt lat="44.37585" lon="3.89431">
        <ele>1418</ele>
        <time>1970-01-01T00:04:16.000Z</time>
      </trkpt>
      <trkpt lat="44.37577" lon="3.89434">
        <ele>1417</ele>
        <time>1970-01-01T00:04:17.000Z</time>
      </trkpt>
      <trkpt lat="44.37568" lon="3.89438">
        <ele>1417</ele>
        <time>1970-01-01T00:04:18.000Z</time>
      </trkpt>
      <trkpt lat="44.3756" lon="3.89441">
        <ele>1417</ele>
        <time>1970-01-01T00:04:19.000Z</time>
      </trkpt>
      <trkpt lat="44.37551" lon="3.89445">
        <ele>1417</ele>
        <time>1970-01-01T00:04:20.000Z</time>
      </trkpt>
      <trkpt lat="44.37542" lon="3.89449">
        <ele>1417</ele>
        <time>1970-01-01T00:04:21.000Z</time>
      </trkpt>
      <trkpt lat="44.37534" lon="3.89452">
        <ele>1417</ele>
        <time>1970-01-01T00:04:22.000Z</time>
      </trkpt>
      <trkpt lat="44.37525" lon="3.89456">
        <ele>1416</ele>
        <time>1970-01-01T00:04:23.000Z</time>
      </trkpt>
      <trkpt lat="44.37516" lon="3.89459">
        <ele>1416</ele>
        <time>1970-01-01T00:04:24.000Z</time>
      </trkpt>
      <trkpt lat="44.37508" lon="3.89463">
        <ele>1416</ele>
        <time>1970-01-01T00:04:25.000Z</time>
      </trkpt>
      <trkpt lat="44.37499" lon="3.89466">
        <ele>1413</ele>
        <time>1970-01-01T00:04:26.000Z</time>
      </trkpt>
      <trkpt lat="44.37495" lon="3.89468">
        <ele>1413</ele>
        <time>1970-01-01T00:04:27.000Z</time>
      </trkpt>
      <trkpt lat="44.37489" lon="3.89478">
        <ele>1414</ele>
        <time>1970-01-01T00:04:28.000Z</time>
      </trkpt>
      <trkpt lat="44.37484" lon="3.89487">
        <ele>1414</ele>
        <time>1970-01-01T00:04:29.000Z</time>
      </trkpt>
      <trkpt lat="44.37478" lon="3.89497">
        <ele>1414</ele>
        <time>1970-01-01T00:04:30.000Z</time>
      </trkpt>
      <trkpt lat="44.37472" lon="3.89507">
        <ele>1418</ele>
        <time>1970-01-01T00:04:31.000Z</time>
      </trkpt>
      <trkpt lat="44.37466" lon="3.89516">
        <ele>1418</ele>
        <time>1970-01-01T00:04:32.000Z</time>
      </trkpt>
      <trkpt lat="44.3746" lon="3.89526">
        <ele>1418</ele>
        <time>1970-01-01T00:04:33.000Z</time>
      </trkpt>
      <trkpt lat="44.37455" lon="3.89535">
        <ele>1418</ele>
        <time>1970-01-01T00:04:34.000Z</time>
      </trkpt>
      <trkpt lat="44.37449" lon="3.89545">
        <ele>1419</ele>
        <time>1970-01-01T00:04:35.000Z</time>
      </trkpt>
      <trkpt lat="44.37443" lon="3.89555">
        <ele>1419</ele>
        <time>1970-01-01T00:04:36.000Z</time>
      </trkpt>
      <trkpt lat="44.37437" lon="3.89564">
        <ele>1419</ele>
        <time>1970-01-01T00:04:37.000Z</time>
      </trkpt>
      <trkpt lat="44.37432" lon="3.89574">
        <ele>1419</ele>
        <time>1970-01-01T00:04:38.000Z</time>
      </trkpt>
      <trkpt lat="44.37426" lon="3.89584">
        <ele>1421</ele>
        <time>1970-01-01T00:04:39.000Z</time>
      </trkpt>
      <trkpt lat="44.37425" lon="3.89585">
        <ele>1421</ele>
        <time>1970-01-01T00:04:40.000Z</time>
      </trkpt>
      <trkpt lat="44.37418" lon="3.89592">
        <ele>1421</ele>
        <time>1970-01-01T00:04:41.000Z</time>
      </trkpt>
      <trkpt lat="44.3741" lon="3.896">
        <ele>1420</ele>
        <time>1970-01-01T00:04:42.000Z</time>
      </trkpt>
      <trkpt lat="44.37403" lon="3.89607">
        <ele>1420</ele>
        <time>1970-01-01T00:04:43.000Z</time>
      </trkpt>
      <trkpt lat="44.37396" lon="3.89615">
        <ele>1421</ele>
        <time>1970-01-01T00:04:44.000Z</time>
      </trkpt>
      <trkpt lat="44.37389" lon="3.89622">
        <ele>1421</ele>
        <time>1970-01-01T00:04:45.000Z</time>
      </trkpt>
      <trkpt lat="44.37381" lon="3.8963">
        <ele>1421</ele>
        <time>1970-01-01T00:04:46.000Z</time>
      </trkpt>
      <trkpt lat="44.37374" lon="3.89637">
        <ele>1421</ele>
        <time>1970-01-01T00:04:47.000Z</time>
      </trkpt>
      <trkpt lat="44.37367" lon="3.89645">
        <ele>1421</ele>
        <time>1970-01-01T00:04:48.000Z</time>
      </trkpt>
      <trkpt lat="44.3736" lon="3.89652">
        <ele>1421</ele>
        <time>1970-01-01T00:04:49.000Z</time>
      </trkpt>
      <trkpt lat="44.37353" lon="3.8966">
        <ele>1421</ele>
        <time>1970-01-01T00:04:50.000Z</time>
      </trkpt>
      <trkpt lat="44.37348" lon="3.89664">
        <ele>1422</ele>
        <time>1970-01-01T00:04:51.000Z</time>
      </trkpt>
      <trkpt lat="44.37339" lon="3.89666">
        <ele>1422</ele>
        <time>1970-01-01T00:04:52.000Z</time>
      </trkpt>
      <trkpt lat="44.3733" lon="3.89668">
        <ele>1422</ele>
        <time>1970-01-01T00:04:53.000Z</time>
      </trkpt>
      <trkpt lat="44.37321" lon="3.89669">
        <ele>1422</ele>
        <time>1970-01-01T00:04:54.000Z</time>
      </trkpt>
      <trkpt lat="44.37313" lon="3.89671">
        <ele>1422</ele>
        <time>1970-01-01T00:04:55.000Z</time>
      </trkpt>
      <trkpt lat="44.37304" lon="3.89673">
        <ele>1421</ele>
        <time>1970-01-01T00:04:56.000Z</time>
      </trkpt>
      <trkpt lat="44.37295" lon="3.89675">
        <ele>1421</ele>
        <time>1970-01-01T00:04:57.000Z</time>
      </trkpt>
      <trkpt lat="44.37286" lon="3.89676">
        <ele>1421</ele>
        <time>1970-01-01T00:04:58.000Z</time>
      </trkpt>
      <trkpt lat="44.37277" lon="3.89678">
        <ele>1420</ele>
        <time>1970-01-01T00:04:59.000Z</time>
      </trkpt>
      <trkpt lat="44.37268" lon="3.8968">
        <ele>1420</ele>
        <time>1970-01-01T00:05:00.000Z</time>
      </trkpt>
      <trkpt lat="44.37262" lon="3.89681">
        <ele>1420</ele>
        <time>1970-01-01T00:05:01.000Z</time>
      </trkpt>
      <trkpt lat="44.37255" lon="3.8969">
        <ele>1420</ele>
        <time>1970-01-01T00:05:02.000Z</time>
      </trkpt>
      <trkpt lat="44.37249" lon="3.89698">
        <ele>1418</ele>
        <time>1970-01-01T00:05:03.000Z</time>
      </trkpt>
      <trkpt lat="44.37243" lon="3.89707">
        <ele>1418</ele>
        <time>1970-01-01T00:05:04.000Z</time>
      </trkpt>
      <trkpt lat="44.37236" lon="3.89716">
        <ele>1418</ele>
        <time>1970-01-01T00:05:05.000Z</time>
      </trkpt>
      <trkpt lat="44.3723" lon="3.89724">
        <ele>1418</ele>
        <time>1970-01-01T00:05:06.000Z</time>
      </trkpt>
      <trkpt lat="44.37223" lon="3.89733">
        <ele>1418</ele>
        <time>1970-01-01T00:05:07.000Z</time>
      </trkpt>
      <trkpt lat="44.37217" lon="3.89742">
        <ele>1418</ele>
        <time>1970-01-01T00:05:08.000Z</time>
      </trkpt>
      <trkpt lat="44.37216" lon="3.89742">
        <ele>1418</ele>
        <time>1970-01-01T00:05:09.000Z</time>
      </trkpt>
      <trkpt lat="44.37209" lon="3.8975">
        <ele>1416</ele>
        <time>1970-01-01T00:05:10.000Z</time>
      </trkpt>
      <trkpt lat="44.37202" lon="3.89758">
        <ele>1415</ele>
        <time>1970-01-01T00:05:11.000Z</time>
      </trkpt>
      <trkpt lat="44.37196" lon="3.89767">
        <ele>1415</ele>
        <time>1970-01-01T00:05:12.000Z</time>
      </trkpt>
      <trkpt lat="44.37189" lon="3.89775">
        <ele>1414</ele>
        <time>1970-01-01T00:05:13.000Z</time>
      </trkpt>
      <trkpt lat="44.37182" lon="3.89783">
        <ele>1414</ele>
        <time>1970-01-01T00:05:14.000Z</time>
      </trkpt>
      <trkpt lat="44.37175" lon="3.89791">
        <ele>1414</ele>
        <time>1970-01-01T00:05:15.000Z</time>
      </trkpt>
      <trkpt lat="44.37169" lon="3.89799">
        <ele>1413</ele>
        <time>1970-01-01T00:05:16.000Z</time>
      </trkpt>
      <trkpt lat="44.37162" lon="3.89808">
        <ele>1412</ele>
        <time>1970-01-01T00:05:17.000Z</time>
      </trkpt>
      <trkpt lat="44.37155" lon="3.89816">
        <ele>1412</ele>
        <time>1970-01-01T00:05:18.000Z</time>
      </trkpt>
      <trkpt lat="44.37148" lon="3.89824">
        <ele>1412</ele>
        <time>1970-01-01T00:05:19.000Z</time>
      </trkpt>
      <trkpt lat="44.37141" lon="3.89832">
        <ele>1412</ele>
        <time>1970-01-01T00:05:20.000Z</time>
      </trkpt>
      <trkpt lat="44.37135" lon="3.8984">
        <ele>1408</ele>
        <time>1970-01-01T00:05:21.000Z</time>
      </trkpt>
      <trkpt lat="44.37129" lon="3.89847">
        <ele>1408</ele>
        <time>1970-01-01T00:05:22.000Z</time>
      </trkpt>
      <trkpt lat="44.37123" lon="3.89856">
        <ele>1408</ele>
        <time>1970-01-01T00:05:23.000Z</time>
      </trkpt>
      <trkpt lat="44.37116" lon="3.89865">
        <ele>1408</ele>
        <time>1970-01-01T00:05:24.000Z</time>
      </trkpt>
      <trkpt lat="44.3711" lon="3.89874">
        <ele>1408</ele>
        <time>1970-01-01T00:05:25.000Z</time>
      </trkpt>
      <trkpt lat="44.37104" lon="3.89883">
        <ele>1407</ele>
        <time>1970-01-01T00:05:26.000Z</time>
      </trkpt>
      <trkpt lat="44.37098" lon="3.89892">
        <ele>1407</ele>
        <time>1970-01-01T00:05:27.000Z</time>
      </trkpt>
      <trkpt lat="44.37091" lon="3.89901">
        <ele>1406</ele>
        <time>1970-01-01T00:05:28.000Z</time>
      </trkpt>
      <trkpt lat="44.37085" lon="3.8991">
        <ele>1405</ele>
        <time>1970-01-01T00:05:29.000Z</time>
      </trkpt>
      <trkpt lat="44.37079" lon="3.89919">
        <ele>1404</ele>
        <time>1970-01-01T00:05:30.000Z</time>
      </trkpt>
      <trkpt lat="44.37073" lon="3.89928">
        <ele>1404</ele>
        <time>1970-01-01T00:05:31.000Z</time>
      </trkpt>
      <trkpt lat="44.37066" lon="3.89937">
        <ele>1403</ele>
        <time>1970-01-01T00:05:32.000Z</time>
      </trkpt>
      <trkpt lat="44.37065" lon="3.89939">
        <ele>1403</ele>
        <time>1970-01-01T00:05:33.000Z</time>
      </trkpt>
      <trkpt lat="44.37057" lon="3.89946">
        <ele>1403</ele>
        <time>1970-01-01T00:05:34.000Z</time>
      </trkpt>
      <trkpt lat="44.3705" lon="3.89953">
        <ele>1403</ele>
        <time>1970-01-01T00:05:35.000Z</time>
      </trkpt>
      <trkpt lat="44.37043" lon="3.8996">
        <ele>1403</ele>
        <time>1970-01-01T00:05:36.000Z</time>
      </trkpt>
      <trkpt lat="44.37035" lon="3.89966">
        <ele>1403</ele>
        <time>1970-01-01T00:05:37.000Z</time>
      </trkpt>
      <trkpt lat="44.37027" lon="3.89973">
        <ele>1403</ele>
        <time>1970-01-01T00:05:38.000Z</time>
      </trkpt>
      <trkpt lat="44.3702" lon="3.8998">
        <ele>1402</ele>
        <time>1970-01-01T00:05:39.000Z</time>
      </trkpt>
      <trkpt lat="44.37012" lon="3.89987">
        <ele>1402</ele>
        <time>1970-01-01T00:05:40.000Z</time>
      </trkpt>
      <trkpt lat="44.37005" lon="3.89994">
        <ele>1402</ele>
        <time>1970-01-01T00:05:41.000Z</time>
      </trkpt>
      <trkpt lat="44.36997" lon="3.90001">
        <ele>1401</ele>
        <time>1970-01-01T00:05:42.000Z</time>
      </trkpt>
      <trkpt lat="44.3699" lon="3.90008">
        <ele>1402</ele>
        <time>1970-01-01T00:05:43.000Z</time>
      </trkpt>
      <trkpt lat="44.36982" lon="3.90014">
        <ele>1402</ele>
        <time>1970-01-01T00:05:44.000Z</time>
      </trkpt>
      <trkpt lat="44.36975" lon="3.90021">
        <ele>1402</ele>
        <time>1970-01-01T00:05:45.000Z</time>
      </trkpt>
      <trkpt lat="44.36967" lon="3.90028">
        <ele>1402</ele>
        <time>1970-01-01T00:05:46.000Z</time>
      </trkpt>
      <trkpt lat="44.3696" lon="3.90035">
        <ele>1402</ele>
        <time>1970-01-01T00:05:47.000Z</time>
      </trkpt>
      <trkpt lat="44.36952" lon="3.90042">
        <ele>1402</ele>
        <time>1970-01-01T00:05:48.000Z</time>
      </trkpt>
      <trkpt lat="44.36945" lon="3.90049">
        <ele>1403</ele>
        <time>1970-01-01T00:05:49.000Z</time>
      </trkpt>
      <trkpt lat="44.36937" lon="3.90055">
        <ele>1403</ele>
        <time>1970-01-01T00:05:50.000Z</time>
      </trkpt>
      <trkpt lat="44.3693" lon="3.90062">
        <ele>1403</ele>
        <time>1970-01-01T00:05:51.000Z</time>
      </trkpt>
      <trkpt lat="44.36924" lon="3.90067">
        <ele>1403</ele>
        <time>1970-01-01T00:05:52.000Z</time>
      </trkpt>
      <trkpt lat="44.36919" lon="3.90078">
        <ele>1403</ele>
        <time>1970-01-01T00:05:53.000Z</time>
      </trkpt>
      <trkpt lat="44.36914" lon="3.90088">
        <ele>1403</ele>
        <time>1970-01-01T00:05:54.000Z</time>
      </trkpt>
      <trkpt lat="44.36909" lon="3.90099">
        <ele>1403</ele>
        <time>1970-01-01T00:05:55.000Z</time>
      </trkpt>
      <trkpt lat="44.36905" lon="3.90109">
        <ele>1403</ele>
        <time>1970-01-01T00:05:56.000Z</time>
      </trkpt>
      <trkpt lat="44.369" lon="3.9012">
        <ele>1402</ele>
        <time>1970-01-01T00:05:57.000Z</time>
      </trkpt>
      <trkpt lat="44.36895" lon="3.9013">
        <ele>1402</ele>
        <time>1970-01-01T00:05:58.000Z</time>
      </trkpt>
      <trkpt lat="44.3689" lon="3.90141">
        <ele>1402</ele>
        <time>1970-01-01T00:05:59.000Z</time>
      </trkpt>
      <trkpt lat="44.36885" lon="3.90152">
        <ele>1402</ele>
        <time>1970-01-01T00:06:00.000Z</time>
      </trkpt>
      <trkpt lat="44.3688" lon="3.90162">
        <ele>1402</ele>
        <time>1970-01-01T00:06:01.000Z</time>
      </trkpt>
      <trkpt lat="44.36876" lon="3.90173">
        <ele>1399</ele>
        <time>1970-01-01T00:06:02.000Z</time>
      </trkpt>
      <trkpt lat="44.36871" lon="3.90183">
        <ele>1398</ele>
        <time>1970-01-01T00:06:03.000Z</time>
      </trkpt>
      <trkpt lat="44.36866" lon="3.90194">
        <ele>1398</ele>
        <time>1970-01-01T00:06:04.000Z</time>
      </trkpt>
      <trkpt lat="44.36864" lon="3.90197">
        <ele>1398</ele>
        <time>1970-01-01T00:06:05.000Z</time>
      </trkpt>
      <trkpt lat="44.36858" lon="3.90206">
        <ele>1398</ele>
        <time>1970-01-01T00:06:06.000Z</time>
      </trkpt>
      <trkpt lat="44.36851" lon="3.90214">
        <ele>1397</ele>
        <time>1970-01-01T00:06:07.000Z</time>
      </trkpt>
      <trkpt lat="44.36845" lon="3.90223">
        <ele>1397</ele>
        <time>1970-01-01T00:06:08.000Z</time>
      </trkpt>
      <trkpt lat="44.36838" lon="3.90232">
        <ele>1396</ele>
        <time>1970-01-01T00:06:09.000Z</time>
      </trkpt>
      <trkpt lat="44.36832" lon="3.9024">
        <ele>1396</ele>
        <time>1970-01-01T00:06:10.000Z</time>
      </trkpt>
      <trkpt lat="44.36825" lon="3.90249">
        <ele>1396</ele>
        <time>1970-01-01T00:06:11.000Z</time>
      </trkpt>
      <trkpt lat="44.36819" lon="3.90258">
        <ele>1391</ele>
        <time>1970-01-01T00:06:12.000Z</time>
      </trkpt>
      <trkpt lat="44.36812" lon="3.90266">
        <ele>1389</ele>
        <time>1970-01-01T00:06:13.000Z</time>
      </trkpt>
      <trkpt lat="44.36806" lon="3.90275">
        <ele>1388</ele>
        <time>1970-01-01T00:06:14.000Z</time>
      </trkpt>
      <trkpt lat="44.36799" lon="3.90284">
        <ele>1387</ele>
        <time>1970-01-01T00:06:15.000Z</time>
      </trkpt>
      <trkpt lat="44.36793" lon="3.90292">
        <ele>1386</ele>
        <time>1970-01-01T00:06:16.000Z</time>
      </trkpt>
      <trkpt lat="44.36786" lon="3.90301">
        <ele>1386</ele>
        <time>1970-01-01T00:06:17.000Z</time>
      </trkpt>
      <trkpt lat="44.36779" lon="3.9031">
        <ele>1385</ele>
        <time>1970-01-01T00:06:18.000Z</time>
      </trkpt>
      <trkpt lat="44.36773" lon="3.90318">
        <ele>1384</ele>
        <time>1970-01-01T00:06:19.000Z</time>
      </trkpt>
      <trkpt lat="44.36766" lon="3.90327">
        <ele>1383</ele>
        <time>1970-01-01T00:06:20.000Z</time>
      </trkpt>
      <trkpt lat="44.3676" lon="3.90336">
        <ele>1376</ele>
        <time>1970-01-01T00:06:21.000Z</time>
      </trkpt>
      <trkpt lat="44.36758" lon="3.90338">
        <ele>1376</ele>
        <time>1970-01-01T00:06:22.000Z</time>
      </trkpt>
      <trkpt lat="44.36749" lon="3.9034">
        <ele>1377</ele>
        <time>1970-01-01T00:06:23.000Z</time>
      </trkpt>
      <trkpt lat="44.3674" lon="3.90343">
        <ele>1375</ele>
        <time>1970-01-01T00:06:24.000Z</time>
      </trkpt>
      <trkpt lat="44.36732" lon="3.90345">
        <ele>1374</ele>
        <time>1970-01-01T00:06:25.000Z</time>
      </trkpt>
      <trkpt lat="44.36723" lon="3.90347">
        <ele>1373</ele>
        <time>1970-01-01T00:06:26.000Z</time>
      </trkpt>
      <trkpt lat="44.36714" lon="3.90349">
        <ele>1372</ele>
        <time>1970-01-01T00:06:27.000Z</time>
      </trkpt>
      <trkpt lat="44.36705" lon="3.90352">
        <ele>1372</ele>
        <time>1970-01-01T00:06:28.000Z</time>
      </trkpt>
      <trkpt lat="44.36696" lon="3.90354">
        <ele>1372</ele>
        <time>1970-01-01T00:06:29.000Z</time>
      </trkpt>
      <trkpt lat="44.36687" lon="3.90356">
        <ele>1372</ele>
        <time>1970-01-01T00:06:30.000Z</time>
      </trkpt>
      <trkpt lat="44.36679" lon="3.90358">
        <ele>1372</ele>
        <time>1970-01-01T00:06:31.000Z</time>
      </trkpt>
      <trkpt lat="44.36672" lon="3.9036">
        <ele>1372</ele>
        <time>1970-01-01T00:06:32.000Z</time>
      </trkpt>
      <trkpt lat="44.36664" lon="3.90367">
        <ele>1370</ele>
        <time>1970-01-01T00:06:33.000Z</time>
      </trkpt>
      <trkpt lat="44.36657" lon="3.90374">
        <ele>1369</ele>
        <time>1970-01-01T00:06:34.000Z</time>
      </trkpt>
      <trkpt lat="44.36649" lon="3.9038">
        <ele>1369</ele>
        <time>1970-01-01T00:06:35.000Z</time>
      </trkpt>
      <trkpt lat="44.36642" lon="3.90387">
        <ele>1368</ele>
        <time>1970-01-01T00:06:36.000Z</time>
      </trkpt>
      <trkpt lat="44.36634" lon="3.90394">
        <ele>1368</ele>
        <time>1970-01-01T00:06:37.000Z</time>
      </trkpt>
      <trkpt lat="44.36626" lon="3.90401">
        <ele>1367</ele>
        <time>1970-01-01T00:06:38.000Z</time>
      </trkpt>
      <trkpt lat="44.36619" lon="3.90408">
        <ele>1367</ele>
        <time>1970-01-01T00:06:39.000Z</time>
      </trkpt>
      <trkpt lat="44.36612" lon="3.90415">
        <ele>1366</ele>
        <time>1970-01-01T00:06:40.000Z</time>
      </trkpt>
      <trkpt lat="44.36604" lon="3.90421">
        <ele>1357</ele>
        <time>1970-01-01T00:06:41.000Z</time>
      </trkpt>
      <trkpt lat="44.36596" lon="3.90428">
        <ele>1357</ele>
        <time>1970-01-01T00:06:42.000Z</time>
      </trkpt>
      <trkpt lat="44.36589" lon="3.90435">
        <ele>1356</ele>
        <time>1970-01-01T00:06:43.000Z</time>
      </trkpt>
      <trkpt lat="44.36581" lon="3.90442">
        <ele>1355</ele>
        <time>1970-01-01T00:06:44.000Z</time>
      </trkpt>
      <trkpt lat="44.36574" lon="3.90449">
        <ele>1353</ele>
        <time>1970-01-01T00:06:45.000Z</time>
      </trkpt>
      <trkpt lat="44.36566" lon="3.90456">
        <ele>1352</ele>
        <time>1970-01-01T00:06:46.000Z</time>
      </trkpt>
      <trkpt lat="44.36563" lon="3.90458">
        <ele>1352</ele>
        <time>1970-01-01T00:06:47.000Z</time>
      </trkpt>
      <trkpt lat="44.36554" lon="3.90461">
        <ele>1351</ele>
        <time>1970-01-01T00:06:48.000Z</time>
      </trkpt>
      <trkpt lat="44.36546" lon="3.90463">
        <ele>1351</ele>
        <time>1970-01-01T00:06:49.000Z</time>
      </trkpt>
      <trkpt lat="44.36537" lon="3.90466">
        <ele>1351</ele>
        <time>1970-01-01T00:06:50.000Z</time>
      </trkpt>
      <trkpt lat="44.36528" lon="3.90468">
        <ele>1350</ele>
        <time>1970-01-01T00:06:51.000Z</time>
      </trkpt>
      <trkpt lat="44.36519" lon="3.90471">
        <ele>1350</ele>
        <time>1970-01-01T00:06:52.000Z</time>
      </trkpt>
      <trkpt lat="44.3651" lon="3.90473">
        <ele>1350</ele>
        <time>1970-01-01T00:06:53.000Z</time>
      </trkpt>
      <trkpt lat="44.36504" lon="3.90475">
        <ele>1349</ele>
        <time>1970-01-01T00:06:54.000Z</time>
      </trkpt>
      <trkpt lat="44.36495" lon="3.90472">
        <ele>1347</ele>
        <time>1970-01-01T00:06:55.000Z</time>
      </trkpt>
      <trkpt lat="44.36486" lon="3.90469">
        <ele>1347</ele>
        <time>1970-01-01T00:06:56.000Z</time>
      </trkpt>
      <trkpt lat="44.36478" lon="3.90466">
        <ele>1347</ele>
        <time>1970-01-01T00:06:57.000Z</time>
      </trkpt>
      <trkpt lat="44.36469" lon="3.90463">
        <ele>1347</ele>
        <time>1970-01-01T00:06:58.000Z</time>
      </trkpt>
      <trkpt lat="44.3646" lon="3.9046">
        <ele>1347</ele>
        <time>1970-01-01T00:06:59.000Z</time>
      </trkpt>
      <trkpt lat="44.36452" lon="3.90457">
        <ele>1347</ele>
        <time>1970-01-01T00:07:00.000Z</time>
      </trkpt>
      <trkpt lat="44.36446" lon="3.90455">
        <ele>1347</ele>
        <time>1970-01-01T00:07:01.000Z</time>
      </trkpt>
      <trkpt lat="44.36449" lon="3.90443">
        <ele>1347</ele>
        <time>1970-01-01T00:07:02.000Z</time>
      </trkpt>
      <trkpt lat="44.36453" lon="3.90432">
        <ele>1348</ele>
        <time>1970-01-01T00:07:03.000Z</time>
      </trkpt>
      <trkpt lat="44.36456" lon="3.9042">
        <ele>1348</ele>
        <time>1970-01-01T00:07:04.000Z</time>
      </trkpt>
      <trkpt lat="44.36459" lon="3.90408">
        <ele>1353</ele>
        <time>1970-01-01T00:07:05.000Z</time>
      </trkpt>
      <trkpt lat="44.36463" lon="3.90397">
        <ele>1353</ele>
        <time>1970-01-01T00:07:06.000Z</time>
      </trkpt>
      <trkpt lat="44.36466" lon="3.90385">
        <ele>1354</ele>
        <time>1970-01-01T00:07:07.000Z</time>
      </trkpt>
      <trkpt lat="44.3647" lon="3.90373">
        <ele>1354</ele>
        <time>1970-01-01T00:07:08.000Z</time>
      </trkpt>
      <trkpt lat="44.36473" lon="3.90362">
        <ele>1355</ele>
        <time>1970-01-01T00:07:09.000Z</time>
      </trkpt>
      <trkpt lat="44.36475" lon="3.90355">
        <ele>1355</ele>
        <time>1970-01-01T00:07:10.000Z</time>
      </trkpt>
      <trkpt lat="44.3648" lon="3.90345">
        <ele>1356</ele>
        <time>1970-01-01T00:07:11.000Z</time>
      </trkpt>
      <trkpt lat="44.36485" lon="3.90334">
        <ele>1357</ele>
        <time>1970-01-01T00:07:12.000Z</time>
      </trkpt>
      <trkpt lat="44.3649" lon="3.90324">
        <ele>1360</ele>
        <time>1970-01-01T00:07:13.000Z</time>
      </trkpt>
      <trkpt lat="44.36496" lon="3.90314">
        <ele>1361</ele>
        <time>1970-01-01T00:07:14.000Z</time>
      </trkpt>
      <trkpt lat="44.36501" lon="3.90303">
        <ele>1366</ele>
        <time>1970-01-01T00:07:15.000Z</time>
      </trkpt>
      <trkpt lat="44.36506" lon="3.90293">
        <ele>1367</ele>
        <time>1970-01-01T00:07:16.000Z</time>
      </trkpt>
      <trkpt lat="44.36511" lon="3.90283">
        <ele>1368</ele>
        <time>1970-01-01T00:07:17.000Z</time>
      </trkpt>
      <trkpt lat="44.36512" lon="3.90281">
        <ele>1368</ele>
        <time>1970-01-01T00:07:18.000Z</time>
      </trkpt>
      <trkpt lat="44.36515" lon="3.90269">
        <ele>1368</ele>
        <time>1970-01-01T00:07:19.000Z</time>
      </trkpt>
      <trkpt lat="44.36519" lon="3.90258">
        <ele>1368</ele>
        <time>1970-01-01T00:07:20.000Z</time>
      </trkpt>
      <trkpt lat="44.36523" lon="3.90246">
        <ele>1372</ele>
        <time>1970-01-01T00:07:21.000Z</time>
      </trkpt>
      <trkpt lat="44.36526" lon="3.90235">
        <ele>1373</ele>
        <time>1970-01-01T00:07:22.000Z</time>
      </trkpt>
      <trkpt lat="44.3653" lon="3.90223">
        <ele>1374</ele>
        <time>1970-01-01T00:07:23.000Z</time>
      </trkpt>
      <trkpt lat="44.36533" lon="3.90212">
        <ele>1374</ele>
        <time>1970-01-01T00:07:24.000Z</time>
      </trkpt>
      <trkpt lat="44.36535" lon="3.90206">
        <ele>1375</ele>
        <time>1970-01-01T00:07:25.000Z</time>
      </trkpt>
      <trkpt lat="44.36535" lon="3.90193">
        <ele>1375</ele>
        <time>1970-01-01T00:07:26.000Z</time>
      </trkpt>
      <trkpt lat="44.36534" lon="3.90181">
        <ele>1376</ele>
        <time>1970-01-01T00:07:27.000Z</time>
      </trkpt>
      <trkpt lat="44.36534" lon="3.90168">
        <ele>1376</ele>
        <time>1970-01-01T00:07:28.000Z</time>
      </trkpt>
      <trkpt lat="44.36534" lon="3.90156">
        <ele>1380</ele>
        <time>1970-01-01T00:07:29.000Z</time>
      </trkpt>
      <trkpt lat="44.36533" lon="3.90143">
        <ele>1381</ele>
        <time>1970-01-01T00:07:30.000Z</time>
      </trkpt>
      <trkpt lat="44.36533" lon="3.90131">
        <ele>1382</ele>
        <time>1970-01-01T00:07:31.000Z</time>
      </trkpt>
      <trkpt lat="44.36533" lon="3.90118">
        <ele>1382</ele>
        <time>1970-01-01T00:07:32.000Z</time>
      </trkpt>
      <trkpt lat="44.36532" lon="3.90106">
        <ele>1383</ele>
        <time>1970-01-01T00:07:33.000Z</time>
      </trkpt>
      <trkpt lat="44.36532" lon="3.90093">
        <ele>1383</ele>
        <time>1970-01-01T00:07:34.000Z</time>
      </trkpt>
      <trkpt lat="44.36532" lon="3.90087">
        <ele>1383</ele>
        <time>1970-01-01T00:07:35.000Z</time>
      </trkpt>
      <trkpt lat="44.3653" lon="3.90075">
        <ele>1388</ele>
        <time>1970-01-01T00:07:36.000Z</time>
      </trkpt>
      <trkpt lat="44.36527" lon="3.90063">
        <ele>1388</ele>
        <time>1970-01-01T00:07:37.000Z</time>
      </trkpt>
      <trkpt lat="44.36525" lon="3.90051">
        <ele>1389</ele>
        <time>1970-01-01T00:07:38.000Z</time>
      </trkpt>
      <trkpt lat="44.36523" lon="3.90038">
        <ele>1389</ele>
        <time>1970-01-01T00:07:39.000Z</time>
      </trkpt>
      <trkpt lat="44.3652" lon="3.90026">
        <ele>1390</ele>
        <time>1970-01-01T00:07:40.000Z</time>
      </trkpt>
      <trkpt lat="44.3652" lon="3.90024">
        <ele>1390</ele>
        <time>1970-01-01T00:07:41.000Z</time>
      </trkpt>
      <trkpt lat="44.36514" lon="3.90015">
        <ele>1390</ele>
        <time>1970-01-01T00:07:42.000Z</time>
      </trkpt>
      <trkpt lat="44.36507" lon="3.90006">
        <ele>1390</ele>
        <time>1970-01-01T00:07:43.000Z</time>
      </trkpt>
      <trkpt lat="44.36501" lon="3.89997">
        <ele>1391</ele>
        <time>1970-01-01T00:07:44.000Z</time>
      </trkpt>
      <trkpt lat="44.36495" lon="3.89988">
        <ele>1393</ele>
        <time>1970-01-01T00:07:45.000Z</time>
      </trkpt>
      <trkpt lat="44.36489" lon="3.89979">
        <ele>1395</ele>
        <time>1970-01-01T00:07:46.000Z</time>
      </trkpt>
      <trkpt lat="44.36483" lon="3.8997">
        <ele>1397</ele>
        <time>1970-01-01T00:07:47.000Z</time>
      </trkpt>
      <trkpt lat="44.36477" lon="3.8996">
        <ele>1398</ele>
        <time>1970-01-01T00:07:48.000Z</time>
      </trkpt>
      <trkpt lat="44.3647" lon="3.89951">
        <ele>1398</ele>
        <time>1970-01-01T00:07:49.000Z</time>
      </trkpt>
      <trkpt lat="44.36464" lon="3.89942">
        <ele>1399</ele>
        <time>1970-01-01T00:07:50.000Z</time>
      </trkpt>
      <trkpt lat="44.36458" lon="3.89933">
        <ele>1399</ele>
        <time>1970-01-01T00:07:51.000Z</time>
      </trkpt>
      <trkpt lat="44.36452" lon="3.89924">
        <ele>1400</ele>
        <time>1970-01-01T00:07:52.000Z</time>
      </trkpt>
      <trkpt lat="44.36446" lon="3.89915">
        <ele>1405</ele>
        <time>1970-01-01T00:07:53.000Z</time>
      </trkpt>
      <trkpt lat="44.36439" lon="3.89906">
        <ele>1405</ele>
        <time>1970-01-01T00:07:54.000Z</time>
      </trkpt>
      <trkpt lat="44.36433" lon="3.89897">
        <ele>1405</ele>
        <time>1970-01-01T00:07:55.000Z</time>
      </trkpt>
      <trkpt lat="44.36427" lon="3.89888">
        <ele>1405</ele>
        <time>1970-01-01T00:07:56.000Z</time>
      </trkpt>
      <trkpt lat="44.36423" lon="3.89883">
        <ele>1406</ele>
        <time>1970-01-01T00:07:57.000Z</time>
      </trkpt>
      <trkpt lat="44.36424" lon="3.89871">
        <ele>1406</ele>
        <time>1970-01-01T00:07:58.000Z</time>
      </trkpt>
      <trkpt lat="44.36425" lon="3.89858">
        <ele>1407</ele>
        <time>1970-01-01T00:07:59.000Z</time>
      </trkpt>
      <trkpt lat="44.36426" lon="3.89846">
        <ele>1407</ele>
        <time>1970-01-01T00:08:00.000Z</time>
      </trkpt>
      <trkpt lat="44.36427" lon="3.89833">
        <ele>1408</ele>
        <time>1970-01-01T00:08:01.000Z</time>
      </trkpt>
      <trkpt lat="44.36428" lon="3.89821">
        <ele>1409</ele>
        <time>1970-01-01T00:08:02.000Z</time>
      </trkpt>
      <trkpt lat="44.36429" lon="3.89808">
        <ele>1409</ele>
        <time>1970-01-01T00:08:03.000Z</time>
      </trkpt>
      <trkpt lat="44.3643" lon="3.89796">
        <ele>1410</ele>
        <time>1970-01-01T00:08:04.000Z</time>
      </trkpt>
      <trkpt lat="44.36431" lon="3.89783">
        <ele>1409</ele>
        <time>1970-01-01T00:08:05.000Z</time>
      </trkpt>
      <trkpt lat="44.36432" lon="3.89771">
        <ele>1409</ele>
        <time>1970-01-01T00:08:06.000Z</time>
      </trkpt>
      <trkpt lat="44.36433" lon="3.89758">
        <ele>1408</ele>
        <time>1970-01-01T00:08:07.000Z</time>
      </trkpt>
      <trkpt lat="44.36434" lon="3.89746">
        <ele>1408</ele>
        <time>1970-01-01T00:08:08.000Z</time>
      </trkpt>
      <trkpt lat="44.36435" lon="3.89733">
        <ele>1408</ele>
        <time>1970-01-01T00:08:09.000Z</time>
      </trkpt>
      <trkpt lat="44.36436" lon="3.89721">
        <ele>1408</ele>
        <time>1970-01-01T00:08:10.000Z</time>
      </trkpt>
      <trkpt lat="44.36436" lon="3.89708">
        <ele>1409</ele>
        <time>1970-01-01T00:08:11.000Z</time>
      </trkpt>
      <trkpt lat="44.36437" lon="3.89696">
        <ele>1408</ele>
        <time>1970-01-01T00:08:12.000Z</time>
      </trkpt>
      <trkpt lat="44.36438" lon="3.89683">
        <ele>1408</ele>
        <time>1970-01-01T00:08:13.000Z</time>
      </trkpt>
      <trkpt lat="44.36439" lon="3.89671">
        <ele>1408</ele>
        <time>1970-01-01T00:08:14.000Z</time>
      </trkpt>
      <trkpt lat="44.3644" lon="3.89658">
        <ele>1409</ele>
        <time>1970-01-01T00:08:15.000Z</time>
      </trkpt>
      <trkpt lat="44.36441" lon="3.89646">
        <ele>1409</ele>
        <time>1970-01-01T00:08:16.000Z</time>
      </trkpt>
      <trkpt lat="44.36441" lon="3.89633">
        <ele>1410</ele>
        <time>1970-01-01T00:08:17.000Z</time>
      </trkpt>
      <trkpt lat="44.36442" lon="3.89621">
        <ele>1410</ele>
        <time>1970-01-01T00:08:18.000Z</time>
      </trkpt>
      <trkpt lat="44.36443" lon="3.89608">
        <ele>1411</ele>
        <time>1970-01-01T00:08:19.000Z</time>
      </trkpt>
      <trkpt lat="44.36444" lon="3.89596">
        <ele>1411</ele>
        <time>1970-01-01T00:08:20.000Z</time>
      </trkpt>
      <trkpt lat="44.36444" lon="3.89583">
        <ele>1413</ele>
        <time>1970-01-01T00:08:21.000Z</time>
      </trkpt>
      <trkpt lat="44.36445" lon="3.89577">
        <ele>1414</ele>
        <time>1970-01-01T00:08:22.000Z</time>
      </trkpt>
      <trkpt lat="44.3644" lon="3.89567">
        <ele>1414</ele>
        <time>1970-01-01T00:08:23.000Z</time>
      </trkpt>
      <trkpt lat="44.36434" lon="3.89557">
        <ele>1414</ele>
        <time>1970-01-01T00:08:24.000Z</time>
      </trkpt>
      <trkpt lat="44.36429" lon="3.89547">
        <ele>1414</ele>
        <time>1970-01-01T00:08:25.000Z</time>
      </trkpt>
      <trkpt lat="44.36423" lon="3.89537">
        <ele>1415</ele>
        <time>1970-01-01T00:08:26.000Z</time>
      </trkpt>
      <trkpt lat="44.36418" lon="3.89527">
        <ele>1415</ele>
        <time>1970-01-01T00:08:27.000Z</time>
      </trkpt>
      <trkpt lat="44.36413" lon="3.89517">
        <ele>1415</ele>
        <time>1970-01-01T00:08:28.000Z</time>
      </trkpt>
      <trkpt lat="44.36407" lon="3.89506">
        <ele>1415</ele>
        <time>1970-01-01T00:08:29.000Z</time>
      </trkpt>
      <trkpt lat="44.36402" lon="3.89496">
        <ele>1416</ele>
        <time>1970-01-01T00:08:30.000Z</time>
      </trkpt>
      <trkpt lat="44.36396" lon="3.89486">
        <ele>1415</ele>
        <time>1970-01-01T00:08:31.000Z</time>
      </trkpt>
      <trkpt lat="44.36391" lon="3.89476">
        <ele>1415</ele>
        <time>1970-01-01T00:08:32.000Z</time>
      </trkpt>
      <trkpt lat="44.36386" lon="3.89466">
        <ele>1415</ele>
        <time>1970-01-01T00:08:33.000Z</time>
      </trkpt>
      <trkpt lat="44.3638" lon="3.89456">
        <ele>1414</ele>
        <time>1970-01-01T00:08:34.000Z</time>
      </trkpt>
      <trkpt lat="44.36375" lon="3.89446">
        <ele>1414</ele>
        <time>1970-01-01T00:08:35.000Z</time>
      </trkpt>
      <trkpt lat="44.3637" lon="3.89436">
        <ele>1414</ele>
        <time>1970-01-01T00:08:36.000Z</time>
      </trkpt>
      <trkpt lat="44.36364" lon="3.89426">
        <ele>1414</ele>
        <time>1970-01-01T00:08:37.000Z</time>
      </trkpt>
      <trkpt lat="44.36359" lon="3.89416">
        <ele>1408</ele>
        <time>1970-01-01T00:08:38.000Z</time>
      </trkpt>
      <trkpt lat="44.36354" lon="3.89406">
        <ele>1408</ele>
        <time>1970-01-01T00:08:39.000Z</time>
      </trkpt>
      <trkpt lat="44.36353" lon="3.89405">
        <ele>1408</ele>
        <time>1970-01-01T00:08:40.000Z</time>
      </trkpt>
      <trkpt lat="44.36345" lon="3.89398">
        <ele>1407</ele>
        <time>1970-01-01T00:08:41.000Z</time>
      </trkpt>
      <trkpt lat="44.36338" lon="3.89392">
        <ele>1407</ele>
        <time>1970-01-01T00:08:42.000Z</time>
      </trkpt>
      <trkpt lat="44.3633" lon="3.89385">
        <ele>1400</ele>
        <time>1970-01-01T00:08:43.000Z</time>
      </trkpt>
      <trkpt lat="44.36322" lon="3.89378">
        <ele>1398</ele>
        <time>1970-01-01T00:08:44.000Z</time>
      </trkpt>
      <trkpt lat="44.36315" lon="3.89372">
        <ele>1397</ele>
        <time>1970-01-01T00:08:45.000Z</time>
      </trkpt>
      <trkpt lat="44.36307" lon="3.89365">
        <ele>1395</ele>
        <time>1970-01-01T00:08:46.000Z</time>
      </trkpt>
      <trkpt lat="44.363" lon="3.89358">
        <ele>1394</ele>
        <time>1970-01-01T00:08:47.000Z</time>
      </trkpt>
      <trkpt lat="44.36292" lon="3.89352">
        <ele>1393</ele>
        <time>1970-01-01T00:08:48.000Z</time>
      </trkpt>
      <trkpt lat="44.36284" lon="3.89345">
        <ele>1392</ele>
        <time>1970-01-01T00:08:49.000Z</time>
      </trkpt>
      <trkpt lat="44.36278" lon="3.8934">
        <ele>1391</ele>
        <time>1970-01-01T00:08:50.000Z</time>
      </trkpt>
      <trkpt lat="44.36275" lon="3.89328">
        <ele>1382</ele>
        <time>1970-01-01T00:08:51.000Z</time>
      </trkpt>
      <trkpt lat="44.36272" lon="3.89316">
        <ele>1381</ele>
        <time>1970-01-01T00:08:52.000Z</time>
      </trkpt>
      <trkpt lat="44.36269" lon="3.89305">
        <ele>1380</ele>
        <time>1970-01-01T00:08:53.000Z</time>
      </trkpt>
      <trkpt lat="44.36266" lon="3.89293">
        <ele>1378</ele>
        <time>1970-01-01T00:08:54.000Z</time>
      </trkpt>
      <trkpt lat="44.36263" lon="3.89281">
        <ele>1376</ele>
        <time>1970-01-01T00:08:55.000Z</time>
      </trkpt>
      <trkpt lat="44.36259" lon="3.89269">
        <ele>1374</ele>
        <time>1970-01-01T00:08:56.000Z</time>
      </trkpt>
      <trkpt lat="44.36256" lon="3.89258">
        <ele>1370</ele>
        <time>1970-01-01T00:08:57.000Z</time>
      </trkpt>
      <trkpt lat="44.36261" lon="3.89247">
        <ele>1364</ele>
        <time>1970-01-01T00:08:58.000Z</time>
      </trkpt>
      <trkpt lat="44.36265" lon="3.89236">
        <ele>1364</ele>
        <time>1970-01-01T00:08:59.000Z</time>
      </trkpt>
      <trkpt lat="44.3627" lon="3.89226">
        <ele>1363</ele>
        <time>1970-01-01T00:09:00.000Z</time>
      </trkpt>
      <trkpt lat="44.36274" lon="3.89215">
        <ele>1362</ele>
        <time>1970-01-01T00:09:01.000Z</time>
      </trkpt>
      <trkpt lat="44.36279" lon="3.89204">
        <ele>1361</ele>
        <time>1970-01-01T00:09:02.000Z</time>
      </trkpt>
      <trkpt lat="44.36283" lon="3.89193">
        <ele>1361</ele>
        <time>1970-01-01T00:09:03.000Z</time>
      </trkpt>
      <trkpt lat="44.36288" lon="3.89182">
        <ele>1360</ele>
        <time>1970-01-01T00:09:04.000Z</time>
      </trkpt>
      <trkpt lat="44.36293" lon="3.89171">
        <ele>1360</ele>
        <time>1970-01-01T00:09:05.000Z</time>
      </trkpt>
      <trkpt lat="44.36297" lon="3.89161">
        <ele>1350</ele>
        <time>1970-01-01T00:09:06.000Z</time>
      </trkpt>
      <trkpt lat="44.36298" lon="3.89159">
        <ele>1350</ele>
        <time>1970-01-01T00:09:07.000Z</time>
      </trkpt>
      <trkpt lat="44.3629" lon="3.89154">
        <ele>1349</ele>
        <time>1970-01-01T00:09:08.000Z</time>
      </trkpt>
      <trkpt lat="44.36282" lon="3.89149">
        <ele>1349</ele>
        <time>1970-01-01T00:09:09.000Z</time>
      </trkpt>
      <trkpt lat="44.36276" lon="3.89146">
        <ele>1349</ele>
        <time>1970-01-01T00:09:10.000Z</time>
      </trkpt>
      <trkpt lat="44.36279" lon="3.89134">
        <ele>1348</ele>
        <time>1970-01-01T00:09:11.000Z</time>
      </trkpt>
      <trkpt lat="44.36281" lon="3.89122">
        <ele>1347</ele>
        <time>1970-01-01T00:09:12.000Z</time>
      </trkpt>
      <trkpt lat="44.36284" lon="3.8911">
        <ele>1346</ele>
        <time>1970-01-01T00:09:13.000Z</time>
      </trkpt>
      <trkpt lat="44.36287" lon="3.89098">
        <ele>1346</ele>
        <time>1970-01-01T00:09:14.000Z</time>
      </trkpt>
      <trkpt lat="44.3629" lon="3.89086">
        <ele>1345</ele>
        <time>1970-01-01T00:09:15.000Z</time>
      </trkpt>
      <trkpt lat="44.36292" lon="3.89074">
        <ele>1337</ele>
        <time>1970-01-01T00:09:16.000Z</time>
      </trkpt>
      <trkpt lat="44.36295" lon="3.89062">
        <ele>1337</ele>
        <time>1970-01-01T00:09:17.000Z</time>
      </trkpt>
      <trkpt lat="44.36298" lon="3.8905">
        <ele>1336</ele>
        <time>1970-01-01T00:09:18.000Z</time>
      </trkpt>
      <trkpt lat="44.36301" lon="3.89038">
        <ele>1335</ele>
        <time>1970-01-01T00:09:19.000Z</time>
      </trkpt>
      <trkpt lat="44.36303" lon="3.89026">
        <ele>1334</ele>
        <time>1970-01-01T00:09:20.000Z</time>
      </trkpt>
      <trkpt lat="44.36305" lon="3.89021">
        <ele>1334</ele>
        <time>1970-01-01T00:09:21.000Z</time>
      </trkpt>
      <trkpt lat="44.3631" lon="3.89011">
        <ele>1332</ele>
        <time>1970-01-01T00:09:22.000Z</time>
      </trkpt>
      <trkpt lat="44.36315" lon="3.89">
        <ele>1331</ele>
        <time>1970-01-01T00:09:23.000Z</time>
      </trkpt>
      <trkpt lat="44.3632" lon="3.8899">
        <ele>1327</ele>
        <time>1970-01-01T00:09:24.000Z</time>
      </trkpt>
      <trkpt lat="44.36325" lon="3.8898">
        <ele>1327</ele>
        <time>1970-01-01T00:09:25.000Z</time>
      </trkpt>
      <trkpt lat="44.3633" lon="3.88969">
        <ele>1327</ele>
        <time>1970-01-01T00:09:26.000Z</time>
      </trkpt>
      <trkpt lat="44.36332" lon="3.88966">
        <ele>1327</ele>
        <time>1970-01-01T00:09:27.000Z</time>
      </trkpt>
      <trkpt lat="44.36339" lon="3.88958">
        <ele>1320</ele>
        <time>1970-01-01T00:09:28.000Z</time>
      </trkpt>
      <trkpt lat="44.36346" lon="3.88951">
        <ele>1320</ele>
        <time>1970-01-01T00:09:29.000Z</time>
      </trkpt>
      <trkpt lat="44.36353" lon="3.88943">
        <ele>1319</ele>
        <time>1970-01-01T00:09:30.000Z</time>
      </trkpt>
      <trkpt lat="44.36361" lon="3.88935">
        <ele>1318</ele>
        <time>1970-01-01T00:09:31.000Z</time>
      </trkpt>
      <trkpt lat="44.36367" lon="3.88928">
        <ele>1318</ele>
        <time>1970-01-01T00:09:32.000Z</time>
      </trkpt>
      <trkpt lat="44.36375" lon="3.8892">
        <ele>1317</ele>
        <time>1970-01-01T00:09:33.000Z</time>
      </trkpt>
      <trkpt lat="44.36382" lon="3.88912">
        <ele>1311</ele>
        <time>1970-01-01T00:09:34.000Z</time>
      </trkpt>
      <trkpt lat="44.36383" lon="3.88911">
        <ele>1311</ele>
        <time>1970-01-01T00:09:35.000Z</time>
      </trkpt>
      <trkpt lat="44.36382" lon="3.88899">
        <ele>1311</ele>
        <time>1970-01-01T00:09:36.000Z</time>
      </trkpt>
      <trkpt lat="44.3638" lon="3.88886">
        <ele>1310</ele>
        <time>1970-01-01T00:09:37.000Z</time>
      </trkpt>
      <trkpt lat="44.36378" lon="3.88874">
        <ele>1310</ele>
        <time>1970-01-01T00:09:38.000Z</time>
      </trkpt>
      <trkpt lat="44.36377" lon="3.88862">
        <ele>1309</ele>
        <time>1970-01-01T00:09:39.000Z</time>
      </trkpt>
      <trkpt lat="44.36375" lon="3.88849">
        <ele>1309</ele>
        <time>1970-01-01T00:09:40.000Z</time>
      </trkpt>
      <trkpt lat="44.36374" lon="3.88837">
        <ele>1309</ele>
        <time>1970-01-01T00:09:41.000Z</time>
      </trkpt>
      <trkpt lat="44.36372" lon="3.88824">
        <ele>1302</ele>
        <time>1970-01-01T00:09:42.000Z</time>
      </trkpt>
      <trkpt lat="44.36371" lon="3.88816">
        <ele>1302</ele>
        <time>1970-01-01T00:09:43.000Z</time>
      </trkpt>
      <trkpt lat="44.36373" lon="3.88804">
        <ele>1301</ele>
        <time>1970-01-01T00:09:44.000Z</time>
      </trkpt>
      <trkpt lat="44.36375" lon="3.88792">
        <ele>1300</ele>
        <time>1970-01-01T00:09:45.000Z</time>
      </trkpt>
      <trkpt lat="44.36377" lon="3.88779">
        <ele>1299</ele>
        <time>1970-01-01T00:09:46.000Z</time>
      </trkpt>
      <trkpt lat="44.36379" lon="3.88767">
        <ele>1298</ele>
        <time>1970-01-01T00:09:47.000Z</time>
      </trkpt>
      <trkpt lat="44.36382" lon="3.88755">
        <ele>1297</ele>
        <time>1970-01-01T00:09:48.000Z</time>
      </trkpt>
      <trkpt lat="44.36384" lon="3.88743">
        <ele>1289</ele>
        <time>1970-01-01T00:09:49.000Z</time>
      </trkpt>
      <trkpt lat="44.36386" lon="3.88731">
        <ele>1289</ele>
        <time>1970-01-01T00:09:50.000Z</time>
      </trkpt>
      <trkpt lat="44.36388" lon="3.88718">
        <ele>1288</ele>
        <time>1970-01-01T00:09:51.000Z</time>
      </trkpt>
      <trkpt lat="44.3639" lon="3.88706">
        <ele>1287</ele>
        <time>1970-01-01T00:09:52.000Z</time>
      </trkpt>
      <trkpt lat="44.36392" lon="3.88694">
        <ele>1286</ele>
        <time>1970-01-01T00:09:53.000Z</time>
      </trkpt>
      <trkpt lat="44.36395" lon="3.88682">
        <ele>1284</ele>
        <time>1970-01-01T00:09:54.000Z</time>
      </trkpt>
      <trkpt lat="44.36395" lon="3.88679">
        <ele>1284</ele>
        <time>1970-01-01T00:09:55.000Z</time>
      </trkpt>
      <trkpt lat="44.36388" lon="3.8867">
        <ele>1284</ele>
        <time>1970-01-01T00:09:56.000Z</time>
      </trkpt>
      <trkpt lat="44.36382" lon="3.88662">
        <ele>1279</ele>
        <time>1970-01-01T00:09:57.000Z</time>
      </trkpt>
      <trkpt lat="44.36375" lon="3.88653">
        <ele>1280</ele>
        <time>1970-01-01T00:09:58.000Z</time>
      </trkpt>
      <trkpt lat="44.36369" lon="3.88645">
        <ele>1280</ele>
        <time>1970-01-01T00:09:59.000Z</time>
      </trkpt>
      <trkpt lat="44.36362" lon="3.88636">
        <ele>1280</ele>
        <time>1970-01-01T00:10:00.000Z</time>
      </trkpt>
      <trkpt lat="44.36356" lon="3.88627">
        <ele>1279</ele>
        <time>1970-01-01T00:10:01.000Z</time>
      </trkpt>
      <trkpt lat="44.36349" lon="3.88619">
        <ele>1279</ele>
        <time>1970-01-01T00:10:02.000Z</time>
      </trkpt>
      <trkpt lat="44.36346" lon="3.88615">
        <ele>1278</ele>
        <time>1970-01-01T00:10:03.000Z</time>
      </trkpt>
      <trkpt lat="44.36338" lon="3.88609">
        <ele>1277</ele>
        <time>1970-01-01T00:10:04.000Z</time>
      </trkpt>
      <trkpt lat="44.3633" lon="3.88602">
        <ele>1281</ele>
        <time>1970-01-01T00:10:05.000Z</time>
      </trkpt>
      <trkpt lat="44.36323" lon="3.88596">
        <ele>1280</ele>
        <time>1970-01-01T00:10:06.000Z</time>
      </trkpt>
      <trkpt lat="44.36315" lon="3.8859">
        <ele>1281</ele>
        <time>1970-01-01T00:10:07.000Z</time>
      </trkpt>
      <trkpt lat="44.36307" lon="3.88584">
        <ele>1283</ele>
        <time>1970-01-01T00:10:08.000Z</time>
      </trkpt>
      <trkpt lat="44.363" lon="3.88577">
        <ele>1277</ele>
        <time>1970-01-01T00:10:09.000Z</time>
      </trkpt>
      <trkpt lat="44.36292" lon="3.88571">
        <ele>1278</ele>
        <time>1970-01-01T00:10:10.000Z</time>
      </trkpt>
      <trkpt lat="44.36284" lon="3.88565">
        <ele>1278</ele>
        <time>1970-01-01T00:10:11.000Z</time>
      </trkpt>
      <trkpt lat="44.36276" lon="3.88558">
        <ele>1278</ele>
        <time>1970-01-01T00:10:12.000Z</time>
      </trkpt>
      <trkpt lat="44.36268" lon="3.88552">
        <ele>1278</ele>
        <time>1970-01-01T00:10:13.000Z</time>
      </trkpt>
      <trkpt lat="44.36261" lon="3.88546">
        <ele>1278</ele>
        <time>1970-01-01T00:10:14.000Z</time>
      </trkpt>
      <trkpt lat="44.36253" lon="3.8854">
        <ele>1278</ele>
        <time>1970-01-01T00:10:15.000Z</time>
      </trkpt>
      <trkpt lat="44.36249" lon="3.88537">
        <ele>1282</ele>
        <time>1970-01-01T00:10:16.000Z</time>
      </trkpt>
      <trkpt lat="44.36245" lon="3.88526">
        <ele>1281</ele>
        <time>1970-01-01T00:10:17.000Z</time>
      </trkpt>
      <trkpt lat="44.36241" lon="3.88515">
        <ele>1279</ele>
        <time>1970-01-01T00:10:18.000Z</time>
      </trkpt>
      <trkpt lat="44.36237" lon="3.88503">
        <ele>1278</ele>
        <time>1970-01-01T00:10:19.000Z</time>
      </trkpt>
      <trkpt lat="44.36233" lon="3.88492">
        <ele>1274</ele>
        <time>1970-01-01T00:10:20.000Z</time>
      </trkpt>
      <trkpt lat="44.36229" lon="3.88481">
        <ele>1274</ele>
        <time>1970-01-01T00:10:21.000Z</time>
      </trkpt>
      <trkpt lat="44.36225" lon="3.8847">
        <ele>1274</ele>
        <time>1970-01-01T00:10:22.000Z</time>
      </trkpt>
      <trkpt lat="44.36221" lon="3.88458">
        <ele>1273</ele>
        <time>1970-01-01T00:10:23.000Z</time>
      </trkpt>
      <trkpt lat="44.36217" lon="3.88447">
        <ele>1273</ele>
        <time>1970-01-01T00:10:24.000Z</time>
      </trkpt>
      <trkpt lat="44.36213" lon="3.88436">
        <ele>1273</ele>
        <time>1970-01-01T00:10:25.000Z</time>
      </trkpt>
      <trkpt lat="44.36209" lon="3.88425">
        <ele>1272</ele>
        <time>1970-01-01T00:10:26.000Z</time>
      </trkpt>
      <trkpt lat="44.36205" lon="3.88414">
        <ele>1272</ele>
        <time>1970-01-01T00:10:27.000Z</time>
      </trkpt>
      <trkpt lat="44.36201" lon="3.88404">
        <ele>1272</ele>
        <time>1970-01-01T00:10:28.000Z</time>
      </trkpt>
      <trkpt lat="44.36193" lon="3.88399">
        <ele>1272</ele>
        <time>1970-01-01T00:10:29.000Z</time>
      </trkpt>
      <trkpt lat="44.36185" lon="3.88394">
        <ele>1272</ele>
        <time>1970-01-01T00:10:30.000Z</time>
      </trkpt>
      <trkpt lat="44.36176" lon="3.88389">
        <ele>1272</ele>
        <time>1970-01-01T00:10:31.000Z</time>
      </trkpt>
      <trkpt lat="44.36168" lon="3.88385">
        <ele>1273</ele>
        <time>1970-01-01T00:10:32.000Z</time>
      </trkpt>
      <trkpt lat="44.3616" lon="3.8838">
        <ele>1271</ele>
        <time>1970-01-01T00:10:33.000Z</time>
      </trkpt>
      <trkpt lat="44.36152" lon="3.88375">
        <ele>1271</ele>
        <time>1970-01-01T00:10:34.000Z</time>
      </trkpt>
      <trkpt lat="44.36143" lon="3.8837">
        <ele>1271</ele>
        <time>1970-01-01T00:10:35.000Z</time>
      </trkpt>
      <trkpt lat="44.36135" lon="3.88365">
        <ele>1271</ele>
        <time>1970-01-01T00:10:36.000Z</time>
      </trkpt>
      <trkpt lat="44.36126" lon="3.8836">
        <ele>1271</ele>
        <time>1970-01-01T00:10:37.000Z</time>
      </trkpt>
      <trkpt lat="44.36118" lon="3.88356">
        <ele>1271</ele>
        <time>1970-01-01T00:10:38.000Z</time>
      </trkpt>
      <trkpt lat="44.36112" lon="3.88352">
        <ele>1271</ele>
        <time>1970-01-01T00:10:39.000Z</time>
      </trkpt>
      <trkpt lat="44.36106" lon="3.88343">
        <ele>1270</ele>
        <time>1970-01-01T00:10:40.000Z</time>
      </trkpt>
      <trkpt lat="44.36099" lon="3.88334">
        <ele>1270</ele>
        <time>1970-01-01T00:10:41.000Z</time>
      </trkpt>
      <trkpt lat="44.36093" lon="3.88325">
        <ele>1270</ele>
        <time>1970-01-01T00:10:42.000Z</time>
      </trkpt>
      <trkpt lat="44.36087" lon="3.88316">
        <ele>1270</ele>
        <time>1970-01-01T00:10:43.000Z</time>
      </trkpt>
      <trkpt lat="44.36081" lon="3.88307">
        <ele>1268</ele>
        <time>1970-01-01T00:10:44.000Z</time>
      </trkpt>
      <trkpt lat="44.36074" lon="3.88298">
        <ele>1268</ele>
        <time>1970-01-01T00:10:45.000Z</time>
      </trkpt>
      <trkpt lat="44.36068" lon="3.88289">
        <ele>1268</ele>
        <time>1970-01-01T00:10:46.000Z</time>
      </trkpt>
      <trkpt lat="44.36062" lon="3.8828">
        <ele>1268</ele>
        <time>1970-01-01T00:10:47.000Z</time>
      </trkpt>
      <trkpt lat="44.36056" lon="3.88271">
        <ele>1268</ele>
        <time>1970-01-01T00:10:48.000Z</time>
      </trkpt>
      <trkpt lat="44.36049" lon="3.88262">
        <ele>1268</ele>
        <time>1970-01-01T00:10:49.000Z</time>
      </trkpt>
      <trkpt lat="44.36043" lon="3.88253">
        <ele>1268</ele>
        <time>1970-01-01T00:10:50.000Z</time>
      </trkpt>
      <trkpt lat="44.36037" lon="3.88244">
        <ele>1267</ele>
        <time>1970-01-01T00:10:51.000Z</time>
      </trkpt>
      <trkpt lat="44.36032" lon="3.88237">
        <ele>1267</ele>
        <time>1970-01-01T00:10:52.000Z</time>
      </trkpt>
      <trkpt lat="44.36024" lon="3.88233">
        <ele>1267</ele>
        <time>1970-01-01T00:10:53.000Z</time>
      </trkpt>
      <trkpt lat="44.36015" lon="3.88229">
        <ele>1267</ele>
        <time>1970-01-01T00:10:54.000Z</time>
      </trkpt>
      <trkpt lat="44.36007" lon="3.88224">
        <ele>1267</ele>
        <time>1970-01-01T00:10:55.000Z</time>
      </trkpt>
      <trkpt lat="44.35998" lon="3.8822">
        <ele>1264</ele>
        <time>1970-01-01T00:10:56.000Z</time>
      </trkpt>
      <trkpt lat="44.3599" lon="3.88216">
        <ele>1264</ele>
        <time>1970-01-01T00:10:57.000Z</time>
      </trkpt>
      <trkpt lat="44.35981" lon="3.88212">
        <ele>1264</ele>
        <time>1970-01-01T00:10:58.000Z</time>
      </trkpt>
      <trkpt lat="44.35973" lon="3.88207">
        <ele>1264</ele>
        <time>1970-01-01T00:10:59.000Z</time>
      </trkpt>
      <trkpt lat="44.35965" lon="3.88203">
        <ele>1264</ele>
        <time>1970-01-01T00:11:00.000Z</time>
      </trkpt>
      <trkpt lat="44.35956" lon="3.88199">
        <ele>1263</ele>
        <time>1970-01-01T00:11:01.000Z</time>
      </trkpt>
      <trkpt lat="44.35947" lon="3.88195">
        <ele>1263</ele>
        <time>1970-01-01T00:11:02.000Z</time>
      </trkpt>
      <trkpt lat="44.35939" lon="3.8819">
        <ele>1262</ele>
        <time>1970-01-01T00:11:03.000Z</time>
      </trkpt>
      <trkpt lat="44.35931" lon="3.88186">
        <ele>1262</ele>
        <time>1970-01-01T00:11:04.000Z</time>
      </trkpt>
      <trkpt lat="44.35922" lon="3.88182">
        <ele>1261</ele>
        <time>1970-01-01T00:11:05.000Z</time>
      </trkpt>
      <trkpt lat="44.35914" lon="3.88178">
        <ele>1258</ele>
        <time>1970-01-01T00:11:06.000Z</time>
      </trkpt>
      <trkpt lat="44.35912" lon="3.88177">
        <ele>1258</ele>
        <time>1970-01-01T00:11:07.000Z</time>
      </trkpt>
      <trkpt lat="44.35903" lon="3.88176">
        <ele>1259</ele>
        <time>1970-01-01T00:11:08.000Z</time>
      </trkpt>
      <trkpt lat="44.35894" lon="3.88175">
        <ele>1259</ele>
        <time>1970-01-01T00:11:09.000Z</time>
      </trkpt>
      <trkpt lat="44.35885" lon="3.88175">
        <ele>1258</ele>
        <time>1970-01-01T00:11:10.000Z</time>
      </trkpt>
      <trkpt lat="44.35876" lon="3.88174">
        <ele>1258</ele>
        <time>1970-01-01T00:11:11.000Z</time>
      </trkpt>
      <trkpt lat="44.35867" lon="3.88173">
        <ele>1258</ele>
        <time>1970-01-01T00:11:12.000Z</time>
      </trkpt>
      <trkpt lat="44.35858" lon="3.88172">
        <ele>1257</ele>
        <time>1970-01-01T00:11:13.000Z</time>
      </trkpt>
      <trkpt lat="44.35849" lon="3.88172">
        <ele>1257</ele>
        <time>1970-01-01T00:11:14.000Z</time>
      </trkpt>
      <trkpt lat="44.3584" lon="3.88171">
        <ele>1256</ele>
        <time>1970-01-01T00:11:15.000Z</time>
      </trkpt>
      <trkpt lat="44.35831" lon="3.8817">
        <ele>1255</ele>
        <time>1970-01-01T00:11:16.000Z</time>
      </trkpt>
      <trkpt lat="44.35822" lon="3.8817">
        <ele>1255</ele>
        <time>1970-01-01T00:11:17.000Z</time>
      </trkpt>
      <trkpt lat="44.35813" lon="3.88169">
        <ele>1255</ele>
        <time>1970-01-01T00:11:18.000Z</time>
      </trkpt>
      <trkpt lat="44.35804" lon="3.88168">
        <ele>1254</ele>
        <time>1970-01-01T00:11:19.000Z</time>
      </trkpt>
      <trkpt lat="44.35804" lon="3.88168">
        <ele>1254</ele>
        <time>1970-01-01T00:11:20.000Z</time>
      </trkpt>
      <trkpt lat="44.35796" lon="3.88174">
        <ele>1254</ele>
        <time>1970-01-01T00:11:21.000Z</time>
      </trkpt>
      <trkpt lat="44.35788" lon="3.88179">
        <ele>1254</ele>
        <time>1970-01-01T00:11:22.000Z</time>
      </trkpt>
      <trkpt lat="44.3578" lon="3.88185">
        <ele>1254</ele>
        <time>1970-01-01T00:11:23.000Z</time>
      </trkpt>
      <trkpt lat="44.35772" lon="3.8819">
        <ele>1254</ele>
        <time>1970-01-01T00:11:24.000Z</time>
      </trkpt>
      <trkpt lat="44.35764" lon="3.88196">
        <ele>1254</ele>
        <time>1970-01-01T00:11:25.000Z</time>
      </trkpt>
      <trkpt lat="44.35756" lon="3.88201">
        <ele>1253</ele>
        <time>1970-01-01T00:11:26.000Z</time>
      </trkpt>
      <trkpt lat="44.35748" lon="3.88207">
        <ele>1251</ele>
        <time>1970-01-01T00:11:27.000Z</time>
      </trkpt>
      <trkpt lat="44.3574" lon="3.88213">
        <ele>1250</ele>
        <time>1970-01-01T00:11:28.000Z</time>
      </trkpt>
      <trkpt lat="44.35732" lon="3.88218">
        <ele>1250</ele>
        <time>1970-01-01T00:11:29.000Z</time>
      </trkpt>
      <trkpt lat="44.35723" lon="3.88224">
        <ele>1250</ele>
        <time>1970-01-01T00:11:30.000Z</time>
      </trkpt>
      <trkpt lat="44.35715" lon="3.88229">
        <ele>1250</ele>
        <time>1970-01-01T00:11:31.000Z</time>
      </trkpt>
      <trkpt lat="44.35707" lon="3.88235">
        <ele>1249</ele>
        <time>1970-01-01T00:11:32.000Z</time>
      </trkpt>
      <trkpt lat="44.357" lon="3.8824">
        <ele>1249</ele>
        <time>1970-01-01T00:11:33.000Z</time>
      </trkpt>
      <trkpt lat="44.35701" lon="3.88227">
        <ele>1249</ele>
        <time>1970-01-01T00:11:34.000Z</time>
      </trkpt>
      <trkpt lat="44.35701" lon="3.88215">
        <ele>1250</ele>
        <time>1970-01-01T00:11:35.000Z</time>
      </trkpt>
      <trkpt lat="44.35702" lon="3.88202">
        <ele>1250</ele>
        <time>1970-01-01T00:11:36.000Z</time>
      </trkpt>
      <trkpt lat="44.35703" lon="3.8819">
        <ele>1250</ele>
        <time>1970-01-01T00:11:37.000Z</time>
      </trkpt>
      <trkpt lat="44.35703" lon="3.88177">
        <ele>1251</ele>
        <time>1970-01-01T00:11:38.000Z</time>
      </trkpt>
      <trkpt lat="44.35704" lon="3.88165">
        <ele>1254</ele>
        <time>1970-01-01T00:11:39.000Z</time>
      </trkpt>
      <trkpt lat="44.35705" lon="3.88152">
        <ele>1254</ele>
        <time>1970-01-01T00:11:40.000Z</time>
      </trkpt>
      <trkpt lat="44.35705" lon="3.88146">
        <ele>1255</ele>
        <time>1970-01-01T00:11:41.000Z</time>
      </trkpt>
      <trkpt lat="44.35698" lon="3.88139">
        <ele>1255</ele>
        <time>1970-01-01T00:11:42.000Z</time>
      </trkpt>
      <trkpt lat="44.3569" lon="3.88133">
        <ele>1255</ele>
        <time>1970-01-01T00:11:43.000Z</time>
      </trkpt>
      <trkpt lat="44.35682" lon="3.88126">
        <ele>1255</ele>
        <time>1970-01-01T00:11:44.000Z</time>
      </trkpt>
      <trkpt lat="44.35675" lon="3.88119">
        <ele>1256</ele>
        <time>1970-01-01T00:11:45.000Z</time>
      </trkpt>
      <trkpt lat="44.35667" lon="3.88112">
        <ele>1256</ele>
        <time>1970-01-01T00:11:46.000Z</time>
      </trkpt>
      <trkpt lat="44.35661" lon="3.88107">
        <ele>1258</ele>
        <time>1970-01-01T00:11:47.000Z</time>
      </trkpt>
      <trkpt lat="44.35652" lon="3.88107">
        <ele>1258</ele>
        <time>1970-01-01T00:11:48.000Z</time>
      </trkpt>
      <trkpt lat="44.35643" lon="3.88106">
        <ele>1258</ele>
        <time>1970-01-01T00:11:49.000Z</time>
      </trkpt>
      <trkpt lat="44.35634" lon="3.88106">
        <ele>1259</ele>
        <time>1970-01-01T00:11:50.000Z</time>
      </trkpt>
      <trkpt lat="44.35625" lon="3.88106">
        <ele>1259</ele>
        <time>1970-01-01T00:11:51.000Z</time>
      </trkpt>
      <trkpt lat="44.35616" lon="3.88106">
        <ele>1259</ele>
        <time>1970-01-01T00:11:52.000Z</time>
      </trkpt>
      <trkpt lat="44.35607" lon="3.88106">
        <ele>1260</ele>
        <time>1970-01-01T00:11:53.000Z</time>
      </trkpt>
      <trkpt lat="44.35598" lon="3.88105">
        <ele>1261</ele>
        <time>1970-01-01T00:11:54.000Z</time>
      </trkpt>
      <trkpt lat="44.35589" lon="3.88105">
        <ele>1261</ele>
        <time>1970-01-01T00:11:55.000Z</time>
      </trkpt>
      <trkpt lat="44.35589" lon="3.88105">
        <ele>1261</ele>
        <time>1970-01-01T00:11:56.000Z</time>
      </trkpt>
      <trkpt lat="44.3558" lon="3.88103">
        <ele>1264</ele>
        <time>1970-01-01T00:11:57.000Z</time>
      </trkpt>
      <trkpt lat="44.35571" lon="3.881">
        <ele>1264</ele>
        <time>1970-01-01T00:11:58.000Z</time>
      </trkpt>
      <trkpt lat="44.35563" lon="3.88098">
        <ele>1264</ele>
        <time>1970-01-01T00:11:59.000Z</time>
      </trkpt>
      <trkpt lat="44.35553" lon="3.88096">
        <ele>1264</ele>
        <time>1970-01-01T00:12:00.000Z</time>
      </trkpt>
      <trkpt lat="44.35545" lon="3.88093">
        <ele>1264</ele>
        <time>1970-01-01T00:12:01.000Z</time>
      </trkpt>
      <trkpt lat="44.35536" lon="3.88091">
        <ele>1265</ele>
        <time>1970-01-01T00:12:02.000Z</time>
      </trkpt>
      <trkpt lat="44.35535" lon="3.88091">
        <ele>1265</ele>
        <time>1970-01-01T00:12:03.000Z</time>
      </trkpt>
      <trkpt lat="44.35527" lon="3.88085">
        <ele>1265</ele>
        <time>1970-01-01T00:12:04.000Z</time>
      </trkpt>
      <trkpt lat="44.35519" lon="3.88078">
        <ele>1271</ele>
        <time>1970-01-01T00:12:05.000Z</time>
      </trkpt>
      <trkpt lat="44.35512" lon="3.88072">
        <ele>1271</ele>
        <time>1970-01-01T00:12:06.000Z</time>
      </trkpt>
      <trkpt lat="44.35504" lon="3.88066">
        <ele>1271</ele>
        <time>1970-01-01T00:12:07.000Z</time>
      </trkpt>
      <trkpt lat="44.35496" lon="3.8806">
        <ele>1274</ele>
        <time>1970-01-01T00:12:08.000Z</time>
      </trkpt>
      <trkpt lat="44.35488" lon="3.88054">
        <ele>1275</ele>
        <time>1970-01-01T00:12:09.000Z</time>
      </trkpt>
      <trkpt lat="44.3548" lon="3.88047">
        <ele>1276</ele>
        <time>1970-01-01T00:12:10.000Z</time>
      </trkpt>
      <trkpt lat="44.35473" lon="3.88041">
        <ele>1277</ele>
        <time>1970-01-01T00:12:11.000Z</time>
      </trkpt>
      <trkpt lat="44.35465" lon="3.88035">
        <ele>1278</ele>
        <time>1970-01-01T00:12:12.000Z</time>
      </trkpt>
      <trkpt lat="44.35457" lon="3.88029">
        <ele>1278</ele>
        <time>1970-01-01T00:12:13.000Z</time>
      </trkpt>
      <trkpt lat="44.35449" lon="3.88022">
        <ele>1279</ele>
        <time>1970-01-01T00:12:14.000Z</time>
      </trkpt>
      <trkpt lat="44.35446" lon="3.8802">
        <ele>1279</ele>
        <time>1970-01-01T00:12:15.000Z</time>
      </trkpt>
      <trkpt lat="44.35437" lon="3.88021">
        <ele>1280</ele>
        <time>1970-01-01T00:12:16.000Z</time>
      </trkpt>
      <trkpt lat="44.35428" lon="3.88022">
        <ele>1280</ele>
        <time>1970-01-01T00:12:17.000Z</time>
      </trkpt>
      <trkpt lat="44.35419" lon="3.88023">
        <ele>1281</ele>
        <time>1970-01-01T00:12:18.000Z</time>
      </trkpt>
      <trkpt lat="44.3541" lon="3.88024">
        <ele>1283</ele>
        <time>1970-01-01T00:12:19.000Z</time>
      </trkpt>
      <trkpt lat="44.35402" lon="3.88025">
        <ele>1283</ele>
        <time>1970-01-01T00:12:20.000Z</time>
      </trkpt>
      <trkpt lat="44.35392" lon="3.88026">
        <ele>1283</ele>
        <time>1970-01-01T00:12:21.000Z</time>
      </trkpt>
      <trkpt lat="44.35384" lon="3.88027">
        <ele>1283</ele>
        <time>1970-01-01T00:12:22.000Z</time>
      </trkpt>
      <trkpt lat="44.35374" lon="3.88028">
        <ele>1284</ele>
        <time>1970-01-01T00:12:23.000Z</time>
      </trkpt>
      <trkpt lat="44.35366" lon="3.88029">
        <ele>1284</ele>
        <time>1970-01-01T00:12:24.000Z</time>
      </trkpt>
      <trkpt lat="44.35357" lon="3.8803">
        <ele>1284</ele>
        <time>1970-01-01T00:12:25.000Z</time>
      </trkpt>
      <trkpt lat="44.35352" lon="3.8803">
        <ele>1284</ele>
        <time>1970-01-01T00:12:26.000Z</time>
      </trkpt>
      <trkpt lat="44.35344" lon="3.88024">
        <ele>1284</ele>
        <time>1970-01-01T00:12:27.000Z</time>
      </trkpt>
      <trkpt lat="44.35336" lon="3.88018">
        <ele>1285</ele>
        <time>1970-01-01T00:12:28.000Z</time>
      </trkpt>
      <trkpt lat="44.35329" lon="3.88011">
        <ele>1286</ele>
        <time>1970-01-01T00:12:29.000Z</time>
      </trkpt>
      <trkpt lat="44.35321" lon="3.88005">
        <ele>1285</ele>
        <time>1970-01-01T00:12:30.000Z</time>
      </trkpt>
      <trkpt lat="44.35313" lon="3.87999">
        <ele>1287</ele>
        <time>1970-01-01T00:12:31.000Z</time>
      </trkpt>
      <trkpt lat="44.35305" lon="3.87993">
        <ele>1287</ele>
        <time>1970-01-01T00:12:32.000Z</time>
      </trkpt>
      <trkpt lat="44.35297" lon="3.87986">
        <ele>1287</ele>
        <time>1970-01-01T00:12:33.000Z</time>
      </trkpt>
      <trkpt lat="44.35294" lon="3.87984">
        <ele>1287</ele>
        <time>1970-01-01T00:12:34.000Z</time>
      </trkpt>
      <trkpt lat="44.35291" lon="3.87972">
        <ele>1287</ele>
        <time>1970-01-01T00:12:35.000Z</time>
      </trkpt>
      <trkpt lat="44.35289" lon="3.8796">
        <ele>1288</ele>
        <time>1970-01-01T00:12:36.000Z</time>
      </trkpt>
      <trkpt lat="44.35286" lon="3.87948">
        <ele>1288</ele>
        <time>1970-01-01T00:12:37.000Z</time>
      </trkpt>
      <trkpt lat="44.35286" lon="3.87947">
        <ele>1288</ele>
        <time>1970-01-01T00:12:38.000Z</time>
      </trkpt>
      <trkpt lat="44.3529" lon="3.87936">
        <ele>1289</ele>
        <time>1970-01-01T00:12:39.000Z</time>
      </trkpt>
      <trkpt lat="44.35294" lon="3.87925">
        <ele>1290</ele>
        <time>1970-01-01T00:12:40.000Z</time>
      </trkpt>
      <trkpt lat="44.35299" lon="3.87914">
        <ele>1294</ele>
        <time>1970-01-01T00:12:41.000Z</time>
      </trkpt>
      <trkpt lat="44.35303" lon="3.87902">
        <ele>1294</ele>
        <time>1970-01-01T00:12:42.000Z</time>
      </trkpt>
      <trkpt lat="44.35307" lon="3.87891">
        <ele>1294</ele>
        <time>1970-01-01T00:12:43.000Z</time>
      </trkpt>
      <trkpt lat="44.35311" lon="3.8788">
        <ele>1295</ele>
        <time>1970-01-01T00:12:44.000Z</time>
      </trkpt>
      <trkpt lat="44.35315" lon="3.87869">
        <ele>1295</ele>
        <time>1970-01-01T00:12:45.000Z</time>
      </trkpt>
      <trkpt lat="44.3532" lon="3.87858">
        <ele>1296</ele>
        <time>1970-01-01T00:12:46.000Z</time>
      </trkpt>
      <trkpt lat="44.35323" lon="3.87847">
        <ele>1297</ele>
        <time>1970-01-01T00:12:47.000Z</time>
      </trkpt>
      <trkpt lat="44.35328" lon="3.87836">
        <ele>1299</ele>
        <time>1970-01-01T00:12:48.000Z</time>
      </trkpt>
      <trkpt lat="44.35332" lon="3.87825">
        <ele>1299</ele>
        <time>1970-01-01T00:12:49.000Z</time>
      </trkpt>
      <trkpt lat="44.35336" lon="3.87813">
        <ele>1303</ele>
        <time>1970-01-01T00:12:50.000Z</time>
      </trkpt>
      <trkpt lat="44.3534" lon="3.87802">
        <ele>1303</ele>
        <time>1970-01-01T00:12:51.000Z</time>
      </trkpt>
      <trkpt lat="44.35342" lon="3.87798">
        <ele>1303</ele>
        <time>1970-01-01T00:12:52.000Z</time>
      </trkpt>
      <trkpt lat="44.35349" lon="3.87791">
        <ele>1303</ele>
        <time>1970-01-01T00:12:53.000Z</time>
      </trkpt>
      <trkpt lat="44.35357" lon="3.87784">
        <ele>1304</ele>
        <time>1970-01-01T00:12:54.000Z</time>
      </trkpt>
      <trkpt lat="44.35364" lon="3.87777">
        <ele>1304</ele>
        <time>1970-01-01T00:12:55.000Z</time>
      </trkpt>
      <trkpt lat="44.35372" lon="3.8777">
        <ele>1305</ele>
        <time>1970-01-01T00:12:56.000Z</time>
      </trkpt>
      <trkpt lat="44.35379" lon="3.87762">
        <ele>1305</ele>
        <time>1970-01-01T00:12:57.000Z</time>
      </trkpt>
      <trkpt lat="44.35387" lon="3.87755">
        <ele>1306</ele>
        <time>1970-01-01T00:12:58.000Z</time>
      </trkpt>
      <trkpt lat="44.35387" lon="3.87755">
        <ele>1306</ele>
        <time>1970-01-01T00:12:59.000Z</time>
      </trkpt>
      <trkpt lat="44.35393" lon="3.87746">
        <ele>1307</ele>
        <time>1970-01-01T00:13:00.000Z</time>
      </trkpt>
      <trkpt lat="44.35399" lon="3.87736">
        <ele>1307</ele>
        <time>1970-01-01T00:13:01.000Z</time>
      </trkpt>
      <trkpt lat="44.35405" lon="3.87727">
        <ele>1307</ele>
        <time>1970-01-01T00:13:02.000Z</time>
      </trkpt>
      <trkpt lat="44.35411" lon="3.87718">
        <ele>1306</ele>
        <time>1970-01-01T00:13:03.000Z</time>
      </trkpt>
      <trkpt lat="44.35418" lon="3.87709">
        <ele>1313</ele>
        <time>1970-01-01T00:13:04.000Z</time>
      </trkpt>
      <trkpt lat="44.35424" lon="3.877">
        <ele>1313</ele>
        <time>1970-01-01T00:13:05.000Z</time>
      </trkpt>
      <trkpt lat="44.3543" lon="3.8769">
        <ele>1313</ele>
        <time>1970-01-01T00:13:06.000Z</time>
      </trkpt>
      <trkpt lat="44.35436" lon="3.87681">
        <ele>1313</ele>
        <time>1970-01-01T00:13:07.000Z</time>
      </trkpt>
      <trkpt lat="44.35442" lon="3.87672">
        <ele>1313</ele>
        <time>1970-01-01T00:13:08.000Z</time>
      </trkpt>
      <trkpt lat="44.35448" lon="3.87663">
        <ele>1312</ele>
        <time>1970-01-01T00:13:09.000Z</time>
      </trkpt>
      <trkpt lat="44.35454" lon="3.87653">
        <ele>1312</ele>
        <time>1970-01-01T00:13:10.000Z</time>
      </trkpt>
      <trkpt lat="44.3546" lon="3.87644">
        <ele>1313</ele>
        <time>1970-01-01T00:13:11.000Z</time>
      </trkpt>
      <trkpt lat="44.35466" lon="3.87635">
        <ele>1313</ele>
        <time>1970-01-01T00:13:12.000Z</time>
      </trkpt>
      <trkpt lat="44.35472" lon="3.87626">
        <ele>1313</ele>
        <time>1970-01-01T00:13:13.000Z</time>
      </trkpt>
      <trkpt lat="44.35478" lon="3.87616">
        <ele>1313</ele>
        <time>1970-01-01T00:13:14.000Z</time>
      </trkpt>
      <trkpt lat="44.35484" lon="3.87607">
        <ele>1314</ele>
        <time>1970-01-01T00:13:15.000Z</time>
      </trkpt>
      <trkpt lat="44.3549" lon="3.87598">
        <ele>1314</ele>
        <time>1970-01-01T00:13:16.000Z</time>
      </trkpt>
      <trkpt lat="44.35497" lon="3.87589">
        <ele>1315</ele>
        <time>1970-01-01T00:13:17.000Z</time>
      </trkpt>
      <trkpt lat="44.35503" lon="3.87579">
        <ele>1316</ele>
        <time>1970-01-01T00:13:18.000Z</time>
      </trkpt>
      <trkpt lat="44.35509" lon="3.8757">
        <ele>1318</ele>
        <time>1970-01-01T00:13:19.000Z</time>
      </trkpt>
      <trkpt lat="44.35515" lon="3.87561">
        <ele>1319</ele>
        <time>1970-01-01T00:13:20.000Z</time>
      </trkpt>
      <trkpt lat="44.35521" lon="3.87552">
        <ele>1320</ele>
        <time>1970-01-01T00:13:21.000Z</time>
      </trkpt>
      <trkpt lat="44.35527" lon="3.87542">
        <ele>1320</ele>
        <time>1970-01-01T00:13:22.000Z</time>
      </trkpt>
      <trkpt lat="44.35533" lon="3.87533">
        <ele>1320</ele>
        <time>1970-01-01T00:13:23.000Z</time>
      </trkpt>
      <trkpt lat="44.35539" lon="3.87524">
        <ele>1320</ele>
        <time>1970-01-01T00:13:24.000Z</time>
      </trkpt>
      <trkpt lat="44.35545" lon="3.87515">
        <ele>1321</ele>
        <time>1970-01-01T00:13:25.000Z</time>
      </trkpt>
      <trkpt lat="44.35551" lon="3.87505">
        <ele>1321</ele>
        <time>1970-01-01T00:13:26.000Z</time>
      </trkpt>
      <trkpt lat="44.35557" lon="3.87496">
        <ele>1320</ele>
        <time>1970-01-01T00:13:27.000Z</time>
      </trkpt>
      <trkpt lat="44.35563" lon="3.87487">
        <ele>1320</ele>
        <time>1970-01-01T00:13:28.000Z</time>
      </trkpt>
      <trkpt lat="44.35566" lon="3.87484">
        <ele>1320</ele>
        <time>1970-01-01T00:13:29.000Z</time>
      </trkpt>
      <trkpt lat="44.35574" lon="3.87478">
        <ele>1320</ele>
        <time>1970-01-01T00:13:30.000Z</time>
      </trkpt>
      <trkpt lat="44.35582" lon="3.87472">
        <ele>1320</ele>
        <time>1970-01-01T00:13:31.000Z</time>
      </trkpt>
      <trkpt lat="44.3559" lon="3.87466">
        <ele>1326</ele>
        <time>1970-01-01T00:13:32.000Z</time>
      </trkpt>
      <trkpt lat="44.35598" lon="3.8746">
        <ele>1326</ele>
        <time>1970-01-01T00:13:33.000Z</time>
      </trkpt>
      <trkpt lat="44.35605" lon="3.87454">
        <ele>1326</ele>
        <time>1970-01-01T00:13:34.000Z</time>
      </trkpt>
      <trkpt lat="44.35613" lon="3.87448">
        <ele>1327</ele>
        <time>1970-01-01T00:13:35.000Z</time>
      </trkpt>
      <trkpt lat="44.35621" lon="3.87442">
        <ele>1327</ele>
        <time>1970-01-01T00:13:36.000Z</time>
      </trkpt>
      <trkpt lat="44.35629" lon="3.87436">
        <ele>1328</ele>
        <time>1970-01-01T00:13:37.000Z</time>
      </trkpt>
      <trkpt lat="44.35637" lon="3.8743">
        <ele>1328</ele>
        <time>1970-01-01T00:13:38.000Z</time>
      </trkpt>
      <trkpt lat="44.35645" lon="3.87424">
        <ele>1329</ele>
        <time>1970-01-01T00:13:39.000Z</time>
      </trkpt>
      <trkpt lat="44.35653" lon="3.87418">
        <ele>1329</ele>
        <time>1970-01-01T00:13:40.000Z</time>
      </trkpt>
      <trkpt lat="44.35661" lon="3.87412">
        <ele>1329</ele>
        <time>1970-01-01T00:13:41.000Z</time>
      </trkpt>
      <trkpt lat="44.35669" lon="3.87406">
        <ele>1331</ele>
        <time>1970-01-01T00:13:42.000Z</time>
      </trkpt>
      <trkpt lat="44.35677" lon="3.874">
        <ele>1332</ele>
        <time>1970-01-01T00:13:43.000Z</time>
      </trkpt>
      <trkpt lat="44.35684" lon="3.87394">
        <ele>1333</ele>
        <time>1970-01-01T00:13:44.000Z</time>
      </trkpt>
      <trkpt lat="44.35692" lon="3.87388">
        <ele>1333</ele>
        <time>1970-01-01T00:13:45.000Z</time>
      </trkpt>
      <trkpt lat="44.35694" lon="3.87387">
        <ele>1333</ele>
        <time>1970-01-01T00:13:46.000Z</time>
      </trkpt>
      <trkpt lat="44.35695" lon="3.87374">
        <ele>1334</ele>
        <time>1970-01-01T00:13:47.000Z</time>
      </trkpt>
      <trkpt lat="44.35695" lon="3.87362">
        <ele>1333</ele>
        <time>1970-01-01T00:13:48.000Z</time>
      </trkpt>
      <trkpt lat="44.35696" lon="3.87349">
        <ele>1333</ele>
        <time>1970-01-01T00:13:49.000Z</time>
      </trkpt>
      <trkpt lat="44.35697" lon="3.87337">
        <ele>1333</ele>
        <time>1970-01-01T00:13:50.000Z</time>
      </trkpt>
      <trkpt lat="44.35697" lon="3.87324">
        <ele>1335</ele>
        <time>1970-01-01T00:13:51.000Z</time>
      </trkpt>
      <trkpt lat="44.35698" lon="3.87312">
        <ele>1335</ele>
        <time>1970-01-01T00:13:52.000Z</time>
      </trkpt>
      <trkpt lat="44.35699" lon="3.87299">
        <ele>1336</ele>
        <time>1970-01-01T00:13:53.000Z</time>
      </trkpt>
      <trkpt lat="44.35699" lon="3.87287">
        <ele>1336</ele>
        <time>1970-01-01T00:13:54.000Z</time>
      </trkpt>
      <trkpt lat="44.357" lon="3.87274">
        <ele>1337</ele>
        <time>1970-01-01T00:13:55.000Z</time>
      </trkpt>
      <trkpt lat="44.35701" lon="3.87262">
        <ele>1337</ele>
        <time>1970-01-01T00:13:56.000Z</time>
      </trkpt>
      <trkpt lat="44.35701" lon="3.87249">
        <ele>1339</ele>
        <time>1970-01-01T00:13:57.000Z</time>
      </trkpt>
      <trkpt lat="44.35702" lon="3.87237">
        <ele>1339</ele>
        <time>1970-01-01T00:13:58.000Z</time>
      </trkpt>
      <trkpt lat="44.35703" lon="3.87224">
        <ele>1340</ele>
        <time>1970-01-01T00:13:59.000Z</time>
      </trkpt>
      <trkpt lat="44.35703" lon="3.87212">
        <ele>1340</ele>
        <time>1970-01-01T00:14:00.000Z</time>
      </trkpt>
      <trkpt lat="44.35704" lon="3.87199">
        <ele>1340</ele>
        <time>1970-01-01T00:14:01.000Z</time>
      </trkpt>
      <trkpt lat="44.35704" lon="3.87186">
        <ele>1340</ele>
        <time>1970-01-01T00:14:02.000Z</time>
      </trkpt>
      <trkpt lat="44.35705" lon="3.87174">
        <ele>1341</ele>
        <time>1970-01-01T00:14:03.000Z</time>
      </trkpt>
      <trkpt lat="44.35706" lon="3.87161">
        <ele>1342</ele>
        <time>1970-01-01T00:14:04.000Z</time>
      </trkpt>
      <trkpt lat="44.35706" lon="3.87156">
        <ele>1342</ele>
        <time>1970-01-01T00:14:05.000Z</time>
      </trkpt>
      <trkpt lat="44.35699" lon="3.87148">
        <ele>1343</ele>
        <time>1970-01-01T00:14:06.000Z</time>
      </trkpt>
      <trkpt lat="44.35692" lon="3.87141">
        <ele>1343</ele>
        <time>1970-01-01T00:14:07.000Z</time>
      </trkpt>
      <trkpt lat="44.35685" lon="3.87133">
        <ele>1343</ele>
        <time>1970-01-01T00:14:08.000Z</time>
      </trkpt>
      <trkpt lat="44.35677" lon="3.87125">
        <ele>1343</ele>
        <time>1970-01-01T00:14:09.000Z</time>
      </trkpt>
      <trkpt lat="44.3567" lon="3.87118">
        <ele>1343</ele>
        <time>1970-01-01T00:14:10.000Z</time>
      </trkpt>
      <trkpt lat="44.35663" lon="3.8711">
        <ele>1344</ele>
        <time>1970-01-01T00:14:11.000Z</time>
      </trkpt>
      <trkpt lat="44.35656" lon="3.87102">
        <ele>1344</ele>
        <time>1970-01-01T00:14:12.000Z</time>
      </trkpt>
      <trkpt lat="44.35649" lon="3.87095">
        <ele>1344</ele>
        <time>1970-01-01T00:14:13.000Z</time>
      </trkpt>
      <trkpt lat="44.35642" lon="3.87087">
        <ele>1344</ele>
        <time>1970-01-01T00:14:14.000Z</time>
      </trkpt>
      <trkpt lat="44.35635" lon="3.87079">
        <ele>1346</ele>
        <time>1970-01-01T00:14:15.000Z</time>
      </trkpt>
      <trkpt lat="44.35628" lon="3.87072">
        <ele>1346</ele>
        <time>1970-01-01T00:14:16.000Z</time>
      </trkpt>
      <trkpt lat="44.3562" lon="3.87064">
        <ele>1347</ele>
        <time>1970-01-01T00:14:17.000Z</time>
      </trkpt>
      <trkpt lat="44.35614" lon="3.87056">
        <ele>1347</ele>
        <time>1970-01-01T00:14:18.000Z</time>
      </trkpt>
      <trkpt lat="44.35606" lon="3.87048">
        <ele>1347</ele>
        <time>1970-01-01T00:14:19.000Z</time>
      </trkpt>
      <trkpt lat="44.35599" lon="3.87041">
        <ele>1347</ele>
        <time>1970-01-01T00:14:20.000Z</time>
      </trkpt>
      <trkpt lat="44.35592" lon="3.87033">
        <ele>1347</ele>
        <time>1970-01-01T00:14:21.000Z</time>
      </trkpt>
      <trkpt lat="44.35586" lon="3.87027">
        <ele>1347</ele>
        <time>1970-01-01T00:14:22.000Z</time>
      </trkpt>
      <trkpt lat="44.35582" lon="3.87016">
        <ele>1346</ele>
        <time>1970-01-01T00:14:23.000Z</time>
      </trkpt>
      <trkpt lat="44.35577" lon="3.87005">
        <ele>1347</ele>
        <time>1970-01-01T00:14:24.000Z</time>
      </trkpt>
      <trkpt lat="44.35572" lon="3.86994">
        <ele>1347</ele>
        <time>1970-01-01T00:14:25.000Z</time>
      </trkpt>
      <trkpt lat="44.35568" lon="3.86984">
        <ele>1347</ele>
        <time>1970-01-01T00:14:26.000Z</time>
      </trkpt>
      <trkpt lat="44.35564" lon="3.86973">
        <ele>1347</ele>
        <time>1970-01-01T00:14:27.000Z</time>
      </trkpt>
      <trkpt lat="44.35559" lon="3.86962">
        <ele>1347</ele>
        <time>1970-01-01T00:14:28.000Z</time>
      </trkpt>
      <trkpt lat="44.35555" lon="3.86951">
        <ele>1347</ele>
        <time>1970-01-01T00:14:29.000Z</time>
      </trkpt>
      <trkpt lat="44.3555" lon="3.8694">
        <ele>1347</ele>
        <time>1970-01-01T00:14:30.000Z</time>
      </trkpt>
      <trkpt lat="44.35545" lon="3.86929">
        <ele>1347</ele>
        <time>1970-01-01T00:14:31.000Z</time>
      </trkpt>
      <trkpt lat="44.35541" lon="3.86918">
        <ele>1347</ele>
        <time>1970-01-01T00:14:32.000Z</time>
      </trkpt>
      <trkpt lat="44.35537" lon="3.86908">
        <ele>1349</ele>
        <time>1970-01-01T00:14:33.000Z</time>
      </trkpt>
      <trkpt lat="44.35532" lon="3.86897">
        <ele>1349</ele>
        <time>1970-01-01T00:14:34.000Z</time>
      </trkpt>
      <trkpt lat="44.35527" lon="3.86886">
        <ele>1349</ele>
        <time>1970-01-01T00:14:35.000Z</time>
      </trkpt>
      <trkpt lat="44.35523" lon="3.86875">
        <ele>1350</ele>
        <time>1970-01-01T00:14:36.000Z</time>
      </trkpt>
      <trkpt lat="44.35518" lon="3.86864">
        <ele>1350</ele>
        <time>1970-01-01T00:14:37.000Z</time>
      </trkpt>
      <trkpt lat="44.35514" lon="3.86853">
        <ele>1349</ele>
        <time>1970-01-01T00:14:38.000Z</time>
      </trkpt>
      <trkpt lat="44.35509" lon="3.86842">
        <ele>1349</ele>
        <time>1970-01-01T00:14:39.000Z</time>
      </trkpt>
      <trkpt lat="44.35505" lon="3.86832">
        <ele>1349</ele>
        <time>1970-01-01T00:14:40.000Z</time>
      </trkpt>
      <trkpt lat="44.355" lon="3.86821">
        <ele>1349</ele>
        <time>1970-01-01T00:14:41.000Z</time>
      </trkpt>
      <trkpt lat="44.35499" lon="3.86818">
        <ele>1345</ele>
        <time>1970-01-01T00:14:42.000Z</time>
      </trkpt>
      <trkpt lat="44.35502" lon="3.86806">
        <ele>1350</ele>
        <time>1970-01-01T00:14:43.000Z</time>
      </trkpt>
      <trkpt lat="44.35506" lon="3.86795">
        <ele>1350</ele>
        <time>1970-01-01T00:14:44.000Z</time>
      </trkpt>
      <trkpt lat="44.35509" lon="3.86783">
        <ele>1350</ele>
        <time>1970-01-01T00:14:45.000Z</time>
      </trkpt>
      <trkpt lat="44.35513" lon="3.86772">
        <ele>1350</ele>
        <time>1970-01-01T00:14:46.000Z</time>
      </trkpt>
      <trkpt lat="44.35516" lon="3.8676">
        <ele>1349</ele>
        <time>1970-01-01T00:14:47.000Z</time>
      </trkpt>
      <trkpt lat="44.3552" lon="3.86748">
        <ele>1347</ele>
        <time>1970-01-01T00:14:48.000Z</time>
      </trkpt>
      <trkpt lat="44.35523" lon="3.86737">
        <ele>1347</ele>
        <time>1970-01-01T00:14:49.000Z</time>
      </trkpt>
      <trkpt lat="44.35527" lon="3.86725">
        <ele>1347</ele>
        <time>1970-01-01T00:14:50.000Z</time>
      </trkpt>
      <trkpt lat="44.3553" lon="3.86714">
        <ele>1346</ele>
        <time>1970-01-01T00:14:51.000Z</time>
      </trkpt>
      <trkpt lat="44.35534" lon="3.86702">
        <ele>1346</ele>
        <time>1970-01-01T00:14:52.000Z</time>
      </trkpt>
      <trkpt lat="44.35537" lon="3.86691">
        <ele>1345</ele>
        <time>1970-01-01T00:14:53.000Z</time>
      </trkpt>
      <trkpt lat="44.3554" lon="3.86679">
        <ele>1345</ele>
        <time>1970-01-01T00:14:54.000Z</time>
      </trkpt>
      <trkpt lat="44.35544" lon="3.86667">
        <ele>1345</ele>
        <time>1970-01-01T00:14:55.000Z</time>
      </trkpt>
      <trkpt lat="44.35547" lon="3.86656">
        <ele>1337</ele>
        <time>1970-01-01T00:14:56.000Z</time>
      </trkpt>
      <trkpt lat="44.35551" lon="3.86644">
        <ele>1336</ele>
        <time>1970-01-01T00:14:57.000Z</time>
      </trkpt>
      <trkpt lat="44.35551" lon="3.86644">
        <ele>1336</ele>
        <time>1970-01-01T00:14:58.000Z</time>
      </trkpt>
      <trkpt lat="44.35551" lon="3.86631">
        <ele>1335</ele>
        <time>1970-01-01T00:14:59.000Z</time>
      </trkpt>
      <trkpt lat="44.35551" lon="3.86619">
        <ele>1334</ele>
        <time>1970-01-01T00:15:00.000Z</time>
      </trkpt>
      <trkpt lat="44.3555" lon="3.86606">
        <ele>1332</ele>
        <time>1970-01-01T00:15:01.000Z</time>
      </trkpt>
      <trkpt lat="44.3555" lon="3.86594">
        <ele>1332</ele>
        <time>1970-01-01T00:15:02.000Z</time>
      </trkpt>
      <trkpt lat="44.3555" lon="3.86581">
        <ele>1324</ele>
        <time>1970-01-01T00:15:03.000Z</time>
      </trkpt>
      <trkpt lat="44.3555" lon="3.86569">
        <ele>1324</ele>
        <time>1970-01-01T00:15:04.000Z</time>
      </trkpt>
      <trkpt lat="44.3555" lon="3.86556">
        <ele>1323</ele>
        <time>1970-01-01T00:15:05.000Z</time>
      </trkpt>
      <trkpt lat="44.3555" lon="3.86544">
        <ele>1323</ele>
        <time>1970-01-01T00:15:06.000Z</time>
      </trkpt>
      <trkpt lat="44.35549" lon="3.86531">
        <ele>1322</ele>
        <time>1970-01-01T00:15:07.000Z</time>
      </trkpt>
      <trkpt lat="44.35549" lon="3.86518">
        <ele>1321</ele>
        <time>1970-01-01T00:15:08.000Z</time>
      </trkpt>
      <trkpt lat="44.35549" lon="3.86506">
        <ele>1321</ele>
        <time>1970-01-01T00:15:09.000Z</time>
      </trkpt>
      <trkpt lat="44.35548" lon="3.86493">
        <ele>1318</ele>
        <time>1970-01-01T00:15:10.000Z</time>
      </trkpt>
      <trkpt lat="44.35548" lon="3.86481">
        <ele>1318</ele>
        <time>1970-01-01T00:15:11.000Z</time>
      </trkpt>
      <trkpt lat="44.35548" lon="3.86468">
        <ele>1318</ele>
        <time>1970-01-01T00:15:12.000Z</time>
      </trkpt>
      <trkpt lat="44.35548" lon="3.86456">
        <ele>1318</ele>
        <time>1970-01-01T00:15:13.000Z</time>
      </trkpt>
      <trkpt lat="44.35548" lon="3.86444">
        <ele>1317</ele>
        <time>1970-01-01T00:15:14.000Z</time>
      </trkpt>
      <trkpt lat="44.35541" lon="3.86435">
        <ele>1317</ele>
        <time>1970-01-01T00:15:15.000Z</time>
      </trkpt>
      <trkpt lat="44.35535" lon="3.86426">
        <ele>1317</ele>
        <time>1970-01-01T00:15:16.000Z</time>
      </trkpt>
      <trkpt lat="44.35529" lon="3.86417">
        <ele>1317</ele>
        <time>1970-01-01T00:15:17.000Z</time>
      </trkpt>
      <trkpt lat="44.35522" lon="3.86408">
        <ele>1317</ele>
        <time>1970-01-01T00:15:18.000Z</time>
      </trkpt>
      <trkpt lat="44.35516" lon="3.86399">
        <ele>1317</ele>
        <time>1970-01-01T00:15:19.000Z</time>
      </trkpt>
      <trkpt lat="44.3551" lon="3.8639">
        <ele>1317</ele>
        <time>1970-01-01T00:15:20.000Z</time>
      </trkpt>
      <trkpt lat="44.35503" lon="3.86382">
        <ele>1317</ele>
        <time>1970-01-01T00:15:21.000Z</time>
      </trkpt>
      <trkpt lat="44.35497" lon="3.86373">
        <ele>1316</ele>
        <time>1970-01-01T00:15:22.000Z</time>
      </trkpt>
      <trkpt lat="44.35491" lon="3.86364">
        <ele>1316</ele>
        <time>1970-01-01T00:15:23.000Z</time>
      </trkpt>
      <trkpt lat="44.35484" lon="3.86355">
        <ele>1316</ele>
        <time>1970-01-01T00:15:24.000Z</time>
      </trkpt>
      <trkpt lat="44.35478" lon="3.86346">
        <ele>1316</ele>
        <time>1970-01-01T00:15:25.000Z</time>
      </trkpt>
      <trkpt lat="44.35472" lon="3.86337">
        <ele>1316</ele>
        <time>1970-01-01T00:15:26.000Z</time>
      </trkpt>
      <trkpt lat="44.35465" lon="3.86328">
        <ele>1316</ele>
        <time>1970-01-01T00:15:27.000Z</time>
      </trkpt>
      <trkpt lat="44.35459" lon="3.86319">
        <ele>1316</ele>
        <time>1970-01-01T00:15:28.000Z</time>
      </trkpt>
      <trkpt lat="44.35456" lon="3.86315">
        <ele>1316</ele>
        <time>1970-01-01T00:15:29.000Z</time>
      </trkpt>
      <trkpt lat="44.35449" lon="3.86307">
        <ele>1316</ele>
        <time>1970-01-01T00:15:30.000Z</time>
      </trkpt>
      <trkpt lat="44.35442" lon="3.86299">
        <ele>1316</ele>
        <time>1970-01-01T00:15:31.000Z</time>
      </trkpt>
      <trkpt lat="44.35435" lon="3.86291">
        <ele>1315</ele>
        <time>1970-01-01T00:15:32.000Z</time>
      </trkpt>
      <trkpt lat="44.35429" lon="3.86282">
        <ele>1315</ele>
        <time>1970-01-01T00:15:33.000Z</time>
      </trkpt>
      <trkpt lat="44.35422" lon="3.86274">
        <ele>1315</ele>
        <time>1970-01-01T00:15:34.000Z</time>
      </trkpt>
      <trkpt lat="44.35415" lon="3.86266">
        <ele>1313</ele>
        <time>1970-01-01T00:15:35.000Z</time>
      </trkpt>
      <trkpt lat="44.35408" lon="3.86258">
        <ele>1313</ele>
        <time>1970-01-01T00:15:36.000Z</time>
      </trkpt>
      <trkpt lat="44.35401" lon="3.8625">
        <ele>1312</ele>
        <time>1970-01-01T00:15:37.000Z</time>
      </trkpt>
      <trkpt lat="44.35395" lon="3.86241">
        <ele>1312</ele>
        <time>1970-01-01T00:15:38.000Z</time>
      </trkpt>
      <trkpt lat="44.35388" lon="3.86233">
        <ele>1312</ele>
        <time>1970-01-01T00:15:39.000Z</time>
      </trkpt>
      <trkpt lat="44.35381" lon="3.86225">
        <ele>1312</ele>
        <time>1970-01-01T00:15:40.000Z</time>
      </trkpt>
      <trkpt lat="44.35374" lon="3.86217">
        <ele>1311</ele>
        <time>1970-01-01T00:15:41.000Z</time>
      </trkpt>
      <trkpt lat="44.35369" lon="3.86212">
        <ele>1311</ele>
        <time>1970-01-01T00:15:42.000Z</time>
      </trkpt>
      <trkpt lat="44.35364" lon="3.86202">
        <ele>1311</ele>
        <time>1970-01-01T00:15:43.000Z</time>
      </trkpt>
      <trkpt lat="44.35358" lon="3.86193">
        <ele>1311</ele>
        <time>1970-01-01T00:15:44.000Z</time>
      </trkpt>
      <trkpt lat="44.35352" lon="3.86184">
        <ele>1310</ele>
        <time>1970-01-01T00:15:45.000Z</time>
      </trkpt>
      <trkpt lat="44.35346" lon="3.86174">
        <ele>1309</ele>
        <time>1970-01-01T00:15:46.000Z</time>
      </trkpt>
      <trkpt lat="44.3534" lon="3.86165">
        <ele>1309</ele>
        <time>1970-01-01T00:15:47.000Z</time>
      </trkpt>
      <trkpt lat="44.35334" lon="3.86155">
        <ele>1309</ele>
        <time>1970-01-01T00:15:48.000Z</time>
      </trkpt>
      <trkpt lat="44.35328" lon="3.86146">
        <ele>1305</ele>
        <time>1970-01-01T00:15:49.000Z</time>
      </trkpt>
      <trkpt lat="44.35322" lon="3.86136">
        <ele>1305</ele>
        <time>1970-01-01T00:15:50.000Z</time>
      </trkpt>
      <trkpt lat="44.35316" lon="3.86127">
        <ele>1305</ele>
        <time>1970-01-01T00:15:51.000Z</time>
      </trkpt>
      <trkpt lat="44.3531" lon="3.86117">
        <ele>1305</ele>
        <time>1970-01-01T00:15:52.000Z</time>
      </trkpt>
      <trkpt lat="44.35305" lon="3.86108">
        <ele>1305</ele>
        <time>1970-01-01T00:15:53.000Z</time>
      </trkpt>
      <trkpt lat="44.35299" lon="3.861">
        <ele>1304</ele>
        <time>1970-01-01T00:15:54.000Z</time>
      </trkpt>
      <trkpt lat="44.35295" lon="3.86089">
        <ele>1304</ele>
        <time>1970-01-01T00:15:55.000Z</time>
      </trkpt>
      <trkpt lat="44.35291" lon="3.86078">
        <ele>1304</ele>
        <time>1970-01-01T00:15:56.000Z</time>
      </trkpt>
      <trkpt lat="44.35287" lon="3.86066">
        <ele>1303</ele>
        <time>1970-01-01T00:15:57.000Z</time>
      </trkpt>
      <trkpt lat="44.35283" lon="3.86055">
        <ele>1303</ele>
        <time>1970-01-01T00:15:58.000Z</time>
      </trkpt>
      <trkpt lat="44.35279" lon="3.86044">
        <ele>1303</ele>
        <time>1970-01-01T00:15:59.000Z</time>
      </trkpt>
      <trkpt lat="44.35275" lon="3.86033">
        <ele>1302</ele>
        <time>1970-01-01T00:16:00.000Z</time>
      </trkpt>
      <trkpt lat="44.35271" lon="3.86022">
        <ele>1301</ele>
        <time>1970-01-01T00:16:01.000Z</time>
      </trkpt>
      <trkpt lat="44.35267" lon="3.8601">
        <ele>1300</ele>
        <time>1970-01-01T00:16:02.000Z</time>
      </trkpt>
      <trkpt lat="44.35263" lon="3.85999">
        <ele>1298</ele>
        <time>1970-01-01T00:16:03.000Z</time>
      </trkpt>
      <trkpt lat="44.35259" lon="3.85988">
        <ele>1298</ele>
        <time>1970-01-01T00:16:04.000Z</time>
      </trkpt>
      <trkpt lat="44.35255" lon="3.85977">
        <ele>1298</ele>
        <time>1970-01-01T00:16:05.000Z</time>
      </trkpt>
      <trkpt lat="44.3525" lon="3.85966">
        <ele>1298</ele>
        <time>1970-01-01T00:16:06.000Z</time>
      </trkpt>
      <trkpt lat="44.35247" lon="3.85954">
        <ele>1292</ele>
        <time>1970-01-01T00:16:07.000Z</time>
      </trkpt>
      <trkpt lat="44.35242" lon="3.85943">
        <ele>1292</ele>
        <time>1970-01-01T00:16:08.000Z</time>
      </trkpt>
      <trkpt lat="44.3524" lon="3.85937">
        <ele>1292</ele>
        <time>1970-01-01T00:16:09.000Z</time>
      </trkpt>
      <trkpt lat="44.35237" lon="3.85925">
        <ele>1291</ele>
        <time>1970-01-01T00:16:10.000Z</time>
      </trkpt>
      <trkpt lat="44.35233" lon="3.85913">
        <ele>1290</ele>
        <time>1970-01-01T00:16:11.000Z</time>
      </trkpt>
      <trkpt lat="44.3523" lon="3.85902">
        <ele>1289</ele>
        <time>1970-01-01T00:16:12.000Z</time>
      </trkpt>
      <trkpt lat="44.35227" lon="3.8589">
        <ele>1289</ele>
        <time>1970-01-01T00:16:13.000Z</time>
      </trkpt>
      <trkpt lat="44.35224" lon="3.85878">
        <ele>1288</ele>
        <time>1970-01-01T00:16:14.000Z</time>
      </trkpt>
      <trkpt lat="44.3522" lon="3.85866">
        <ele>1288</ele>
        <time>1970-01-01T00:16:15.000Z</time>
      </trkpt>
      <trkpt lat="44.35217" lon="3.85855">
        <ele>1288</ele>
        <time>1970-01-01T00:16:16.000Z</time>
      </trkpt>
      <trkpt lat="44.35214" lon="3.85843">
        <ele>1288</ele>
        <time>1970-01-01T00:16:17.000Z</time>
      </trkpt>
      <trkpt lat="44.35211" lon="3.85831">
        <ele>1286</ele>
        <time>1970-01-01T00:16:18.000Z</time>
      </trkpt>
      <trkpt lat="44.35207" lon="3.8582">
        <ele>1286</ele>
        <time>1970-01-01T00:16:19.000Z</time>
      </trkpt>
      <trkpt lat="44.35204" lon="3.85808">
        <ele>1286</ele>
        <time>1970-01-01T00:16:20.000Z</time>
      </trkpt>
      <trkpt lat="44.35201" lon="3.85796">
        <ele>1285</ele>
        <time>1970-01-01T00:16:21.000Z</time>
      </trkpt>
      <trkpt lat="44.35198" lon="3.85785">
        <ele>1285</ele>
        <time>1970-01-01T00:16:22.000Z</time>
      </trkpt>
      <trkpt lat="44.35197" lon="3.85782">
        <ele>1285</ele>
        <time>1970-01-01T00:16:23.000Z</time>
      </trkpt>
      <trkpt lat="44.35193" lon="3.8577">
        <ele>1284</ele>
        <time>1970-01-01T00:16:24.000Z</time>
      </trkpt>
      <trkpt lat="44.35189" lon="3.85759">
        <ele>1283</ele>
        <time>1970-01-01T00:16:25.000Z</time>
      </trkpt>
      <trkpt lat="44.35186" lon="3.85747">
        <ele>1282</ele>
        <time>1970-01-01T00:16:26.000Z</time>
      </trkpt>
      <trkpt lat="44.35183" lon="3.85736">
        <ele>1282</ele>
        <time>1970-01-01T00:16:27.000Z</time>
      </trkpt>
      <trkpt lat="44.35179" lon="3.85724">
        <ele>1283</ele>
        <time>1970-01-01T00:16:28.000Z</time>
      </trkpt>
      <trkpt lat="44.35175" lon="3.85713">
        <ele>1283</ele>
        <time>1970-01-01T00:16:29.000Z</time>
      </trkpt>
      <trkpt lat="44.35172" lon="3.85701">
        <ele>1283</ele>
        <time>1970-01-01T00:16:30.000Z</time>
      </trkpt>
      <trkpt lat="44.35168" lon="3.8569">
        <ele>1282</ele>
        <time>1970-01-01T00:16:31.000Z</time>
      </trkpt>
      <trkpt lat="44.35164" lon="3.85678">
        <ele>1275</ele>
        <time>1970-01-01T00:16:32.000Z</time>
      </trkpt>
      <trkpt lat="44.35161" lon="3.85667">
        <ele>1275</ele>
        <time>1970-01-01T00:16:33.000Z</time>
      </trkpt>
      <trkpt lat="44.35159" lon="3.85662">
        <ele>1275</ele>
        <time>1970-01-01T00:16:34.000Z</time>
      </trkpt>
      <trkpt lat="44.35155" lon="3.8565">
        <ele>1275</ele>
        <time>1970-01-01T00:16:35.000Z</time>
      </trkpt>
      <trkpt lat="44.35152" lon="3.85638">
        <ele>1275</ele>
        <time>1970-01-01T00:16:36.000Z</time>
      </trkpt>
      <trkpt lat="44.35149" lon="3.85627">
        <ele>1275</ele>
        <time>1970-01-01T00:16:37.000Z</time>
      </trkpt>
      <trkpt lat="44.35146" lon="3.85615">
        <ele>1275</ele>
        <time>1970-01-01T00:16:38.000Z</time>
      </trkpt>
      <trkpt lat="44.35142" lon="3.85603">
        <ele>1276</ele>
        <time>1970-01-01T00:16:39.000Z</time>
      </trkpt>
      <trkpt lat="44.35139" lon="3.85592">
        <ele>1276</ele>
        <time>1970-01-01T00:16:40.000Z</time>
      </trkpt>
      <trkpt lat="44.35135" lon="3.8558">
        <ele>1277</ele>
        <time>1970-01-01T00:16:41.000Z</time>
      </trkpt>
      <trkpt lat="44.35132" lon="3.85569">
        <ele>1276</ele>
        <time>1970-01-01T00:16:42.000Z</time>
      </trkpt>
      <trkpt lat="44.35128" lon="3.85557">
        <ele>1276</ele>
        <time>1970-01-01T00:16:43.000Z</time>
      </trkpt>
      <trkpt lat="44.35125" lon="3.85545">
        <ele>1276</ele>
        <time>1970-01-01T00:16:44.000Z</time>
      </trkpt>
      <trkpt lat="44.35122" lon="3.85534">
        <ele>1276</ele>
        <time>1970-01-01T00:16:45.000Z</time>
      </trkpt>
      <trkpt lat="44.35121" lon="3.85533">
        <ele>1276</ele>
        <time>1970-01-01T00:16:46.000Z</time>
      </trkpt>
      <trkpt lat="44.35127" lon="3.85523">
        <ele>1276</ele>
        <time>1970-01-01T00:16:47.000Z</time>
      </trkpt>
      <trkpt lat="44.35133" lon="3.85514">
        <ele>1277</ele>
        <time>1970-01-01T00:16:48.000Z</time>
      </trkpt>
      <trkpt lat="44.35139" lon="3.85504">
        <ele>1278</ele>
        <time>1970-01-01T00:16:49.000Z</time>
      </trkpt>
      <trkpt lat="44.35145" lon="3.85495">
        <ele>1276</ele>
        <time>1970-01-01T00:16:50.000Z</time>
      </trkpt>
      <trkpt lat="44.35151" lon="3.85485">
        <ele>1276</ele>
        <time>1970-01-01T00:16:51.000Z</time>
      </trkpt>
      <trkpt lat="44.35157" lon="3.85476">
        <ele>1276</ele>
        <time>1970-01-01T00:16:52.000Z</time>
      </trkpt>
      <trkpt lat="44.35163" lon="3.85466">
        <ele>1275</ele>
        <time>1970-01-01T00:16:53.000Z</time>
      </trkpt>
      <trkpt lat="44.35168" lon="3.85457">
        <ele>1281</ele>
        <time>1970-01-01T00:16:54.000Z</time>
      </trkpt>
      <trkpt lat="44.35175" lon="3.85448">
        <ele>1281</ele>
        <time>1970-01-01T00:16:55.000Z</time>
      </trkpt>
      <trkpt lat="44.3518" lon="3.85438">
        <ele>1280</ele>
        <time>1970-01-01T00:16:56.000Z</time>
      </trkpt>
      <trkpt lat="44.35181" lon="3.85438">
        <ele>1280</ele>
        <time>1970-01-01T00:16:57.000Z</time>
      </trkpt>
      <trkpt lat="44.35185" lon="3.85427">
        <ele>1279</ele>
        <time>1970-01-01T00:16:58.000Z</time>
      </trkpt>
      <trkpt lat="44.3519" lon="3.85417">
        <ele>1279</ele>
        <time>1970-01-01T00:16:59.000Z</time>
      </trkpt>
      <trkpt lat="44.35195" lon="3.85406">
        <ele>1275</ele>
        <time>1970-01-01T00:17:00.000Z</time>
      </trkpt>
      <trkpt lat="44.352" lon="3.85395">
        <ele>1275</ele>
        <time>1970-01-01T00:17:01.000Z</time>
      </trkpt>
      <trkpt lat="44.35204" lon="3.85385">
        <ele>1276</ele>
        <time>1970-01-01T00:17:02.000Z</time>
      </trkpt>
      <trkpt lat="44.35208" lon="3.85378">
        <ele>1276</ele>
        <time>1970-01-01T00:17:03.000Z</time>
      </trkpt>
      <trkpt lat="44.35213" lon="3.85368">
        <ele>1276</ele>
        <time>1970-01-01T00:17:04.000Z</time>
      </trkpt>
      <trkpt lat="44.35218" lon="3.85358">
        <ele>1276</ele>
        <time>1970-01-01T00:17:05.000Z</time>
      </trkpt>
      <trkpt lat="44.35224" lon="3.85348">
        <ele>1276</ele>
        <time>1970-01-01T00:17:06.000Z</time>
      </trkpt>
      <trkpt lat="44.35229" lon="3.85338">
        <ele>1276</ele>
        <time>1970-01-01T00:17:07.000Z</time>
      </trkpt>
      <trkpt lat="44.35234" lon="3.85327">
        <ele>1275</ele>
        <time>1970-01-01T00:17:08.000Z</time>
      </trkpt>
      <trkpt lat="44.3524" lon="3.85317">
        <ele>1275</ele>
        <time>1970-01-01T00:17:09.000Z</time>
      </trkpt>
      <trkpt lat="44.35245" lon="3.85307">
        <ele>1274</ele>
        <time>1970-01-01T00:17:10.000Z</time>
      </trkpt>
      <trkpt lat="44.3525" lon="3.85297">
        <ele>1281</ele>
        <time>1970-01-01T00:17:11.000Z</time>
      </trkpt>
      <trkpt lat="44.35256" lon="3.85287">
        <ele>1281</ele>
        <time>1970-01-01T00:17:12.000Z</time>
      </trkpt>
      <trkpt lat="44.35261" lon="3.85277">
        <ele>1281</ele>
        <time>1970-01-01T00:17:13.000Z</time>
      </trkpt>
      <trkpt lat="44.35266" lon="3.85267">
        <ele>1281</ele>
        <time>1970-01-01T00:17:14.000Z</time>
      </trkpt>
      <trkpt lat="44.35267" lon="3.85266">
        <ele>1281</ele>
        <time>1970-01-01T00:17:15.000Z</time>
      </trkpt>
      <trkpt lat="44.35271" lon="3.85255">
        <ele>1281</ele>
        <time>1970-01-01T00:17:16.000Z</time>
      </trkpt>
      <trkpt lat="44.35276" lon="3.85245">
        <ele>1282</ele>
        <time>1970-01-01T00:17:17.000Z</time>
      </trkpt>
      <trkpt lat="44.35281" lon="3.85234">
        <ele>1282</ele>
        <time>1970-01-01T00:17:18.000Z</time>
      </trkpt>
      <trkpt lat="44.35286" lon="3.85223">
        <ele>1283</ele>
        <time>1970-01-01T00:17:19.000Z</time>
      </trkpt>
      <trkpt lat="44.3529" lon="3.85212">
        <ele>1283</ele>
        <time>1970-01-01T00:17:20.000Z</time>
      </trkpt>
      <trkpt lat="44.35295" lon="3.85202">
        <ele>1283</ele>
        <time>1970-01-01T00:17:21.000Z</time>
      </trkpt>
      <trkpt lat="44.353" lon="3.85191">
        <ele>1284</ele>
        <time>1970-01-01T00:17:22.000Z</time>
      </trkpt>
      <trkpt lat="44.35304" lon="3.8518">
        <ele>1284</ele>
        <time>1970-01-01T00:17:23.000Z</time>
      </trkpt>
      <trkpt lat="44.35309" lon="3.85169">
        <ele>1285</ele>
        <time>1970-01-01T00:17:24.000Z</time>
      </trkpt>
      <trkpt lat="44.35313" lon="3.85159">
        <ele>1286</ele>
        <time>1970-01-01T00:17:25.000Z</time>
      </trkpt>
      <trkpt lat="44.35316" lon="3.85154">
        <ele>1286</ele>
        <time>1970-01-01T00:17:26.000Z</time>
      </trkpt>
      <trkpt lat="44.35324" lon="3.8515">
        <ele>1287</ele>
        <time>1970-01-01T00:17:27.000Z</time>
      </trkpt>
      <trkpt lat="44.35332" lon="3.85146">
        <ele>1287</ele>
        <time>1970-01-01T00:17:28.000Z</time>
      </trkpt>
      <trkpt lat="44.35341" lon="3.85142">
        <ele>1290</ele>
        <time>1970-01-01T00:17:29.000Z</time>
      </trkpt>
      <trkpt lat="44.35349" lon="3.85137">
        <ele>1290</ele>
        <time>1970-01-01T00:17:30.000Z</time>
      </trkpt>
      <trkpt lat="44.35358" lon="3.85133">
        <ele>1290</ele>
        <time>1970-01-01T00:17:31.000Z</time>
      </trkpt>
      <trkpt lat="44.35366" lon="3.85129">
        <ele>1290</ele>
        <time>1970-01-01T00:17:32.000Z</time>
      </trkpt>
      <trkpt lat="44.35375" lon="3.85125">
        <ele>1291</ele>
        <time>1970-01-01T00:17:33.000Z</time>
      </trkpt>
      <trkpt lat="44.35383" lon="3.8512">
        <ele>1291</ele>
        <time>1970-01-01T00:17:34.000Z</time>
      </trkpt>
      <trkpt lat="44.35392" lon="3.85116">
        <ele>1291</ele>
        <time>1970-01-01T00:17:35.000Z</time>
      </trkpt>
      <trkpt lat="44.354" lon="3.85112">
        <ele>1291</ele>
        <time>1970-01-01T00:17:36.000Z</time>
      </trkpt>
      <trkpt lat="44.35408" lon="3.85107">
        <ele>1291</ele>
        <time>1970-01-01T00:17:37.000Z</time>
      </trkpt>
      <trkpt lat="44.35417" lon="3.85103">
        <ele>1292</ele>
        <time>1970-01-01T00:17:38.000Z</time>
      </trkpt>
      <trkpt lat="44.35418" lon="3.85103">
        <ele>1292</ele>
        <time>1970-01-01T00:17:39.000Z</time>
      </trkpt>
      <trkpt lat="44.35427" lon="3.85102">
        <ele>1292</ele>
        <time>1970-01-01T00:17:40.000Z</time>
      </trkpt>
      <trkpt lat="44.35436" lon="3.85101">
        <ele>1292</ele>
        <time>1970-01-01T00:17:41.000Z</time>
      </trkpt>
      <trkpt lat="44.35445" lon="3.851">
        <ele>1291</ele>
        <time>1970-01-01T00:17:42.000Z</time>
      </trkpt>
      <trkpt lat="44.35454" lon="3.85099">
        <ele>1291</ele>
        <time>1970-01-01T00:17:43.000Z</time>
      </trkpt>
      <trkpt lat="44.35463" lon="3.85098">
        <ele>1291</ele>
        <time>1970-01-01T00:17:44.000Z</time>
      </trkpt>
      <trkpt lat="44.35472" lon="3.85097">
        <ele>1291</ele>
        <time>1970-01-01T00:17:45.000Z</time>
      </trkpt>
      <trkpt lat="44.35481" lon="3.85097">
        <ele>1291</ele>
        <time>1970-01-01T00:17:46.000Z</time>
      </trkpt>
      <trkpt lat="44.3549" lon="3.85096">
        <ele>1291</ele>
        <time>1970-01-01T00:17:47.000Z</time>
      </trkpt>
      <trkpt lat="44.35499" lon="3.85095">
        <ele>1291</ele>
        <time>1970-01-01T00:17:48.000Z</time>
      </trkpt>
      <trkpt lat="44.35505" lon="3.85094">
        <ele>1290</ele>
        <time>1970-01-01T00:17:49.000Z</time>
      </trkpt>
      <trkpt lat="44.35513" lon="3.85092">
        <ele>1290</ele>
        <time>1970-01-01T00:17:50.000Z</time>
      </trkpt>
      <trkpt lat="44.35522" lon="3.8509">
        <ele>1290</ele>
        <time>1970-01-01T00:17:51.000Z</time>
      </trkpt>
      <trkpt lat="44.35531" lon="3.85088">
        <ele>1290</ele>
        <time>1970-01-01T00:17:52.000Z</time>
      </trkpt>
      <trkpt lat="44.3554" lon="3.85085">
        <ele>1290</ele>
        <time>1970-01-01T00:17:53.000Z</time>
      </trkpt>
      <trkpt lat="44.35549" lon="3.85083">
        <ele>1286</ele>
        <time>1970-01-01T00:17:54.000Z</time>
      </trkpt>
      <trkpt lat="44.35558" lon="3.85081">
        <ele>1285</ele>
        <time>1970-01-01T00:17:55.000Z</time>
      </trkpt>
      <trkpt lat="44.35566" lon="3.85079">
        <ele>1285</ele>
        <time>1970-01-01T00:17:56.000Z</time>
      </trkpt>
      <trkpt lat="44.35575" lon="3.85077">
        <ele>1285</ele>
        <time>1970-01-01T00:17:57.000Z</time>
      </trkpt>
      <trkpt lat="44.35575" lon="3.85064">
        <ele>1285</ele>
        <time>1970-01-01T00:17:58.000Z</time>
      </trkpt>
      <trkpt lat="44.35576" lon="3.85052">
        <ele>1285</ele>
        <time>1970-01-01T00:17:59.000Z</time>
      </trkpt>
      <trkpt lat="44.35576" lon="3.85039">
        <ele>1284</ele>
        <time>1970-01-01T00:18:00.000Z</time>
      </trkpt>
      <trkpt lat="44.35577" lon="3.85027">
        <ele>1283</ele>
        <time>1970-01-01T00:18:01.000Z</time>
      </trkpt>
      <trkpt lat="44.35577" lon="3.85014">
        <ele>1282</ele>
        <time>1970-01-01T00:18:02.000Z</time>
      </trkpt>
      <trkpt lat="44.35578" lon="3.85002">
        <ele>1281</ele>
        <time>1970-01-01T00:18:03.000Z</time>
      </trkpt>
      <trkpt lat="44.35578" lon="3.84989">
        <ele>1280</ele>
        <time>1970-01-01T00:18:04.000Z</time>
      </trkpt>
      <trkpt lat="44.35579" lon="3.84977">
        <ele>1281</ele>
        <time>1970-01-01T00:18:05.000Z</time>
      </trkpt>
      <trkpt lat="44.35579" lon="3.84964">
        <ele>1281</ele>
        <time>1970-01-01T00:18:06.000Z</time>
      </trkpt>
      <trkpt lat="44.3558" lon="3.84952">
        <ele>1281</ele>
        <time>1970-01-01T00:18:07.000Z</time>
      </trkpt>
      <trkpt lat="44.3558" lon="3.84948">
        <ele>1281</ele>
        <time>1970-01-01T00:18:08.000Z</time>
      </trkpt>
      <trkpt lat="44.35578" lon="3.84936">
        <ele>1281</ele>
        <time>1970-01-01T00:18:09.000Z</time>
      </trkpt>
      <trkpt lat="44.35576" lon="3.84924">
        <ele>1281</ele>
        <time>1970-01-01T00:18:10.000Z</time>
      </trkpt>
      <trkpt lat="44.35574" lon="3.84911">
        <ele>1280</ele>
        <time>1970-01-01T00:18:11.000Z</time>
      </trkpt>
      <trkpt lat="44.35572" lon="3.84899">
        <ele>1279</ele>
        <time>1970-01-01T00:18:12.000Z</time>
      </trkpt>
      <trkpt lat="44.3557" lon="3.84887">
        <ele>1279</ele>
        <time>1970-01-01T00:18:13.000Z</time>
      </trkpt>
      <trkpt lat="44.35567" lon="3.84875">
        <ele>1278</ele>
        <time>1970-01-01T00:18:14.000Z</time>
      </trkpt>
      <trkpt lat="44.35566" lon="3.84862">
        <ele>1278</ele>
        <time>1970-01-01T00:18:15.000Z</time>
      </trkpt>
      <trkpt lat="44.35564" lon="3.84853">
        <ele>1278</ele>
        <time>1970-01-01T00:18:16.000Z</time>
      </trkpt>
      <trkpt lat="44.3556" lon="3.84842">
        <ele>1278</ele>
        <time>1970-01-01T00:18:17.000Z</time>
      </trkpt>
      <trkpt lat="44.35556" lon="3.84831">
        <ele>1278</ele>
        <time>1970-01-01T00:18:18.000Z</time>
      </trkpt>
      <trkpt lat="44.35551" lon="3.8482">
        <ele>1277</ele>
        <time>1970-01-01T00:18:19.000Z</time>
      </trkpt>
      <trkpt lat="44.35548" lon="3.84809">
        <ele>1277</ele>
        <time>1970-01-01T00:18:20.000Z</time>
      </trkpt>
      <trkpt lat="44.35543" lon="3.84798">
        <ele>1277</ele>
        <time>1970-01-01T00:18:21.000Z</time>
      </trkpt>
      <trkpt lat="44.35539" lon="3.84786">
        <ele>1276</ele>
        <time>1970-01-01T00:18:22.000Z</time>
      </trkpt>
      <trkpt lat="44.35535" lon="3.84775">
        <ele>1276</ele>
        <time>1970-01-01T00:18:23.000Z</time>
      </trkpt>
      <trkpt lat="44.35531" lon="3.84764">
        <ele>1276</ele>
        <time>1970-01-01T00:18:24.000Z</time>
      </trkpt>
      <trkpt lat="44.35527" lon="3.84753">
        <ele>1275</ele>
        <time>1970-01-01T00:18:25.000Z</time>
      </trkpt>
      <trkpt lat="44.35526" lon="3.8475">
        <ele>1275</ele>
        <time>1970-01-01T00:18:26.000Z</time>
      </trkpt>
      <trkpt lat="44.35523" lon="3.84738">
        <ele>1278</ele>
        <time>1970-01-01T00:18:27.000Z</time>
      </trkpt>
      <trkpt lat="44.35521" lon="3.84726">
        <ele>1279</ele>
        <time>1970-01-01T00:18:28.000Z</time>
      </trkpt>
      <trkpt lat="44.35518" lon="3.84714">
        <ele>1280</ele>
        <time>1970-01-01T00:18:29.000Z</time>
      </trkpt>
      <trkpt lat="44.35515" lon="3.84703">
        <ele>1280</ele>
        <time>1970-01-01T00:18:30.000Z</time>
      </trkpt>
      <trkpt lat="44.35512" lon="3.84691">
        <ele>1281</ele>
        <time>1970-01-01T00:18:31.000Z</time>
      </trkpt>
      <trkpt lat="44.35509" lon="3.84679">
        <ele>1281</ele>
        <time>1970-01-01T00:18:32.000Z</time>
      </trkpt>
      <trkpt lat="44.35506" lon="3.84667">
        <ele>1281</ele>
        <time>1970-01-01T00:18:33.000Z</time>
      </trkpt>
      <trkpt lat="44.35504" lon="3.84655">
        <ele>1284</ele>
        <time>1970-01-01T00:18:34.000Z</time>
      </trkpt>
      <trkpt lat="44.35501" lon="3.84643">
        <ele>1287</ele>
        <time>1970-01-01T00:18:35.000Z</time>
      </trkpt>
      <trkpt lat="44.35498" lon="3.84631">
        <ele>1280</ele>
        <time>1970-01-01T00:18:36.000Z</time>
      </trkpt>
      <trkpt lat="44.35495" lon="3.84619">
        <ele>1280</ele>
        <time>1970-01-01T00:18:37.000Z</time>
      </trkpt>
      <trkpt lat="44.35494" lon="3.84613">
        <ele>1281</ele>
        <time>1970-01-01T00:18:38.000Z</time>
      </trkpt>
      <trkpt lat="44.35491" lon="3.84601">
        <ele>1283</ele>
        <time>1970-01-01T00:18:39.000Z</time>
      </trkpt>
      <trkpt lat="44.35488" lon="3.84589">
        <ele>1284</ele>
        <time>1970-01-01T00:18:40.000Z</time>
      </trkpt>
      <trkpt lat="44.35485" lon="3.84577">
        <ele>1286</ele>
        <time>1970-01-01T00:18:41.000Z</time>
      </trkpt>
      <trkpt lat="44.35482" lon="3.84565">
        <ele>1285</ele>
        <time>1970-01-01T00:18:42.000Z</time>
      </trkpt>
      <trkpt lat="44.35479" lon="3.84553">
        <ele>1285</ele>
        <time>1970-01-01T00:18:43.000Z</time>
      </trkpt>
      <trkpt lat="44.35476" lon="3.84542">
        <ele>1285</ele>
        <time>1970-01-01T00:18:44.000Z</time>
      </trkpt>
      <trkpt lat="44.35473" lon="3.8453">
        <ele>1285</ele>
        <time>1970-01-01T00:18:45.000Z</time>
      </trkpt>
      <trkpt lat="44.3547" lon="3.84518">
        <ele>1285</ele>
        <time>1970-01-01T00:18:46.000Z</time>
      </trkpt>
      <trkpt lat="44.35467" lon="3.84506">
        <ele>1285</ele>
        <time>1970-01-01T00:18:47.000Z</time>
      </trkpt>
      <trkpt lat="44.35464" lon="3.84494">
        <ele>1287</ele>
        <time>1970-01-01T00:18:48.000Z</time>
      </trkpt>
      <trkpt lat="44.35461" lon="3.84484">
        <ele>1287</ele>
        <time>1970-01-01T00:18:49.000Z</time>
      </trkpt>
      <trkpt lat="44.35452" lon="3.84482">
        <ele>1286</ele>
        <time>1970-01-01T00:18:50.000Z</time>
      </trkpt>
      <trkpt lat="44.35443" lon="3.8448">
        <ele>1286</ele>
        <time>1970-01-01T00:18:51.000Z</time>
      </trkpt>
      <trkpt lat="44.35435" lon="3.84478">
        <ele>1285</ele>
        <time>1970-01-01T00:18:52.000Z</time>
      </trkpt>
      <trkpt lat="44.35426" lon="3.84477">
        <ele>1285</ele>
        <time>1970-01-01T00:18:53.000Z</time>
      </trkpt>
      <trkpt lat="44.35417" lon="3.84475">
        <ele>1285</ele>
        <time>1970-01-01T00:18:54.000Z</time>
      </trkpt>
      <trkpt lat="44.35408" lon="3.84473">
        <ele>1283</ele>
        <time>1970-01-01T00:18:55.000Z</time>
      </trkpt>
      <trkpt lat="44.35399" lon="3.84471">
        <ele>1283</ele>
        <time>1970-01-01T00:18:56.000Z</time>
      </trkpt>
      <trkpt lat="44.3539" lon="3.8447">
        <ele>1283</ele>
        <time>1970-01-01T00:18:57.000Z</time>
      </trkpt>
      <trkpt lat="44.35381" lon="3.84468">
        <ele>1283</ele>
        <time>1970-01-01T00:18:58.000Z</time>
      </trkpt>
      <trkpt lat="44.35375" lon="3.84467">
        <ele>1283</ele>
        <time>1970-01-01T00:18:59.000Z</time>
      </trkpt>
      <trkpt lat="44.35366" lon="3.84463">
        <ele>1283</ele>
        <time>1970-01-01T00:19:00.000Z</time>
      </trkpt>
      <trkpt lat="44.35358" lon="3.84459">
        <ele>1283</ele>
        <time>1970-01-01T00:19:01.000Z</time>
      </trkpt>
      <trkpt lat="44.35349" lon="3.84455">
        <ele>1283</ele>
        <time>1970-01-01T00:19:02.000Z</time>
      </trkpt>
      <trkpt lat="44.35341" lon="3.84451">
        <ele>1283</ele>
        <time>1970-01-01T00:19:03.000Z</time>
      </trkpt>
      <trkpt lat="44.35332" lon="3.84447">
        <ele>1283</ele>
        <time>1970-01-01T00:19:04.000Z</time>
      </trkpt>
      <trkpt lat="44.35324" lon="3.84443">
        <ele>1283</ele>
        <time>1970-01-01T00:19:05.000Z</time>
      </trkpt>
      <trkpt lat="44.35315" lon="3.84439">
        <ele>1284</ele>
        <time>1970-01-01T00:19:06.000Z</time>
      </trkpt>
      <trkpt lat="44.35307" lon="3.84435">
        <ele>1284</ele>
        <time>1970-01-01T00:19:07.000Z</time>
      </trkpt>
      <trkpt lat="44.35299" lon="3.84432">
        <ele>1284</ele>
        <time>1970-01-01T00:19:08.000Z</time>
      </trkpt>
      <trkpt lat="44.35291" lon="3.84428">
        <ele>1284</ele>
        <time>1970-01-01T00:19:09.000Z</time>
      </trkpt>
      <trkpt lat="44.35283" lon="3.84424">
        <ele>1284</ele>
        <time>1970-01-01T00:19:10.000Z</time>
      </trkpt>
      <trkpt lat="44.35274" lon="3.8442">
        <ele>1284</ele>
        <time>1970-01-01T00:19:11.000Z</time>
      </trkpt>
      <trkpt lat="44.35265" lon="3.84416">
        <ele>1284</ele>
        <time>1970-01-01T00:19:12.000Z</time>
      </trkpt>
      <trkpt lat="44.35257" lon="3.84412">
        <ele>1284</ele>
        <time>1970-01-01T00:19:13.000Z</time>
      </trkpt>
      <trkpt lat="44.35248" lon="3.84408">
        <ele>1283</ele>
        <time>1970-01-01T00:19:14.000Z</time>
      </trkpt>
      <trkpt lat="44.35246" lon="3.84406">
        <ele>1282</ele>
        <time>1970-01-01T00:19:15.000Z</time>
      </trkpt>
      <trkpt lat="44.35242" lon="3.84395">
        <ele>1281</ele>
        <time>1970-01-01T00:19:16.000Z</time>
      </trkpt>
      <trkpt lat="44.35238" lon="3.84383">
        <ele>1280</ele>
        <time>1970-01-01T00:19:17.000Z</time>
      </trkpt>
      <trkpt lat="44.35234" lon="3.84372">
        <ele>1280</ele>
        <time>1970-01-01T00:19:18.000Z</time>
      </trkpt>
      <trkpt lat="44.35231" lon="3.8436">
        <ele>1280</ele>
        <time>1970-01-01T00:19:19.000Z</time>
      </trkpt>
      <trkpt lat="44.35227" lon="3.84349">
        <ele>1280</ele>
        <time>1970-01-01T00:19:20.000Z</time>
      </trkpt>
      <trkpt lat="44.35224" lon="3.84338">
        <ele>1280</ele>
        <time>1970-01-01T00:19:21.000Z</time>
      </trkpt>
      <trkpt lat="44.35227" lon="3.84326">
        <ele>1277</ele>
        <time>1970-01-01T00:19:22.000Z</time>
      </trkpt>
      <trkpt lat="44.35231" lon="3.84315">
        <ele>1276</ele>
        <time>1970-01-01T00:19:23.000Z</time>
      </trkpt>
      <trkpt lat="44.35234" lon="3.84303">
        <ele>1276</ele>
        <time>1970-01-01T00:19:24.000Z</time>
      </trkpt>
      <trkpt lat="44.35238" lon="3.84292">
        <ele>1275</ele>
        <time>1970-01-01T00:19:25.000Z</time>
      </trkpt>
      <trkpt lat="44.35242" lon="3.8428">
        <ele>1275</ele>
        <time>1970-01-01T00:19:26.000Z</time>
      </trkpt>
      <trkpt lat="44.35246" lon="3.84269">
        <ele>1275</ele>
        <time>1970-01-01T00:19:27.000Z</time>
      </trkpt>
      <trkpt lat="44.35249" lon="3.84257">
        <ele>1275</ele>
        <time>1970-01-01T00:19:28.000Z</time>
      </trkpt>
      <trkpt lat="44.35253" lon="3.84246">
        <ele>1276</ele>
        <time>1970-01-01T00:19:29.000Z</time>
      </trkpt>
      <trkpt lat="44.35256" lon="3.84234">
        <ele>1275</ele>
        <time>1970-01-01T00:19:30.000Z</time>
      </trkpt>
      <trkpt lat="44.3526" lon="3.84223">
        <ele>1275</ele>
        <time>1970-01-01T00:19:31.000Z</time>
      </trkpt>
      <trkpt lat="44.35262" lon="3.84217">
        <ele>1275</ele>
        <time>1970-01-01T00:19:32.000Z</time>
      </trkpt>
      <trkpt lat="44.35266" lon="3.84207">
        <ele>1274</ele>
        <time>1970-01-01T00:19:33.000Z</time>
      </trkpt>
      <trkpt lat="44.35271" lon="3.84196">
        <ele>1273</ele>
        <time>1970-01-01T00:19:34.000Z</time>
      </trkpt>
      <trkpt lat="44.35276" lon="3.84186">
        <ele>1273</ele>
        <time>1970-01-01T00:19:35.000Z</time>
      </trkpt>
      <trkpt lat="44.35281" lon="3.84175">
        <ele>1273</ele>
        <time>1970-01-01T00:19:36.000Z</time>
      </trkpt>
      <trkpt lat="44.35286" lon="3.84165">
        <ele>1268</ele>
        <time>1970-01-01T00:19:37.000Z</time>
      </trkpt>
      <trkpt lat="44.35291" lon="3.84154">
        <ele>1268</ele>
        <time>1970-01-01T00:19:38.000Z</time>
      </trkpt>
      <trkpt lat="44.35296" lon="3.84144">
        <ele>1268</ele>
        <time>1970-01-01T00:19:39.000Z</time>
      </trkpt>
      <trkpt lat="44.35301" lon="3.84133">
        <ele>1268</ele>
        <time>1970-01-01T00:19:40.000Z</time>
      </trkpt>
      <trkpt lat="44.35306" lon="3.84123">
        <ele>1268</ele>
        <time>1970-01-01T00:19:41.000Z</time>
      </trkpt>
      <trkpt lat="44.35311" lon="3.84112">
        <ele>1268</ele>
        <time>1970-01-01T00:19:42.000Z</time>
      </trkpt>
      <trkpt lat="44.35316" lon="3.84102">
        <ele>1268</ele>
        <time>1970-01-01T00:19:43.000Z</time>
      </trkpt>
      <trkpt lat="44.35321" lon="3.84091">
        <ele>1269</ele>
        <time>1970-01-01T00:19:44.000Z</time>
      </trkpt>
      <trkpt lat="44.35326" lon="3.84081">
        <ele>1268</ele>
        <time>1970-01-01T00:19:45.000Z</time>
      </trkpt>
      <trkpt lat="44.35326" lon="3.8408">
        <ele>1268</ele>
        <time>1970-01-01T00:19:46.000Z</time>
      </trkpt>
      <trkpt lat="44.35332" lon="3.8407">
        <ele>1267</ele>
        <time>1970-01-01T00:19:47.000Z</time>
      </trkpt>
      <trkpt lat="44.35338" lon="3.84061">
        <ele>1269</ele>
        <time>1970-01-01T00:19:48.000Z</time>
      </trkpt>
      <trkpt lat="44.35344" lon="3.84051">
        <ele>1269</ele>
        <time>1970-01-01T00:19:49.000Z</time>
      </trkpt>
      <trkpt lat="44.35348" lon="3.84045">
        <ele>1269</ele>
        <time>1970-01-01T00:19:50.000Z</time>
      </trkpt>
      <trkpt lat="44.35344" lon="3.84034">
        <ele>1268</ele>
        <time>1970-01-01T00:19:51.000Z</time>
      </trkpt>
      <trkpt lat="44.35339" lon="3.84023">
        <ele>1267</ele>
        <time>1970-01-01T00:19:52.000Z</time>
      </trkpt>
      <trkpt lat="44.35335" lon="3.84012">
        <ele>1266</ele>
        <time>1970-01-01T00:19:53.000Z</time>
      </trkpt>
      <trkpt lat="44.35331" lon="3.84001">
        <ele>1264</ele>
        <time>1970-01-01T00:19:54.000Z</time>
      </trkpt>
      <trkpt lat="44.35326" lon="3.8399">
        <ele>1263</ele>
        <time>1970-01-01T00:19:55.000Z</time>
      </trkpt>
      <trkpt lat="44.35322" lon="3.83979">
        <ele>1262</ele>
        <time>1970-01-01T00:19:56.000Z</time>
      </trkpt>
      <trkpt lat="44.35318" lon="3.83968">
        <ele>1262</ele>
        <time>1970-01-01T00:19:57.000Z</time>
      </trkpt>
      <trkpt lat="44.35313" lon="3.83957">
        <ele>1261</ele>
        <time>1970-01-01T00:19:58.000Z</time>
      </trkpt>
      <trkpt lat="44.35309" lon="3.83946">
        <ele>1261</ele>
        <time>1970-01-01T00:19:59.000Z</time>
      </trkpt>
      <trkpt lat="44.35305" lon="3.83935">
        <ele>1261</ele>
        <time>1970-01-01T00:20:00.000Z</time>
      </trkpt>
      <trkpt lat="44.353" lon="3.83924">
        <ele>1261</ele>
        <time>1970-01-01T00:20:01.000Z</time>
      </trkpt>
      <trkpt lat="44.35296" lon="3.83913">
        <ele>1258</ele>
        <time>1970-01-01T00:20:02.000Z</time>
      </trkpt>
      <trkpt lat="44.35291" lon="3.83902">
        <ele>1258</ele>
        <time>1970-01-01T00:20:03.000Z</time>
      </trkpt>
      <trkpt lat="44.35287" lon="3.83891">
        <ele>1258</ele>
        <time>1970-01-01T00:20:04.000Z</time>
      </trkpt>
      <trkpt lat="44.35283" lon="3.83882">
        <ele>1258</ele>
        <time>1970-01-01T00:20:05.000Z</time>
      </trkpt>
      <trkpt lat="44.3528" lon="3.8387">
        <ele>1257</ele>
        <time>1970-01-01T00:20:06.000Z</time>
      </trkpt>
      <trkpt lat="44.35278" lon="3.83858">
        <ele>1257</ele>
        <time>1970-01-01T00:20:07.000Z</time>
      </trkpt>
      <trkpt lat="44.35275" lon="3.83846">
        <ele>1256</ele>
        <time>1970-01-01T00:20:08.000Z</time>
      </trkpt>
      <trkpt lat="44.35272" lon="3.83834">
        <ele>1256</ele>
        <time>1970-01-01T00:20:09.000Z</time>
      </trkpt>
      <trkpt lat="44.35269" lon="3.83822">
        <ele>1255</ele>
        <time>1970-01-01T00:20:10.000Z</time>
      </trkpt>
      <trkpt lat="44.35266" lon="3.8381">
        <ele>1255</ele>
        <time>1970-01-01T00:20:11.000Z</time>
      </trkpt>
      <trkpt lat="44.35263" lon="3.83799">
        <ele>1255</ele>
        <time>1970-01-01T00:20:12.000Z</time>
      </trkpt>
      <trkpt lat="44.3526" lon="3.83787">
        <ele>1255</ele>
        <time>1970-01-01T00:20:13.000Z</time>
      </trkpt>
      <trkpt lat="44.35257" lon="3.83775">
        <ele>1254</ele>
        <time>1970-01-01T00:20:14.000Z</time>
      </trkpt>
      <trkpt lat="44.35256" lon="3.8377">
        <ele>1254</ele>
        <time>1970-01-01T00:20:15.000Z</time>
      </trkpt>
      <trkpt lat="44.35265" lon="3.83766">
        <ele>1254</ele>
        <time>1970-01-01T00:20:16.000Z</time>
      </trkpt>
      <trkpt lat="44.35273" lon="3.83761">
        <ele>1255</ele>
        <time>1970-01-01T00:20:17.000Z</time>
      </trkpt>
      <trkpt lat="44.35281" lon="3.83757">
        <ele>1255</ele>
        <time>1970-01-01T00:20:18.000Z</time>
      </trkpt>
      <trkpt lat="44.3529" lon="3.83752">
        <ele>1256</ele>
        <time>1970-01-01T00:20:19.000Z</time>
      </trkpt>
      <trkpt lat="44.35298" lon="3.83748">
        <ele>1256</ele>
        <time>1970-01-01T00:20:20.000Z</time>
      </trkpt>
      <trkpt lat="44.35305" lon="3.83744">
        <ele>1257</ele>
        <time>1970-01-01T00:20:21.000Z</time>
      </trkpt>
      <trkpt lat="44.35314" lon="3.83745">
        <ele>1258</ele>
        <time>1970-01-01T00:20:22.000Z</time>
      </trkpt>
      <trkpt lat="44.35323" lon="3.83746">
        <ele>1259</ele>
        <time>1970-01-01T00:20:23.000Z</time>
      </trkpt>
      <trkpt lat="44.35332" lon="3.83746">
        <ele>1261</ele>
        <time>1970-01-01T00:20:24.000Z</time>
      </trkpt>
      <trkpt lat="44.35341" lon="3.83747">
        <ele>1263</ele>
        <time>1970-01-01T00:20:25.000Z</time>
      </trkpt>
      <trkpt lat="44.3535" lon="3.83748">
        <ele>1264</ele>
        <time>1970-01-01T00:20:26.000Z</time>
      </trkpt>
      <trkpt lat="44.35358" lon="3.83748">
        <ele>1265</ele>
        <time>1970-01-01T00:20:27.000Z</time>
      </trkpt>
      <trkpt lat="44.35368" lon="3.83749">
        <ele>1265</ele>
        <time>1970-01-01T00:20:28.000Z</time>
      </trkpt>
      <trkpt lat="44.35376" lon="3.8375">
        <ele>1266</ele>
        <time>1970-01-01T00:20:29.000Z</time>
      </trkpt>
      <trkpt lat="44.35386" lon="3.83751">
        <ele>1266</ele>
        <time>1970-01-01T00:20:30.000Z</time>
      </trkpt>
      <trkpt lat="44.35394" lon="3.83751">
        <ele>1267</ele>
        <time>1970-01-01T00:20:31.000Z</time>
      </trkpt>
      <trkpt lat="44.35403" lon="3.83752">
        <ele>1268</ele>
        <time>1970-01-01T00:20:32.000Z</time>
      </trkpt>
      <trkpt lat="44.35412" lon="3.83753">
        <ele>1270</ele>
        <time>1970-01-01T00:20:33.000Z</time>
      </trkpt>
      <trkpt lat="44.35418" lon="3.83753">
        <ele>1271</ele>
        <time>1970-01-01T00:20:34.000Z</time>
      </trkpt>
      <trkpt lat="44.35427" lon="3.8375">
        <ele>1272</ele>
        <time>1970-01-01T00:20:35.000Z</time>
      </trkpt>
      <trkpt lat="44.35435" lon="3.83747">
        <ele>1275</ele>
        <time>1970-01-01T00:20:36.000Z</time>
      </trkpt>
      <trkpt lat="44.35444" lon="3.83745">
        <ele>1277</ele>
        <time>1970-01-01T00:20:37.000Z</time>
      </trkpt>
      <trkpt lat="44.35453" lon="3.83742">
        <ele>1278</ele>
        <time>1970-01-01T00:20:38.000Z</time>
      </trkpt>
      <trkpt lat="44.35462" lon="3.83739">
        <ele>1279</ele>
        <time>1970-01-01T00:20:39.000Z</time>
      </trkpt>
      <trkpt lat="44.35471" lon="3.83736">
        <ele>1280</ele>
        <time>1970-01-01T00:20:40.000Z</time>
      </trkpt>
      <trkpt lat="44.35479" lon="3.83733">
        <ele>1281</ele>
        <time>1970-01-01T00:20:41.000Z</time>
      </trkpt>
      <trkpt lat="44.35488" lon="3.83731">
        <ele>1282</ele>
        <time>1970-01-01T00:20:42.000Z</time>
      </trkpt>
      <trkpt lat="44.35497" lon="3.83728">
        <ele>1282</ele>
        <time>1970-01-01T00:20:43.000Z</time>
      </trkpt>
      <trkpt lat="44.35499" lon="3.83727">
        <ele>1282</ele>
        <time>1970-01-01T00:20:44.000Z</time>
      </trkpt>
      <trkpt lat="44.35506" lon="3.8372">
        <ele>1289</ele>
        <time>1970-01-01T00:20:45.000Z</time>
      </trkpt>
      <trkpt lat="44.35514" lon="3.83713">
        <ele>1290</ele>
        <time>1970-01-01T00:20:46.000Z</time>
      </trkpt>
      <trkpt lat="44.35521" lon="3.83705">
        <ele>1290</ele>
        <time>1970-01-01T00:20:47.000Z</time>
      </trkpt>
      <trkpt lat="44.35528" lon="3.83698">
        <ele>1291</ele>
        <time>1970-01-01T00:20:48.000Z</time>
      </trkpt>
      <trkpt lat="44.35536" lon="3.83691">
        <ele>1291</ele>
        <time>1970-01-01T00:20:49.000Z</time>
      </trkpt>
      <trkpt lat="44.35543" lon="3.83683">
        <ele>1292</ele>
        <time>1970-01-01T00:20:50.000Z</time>
      </trkpt>
      <trkpt lat="44.3555" lon="3.83676">
        <ele>1293</ele>
        <time>1970-01-01T00:20:51.000Z</time>
      </trkpt>
      <trkpt lat="44.35558" lon="3.83669">
        <ele>1294</ele>
        <time>1970-01-01T00:20:52.000Z</time>
      </trkpt>
      <trkpt lat="44.35565" lon="3.83661">
        <ele>1297</ele>
        <time>1970-01-01T00:20:53.000Z</time>
      </trkpt>
      <trkpt lat="44.35572" lon="3.83654">
        <ele>1297</ele>
        <time>1970-01-01T00:20:54.000Z</time>
      </trkpt>
      <trkpt lat="44.35579" lon="3.83647">
        <ele>1297</ele>
        <time>1970-01-01T00:20:55.000Z</time>
      </trkpt>
      <trkpt lat="44.35585" lon="3.83641">
        <ele>1302</ele>
        <time>1970-01-01T00:20:56.000Z</time>
      </trkpt>
      <trkpt lat="44.35593" lon="3.83634">
        <ele>1302</ele>
        <time>1970-01-01T00:20:57.000Z</time>
      </trkpt>
      <trkpt lat="44.356" lon="3.83627">
        <ele>1303</ele>
        <time>1970-01-01T00:20:58.000Z</time>
      </trkpt>
      <trkpt lat="44.35608" lon="3.8362">
        <ele>1303</ele>
        <time>1970-01-01T00:20:59.000Z</time>
      </trkpt>
      <trkpt lat="44.35615" lon="3.83613">
        <ele>1303</ele>
        <time>1970-01-01T00:21:00.000Z</time>
      </trkpt>
      <trkpt lat="44.35623" lon="3.83606">
        <ele>1304</ele>
        <time>1970-01-01T00:21:01.000Z</time>
      </trkpt>
      <trkpt lat="44.3563" lon="3.83599">
        <ele>1304</ele>
        <time>1970-01-01T00:21:02.000Z</time>
      </trkpt>
      <trkpt lat="44.35638" lon="3.83592">
        <ele>1305</ele>
        <time>1970-01-01T00:21:03.000Z</time>
      </trkpt>
      <trkpt lat="44.35645" lon="3.83585">
        <ele>1305</ele>
        <time>1970-01-01T00:21:04.000Z</time>
      </trkpt>
      <trkpt lat="44.35653" lon="3.83578">
        <ele>1308</ele>
        <time>1970-01-01T00:21:05.000Z</time>
      </trkpt>
      <trkpt lat="44.3566" lon="3.83571">
        <ele>1308</ele>
        <time>1970-01-01T00:21:06.000Z</time>
      </trkpt>
      <trkpt lat="44.35667" lon="3.83564">
        <ele>1312</ele>
        <time>1970-01-01T00:21:07.000Z</time>
      </trkpt>
      <trkpt lat="44.35675" lon="3.83557">
        <ele>1313</ele>
        <time>1970-01-01T00:21:08.000Z</time>
      </trkpt>
      <trkpt lat="44.35683" lon="3.8355">
        <ele>1314</ele>
        <time>1970-01-01T00:21:09.000Z</time>
      </trkpt>
      <trkpt lat="44.3569" lon="3.83543">
        <ele>1314</ele>
        <time>1970-01-01T00:21:10.000Z</time>
      </trkpt>
      <trkpt lat="44.35698" lon="3.83536">
        <ele>1315</ele>
        <time>1970-01-01T00:21:11.000Z</time>
      </trkpt>
      <trkpt lat="44.35705" lon="3.83529">
        <ele>1316</ele>
        <time>1970-01-01T00:21:12.000Z</time>
      </trkpt>
      <trkpt lat="44.35712" lon="3.83522">
        <ele>1316</ele>
        <time>1970-01-01T00:21:13.000Z</time>
      </trkpt>
      <trkpt lat="44.3572" lon="3.83515">
        <ele>1317</ele>
        <time>1970-01-01T00:21:14.000Z</time>
      </trkpt>
      <trkpt lat="44.35727" lon="3.83508">
        <ele>1318</ele>
        <time>1970-01-01T00:21:15.000Z</time>
      </trkpt>
      <trkpt lat="44.35735" lon="3.83501">
        <ele>1319</ele>
        <time>1970-01-01T00:21:16.000Z</time>
      </trkpt>
      <trkpt lat="44.35742" lon="3.83494">
        <ele>1322</ele>
        <time>1970-01-01T00:21:17.000Z</time>
      </trkpt>
      <trkpt lat="44.3575" lon="3.83488">
        <ele>1322</ele>
        <time>1970-01-01T00:21:18.000Z</time>
      </trkpt>
      <trkpt lat="44.35757" lon="3.83481">
        <ele>1327</ele>
        <time>1970-01-01T00:21:19.000Z</time>
      </trkpt>
      <trkpt lat="44.35765" lon="3.83474">
        <ele>1329</ele>
        <time>1970-01-01T00:21:20.000Z</time>
      </trkpt>
      <trkpt lat="44.35772" lon="3.83467">
        <ele>1330</ele>
        <time>1970-01-01T00:21:21.000Z</time>
      </trkpt>
      <trkpt lat="44.3578" lon="3.8346">
        <ele>1330</ele>
        <time>1970-01-01T00:21:22.000Z</time>
      </trkpt>
      <trkpt lat="44.35787" lon="3.83453">
        <ele>1331</ele>
        <time>1970-01-01T00:21:23.000Z</time>
      </trkpt>
      <trkpt lat="44.35794" lon="3.83446">
        <ele>1332</ele>
        <time>1970-01-01T00:21:24.000Z</time>
      </trkpt>
      <trkpt lat="44.35802" lon="3.83439">
        <ele>1333</ele>
        <time>1970-01-01T00:21:25.000Z</time>
      </trkpt>
      <trkpt lat="44.35807" lon="3.83435">
        <ele>1333</ele>
        <time>1970-01-01T00:21:26.000Z</time>
      </trkpt>
      <trkpt lat="44.35814" lon="3.83427">
        <ele>1334</ele>
        <time>1970-01-01T00:21:27.000Z</time>
      </trkpt>
      <trkpt lat="44.35821" lon="3.8342">
        <ele>1335</ele>
        <time>1970-01-01T00:21:28.000Z</time>
      </trkpt>
      <trkpt lat="44.35828" lon="3.83412">
        <ele>1338</ele>
        <time>1970-01-01T00:21:29.000Z</time>
      </trkpt>
      <trkpt lat="44.35835" lon="3.83404">
        <ele>1341</ele>
        <time>1970-01-01T00:21:30.000Z</time>
      </trkpt>
      <trkpt lat="44.35843" lon="3.83397">
        <ele>1343</ele>
        <time>1970-01-01T00:21:31.000Z</time>
      </trkpt>
      <trkpt lat="44.3585" lon="3.83389">
        <ele>1344</ele>
        <time>1970-01-01T00:21:32.000Z</time>
      </trkpt>
      <trkpt lat="44.35857" lon="3.83382">
        <ele>1345</ele>
        <time>1970-01-01T00:21:33.000Z</time>
      </trkpt>
      <trkpt lat="44.35864" lon="3.83374">
        <ele>1346</ele>
        <time>1970-01-01T00:21:34.000Z</time>
      </trkpt>
      <trkpt lat="44.35871" lon="3.83366">
        <ele>1346</ele>
        <time>1970-01-01T00:21:35.000Z</time>
      </trkpt>
      <trkpt lat="44.35878" lon="3.83359">
        <ele>1347</ele>
        <time>1970-01-01T00:21:36.000Z</time>
      </trkpt>
      <trkpt lat="44.35885" lon="3.83351">
        <ele>1347</ele>
        <time>1970-01-01T00:21:37.000Z</time>
      </trkpt>
      <trkpt lat="44.35888" lon="3.83349">
        <ele>1347</ele>
        <time>1970-01-01T00:21:38.000Z</time>
      </trkpt>
      <trkpt lat="44.35895" lon="3.83341">
        <ele>1348</ele>
        <time>1970-01-01T00:21:39.000Z</time>
      </trkpt>
      <trkpt lat="44.35902" lon="3.83333">
        <ele>1347</ele>
        <time>1970-01-01T00:21:40.000Z</time>
      </trkpt>
      <trkpt lat="44.35909" lon="3.83325">
        <ele>1348</ele>
        <time>1970-01-01T00:21:41.000Z</time>
      </trkpt>
      <trkpt lat="44.35915" lon="3.83317">
        <ele>1347</ele>
        <time>1970-01-01T00:21:42.000Z</time>
      </trkpt>
      <trkpt lat="44.35922" lon="3.83309">
        <ele>1349</ele>
        <time>1970-01-01T00:21:43.000Z</time>
      </trkpt>
      <trkpt lat="44.35929" lon="3.83301">
        <ele>1348</ele>
        <time>1970-01-01T00:21:44.000Z</time>
      </trkpt>
      <trkpt lat="44.35936" lon="3.83293">
        <ele>1348</ele>
        <time>1970-01-01T00:21:45.000Z</time>
      </trkpt>
      <trkpt lat="44.35943" lon="3.83285">
        <ele>1348</ele>
        <time>1970-01-01T00:21:46.000Z</time>
      </trkpt>
      <trkpt lat="44.3595" lon="3.83277">
        <ele>1347</ele>
        <time>1970-01-01T00:21:47.000Z</time>
      </trkpt>
      <trkpt lat="44.35957" lon="3.83269">
        <ele>1348</ele>
        <time>1970-01-01T00:21:48.000Z</time>
      </trkpt>
      <trkpt lat="44.35964" lon="3.83261">
        <ele>1348</ele>
        <time>1970-01-01T00:21:49.000Z</time>
      </trkpt>
      <trkpt lat="44.35971" lon="3.83253">
        <ele>1348</ele>
        <time>1970-01-01T00:21:50.000Z</time>
      </trkpt>
      <trkpt lat="44.35978" lon="3.83245">
        <ele>1344</ele>
        <time>1970-01-01T00:21:51.000Z</time>
      </trkpt>
      <trkpt lat="44.35985" lon="3.83237">
        <ele>1345</ele>
        <time>1970-01-01T00:21:52.000Z</time>
      </trkpt>
      <trkpt lat="44.35992" lon="3.83229">
        <ele>1345</ele>
        <time>1970-01-01T00:21:53.000Z</time>
      </trkpt>
      <trkpt lat="44.35999" lon="3.83221">
        <ele>1344</ele>
        <time>1970-01-01T00:21:54.000Z</time>
      </trkpt>
      <trkpt lat="44.36005" lon="3.83213">
        <ele>1351</ele>
        <time>1970-01-01T00:21:55.000Z</time>
      </trkpt>
      <trkpt lat="44.36012" lon="3.83205">
        <ele>1351</ele>
        <time>1970-01-01T00:21:56.000Z</time>
      </trkpt>
      <trkpt lat="44.3602" lon="3.83197">
        <ele>1351</ele>
        <time>1970-01-01T00:21:57.000Z</time>
      </trkpt>
      <trkpt lat="44.36026" lon="3.83189">
        <ele>1351</ele>
        <time>1970-01-01T00:21:58.000Z</time>
      </trkpt>
      <trkpt lat="44.36033" lon="3.83181">
        <ele>1352</ele>
        <time>1970-01-01T00:21:59.000Z</time>
      </trkpt>
      <trkpt lat="44.3604" lon="3.83173">
        <ele>1353</ele>
        <time>1970-01-01T00:22:00.000Z</time>
      </trkpt>
      <trkpt lat="44.36047" lon="3.83165">
        <ele>1351</ele>
        <time>1970-01-01T00:22:01.000Z</time>
      </trkpt>
      <trkpt lat="44.36054" lon="3.83157">
        <ele>1352</ele>
        <time>1970-01-01T00:22:02.000Z</time>
      </trkpt>
      <trkpt lat="44.36061" lon="3.83149">
        <ele>1352</ele>
        <time>1970-01-01T00:22:03.000Z</time>
      </trkpt>
      <trkpt lat="44.36068" lon="3.83141">
        <ele>1352</ele>
        <time>1970-01-01T00:22:04.000Z</time>
      </trkpt>
      <trkpt lat="44.36075" lon="3.83133">
        <ele>1352</ele>
        <time>1970-01-01T00:22:05.000Z</time>
      </trkpt>
      <trkpt lat="44.36082" lon="3.83125">
        <ele>1352</ele>
        <time>1970-01-01T00:22:06.000Z</time>
      </trkpt>
      <trkpt lat="44.36089" lon="3.83117">
        <ele>1359</ele>
        <time>1970-01-01T00:22:07.000Z</time>
      </trkpt>
      <trkpt lat="44.36095" lon="3.83108">
        <ele>1359</ele>
        <time>1970-01-01T00:22:08.000Z</time>
      </trkpt>
      <trkpt lat="44.36102" lon="3.83099">
        <ele>1358</ele>
        <time>1970-01-01T00:22:09.000Z</time>
      </trkpt>
      <trkpt lat="44.36108" lon="3.8309">
        <ele>1359</ele>
        <time>1970-01-01T00:22:10.000Z</time>
      </trkpt>
      <trkpt lat="44.36115" lon="3.83082">
        <ele>1356</ele>
        <time>1970-01-01T00:22:11.000Z</time>
      </trkpt>
      <trkpt lat="44.36121" lon="3.83073">
        <ele>1357</ele>
        <time>1970-01-01T00:22:12.000Z</time>
      </trkpt>
      <trkpt lat="44.36127" lon="3.83064">
        <ele>1357</ele>
        <time>1970-01-01T00:22:13.000Z</time>
      </trkpt>
      <trkpt lat="44.36134" lon="3.83055">
        <ele>1357</ele>
        <time>1970-01-01T00:22:14.000Z</time>
      </trkpt>
      <trkpt lat="44.3614" lon="3.83047">
        <ele>1357</ele>
        <time>1970-01-01T00:22:15.000Z</time>
      </trkpt>
      <trkpt lat="44.36147" lon="3.83038">
        <ele>1357</ele>
        <time>1970-01-01T00:22:16.000Z</time>
      </trkpt>
      <trkpt lat="44.36152" lon="3.83031">
        <ele>1357</ele>
        <time>1970-01-01T00:22:17.000Z</time>
      </trkpt>
      <trkpt lat="44.3616" lon="3.83024">
        <ele>1357</ele>
        <time>1970-01-01T00:22:18.000Z</time>
      </trkpt>
      <trkpt lat="44.36168" lon="3.83018">
        <ele>1361</ele>
        <time>1970-01-01T00:22:19.000Z</time>
      </trkpt>
      <trkpt lat="44.36175" lon="3.83011">
        <ele>1361</ele>
        <time>1970-01-01T00:22:20.000Z</time>
      </trkpt>
      <trkpt lat="44.36183" lon="3.83005">
        <ele>1361</ele>
        <time>1970-01-01T00:22:21.000Z</time>
      </trkpt>
      <trkpt lat="44.36191" lon="3.82998">
        <ele>1359</ele>
        <time>1970-01-01T00:22:22.000Z</time>
      </trkpt>
      <trkpt lat="44.36198" lon="3.82992">
        <ele>1360</ele>
        <time>1970-01-01T00:22:23.000Z</time>
      </trkpt>
      <trkpt lat="44.36206" lon="3.82985">
        <ele>1360</ele>
        <time>1970-01-01T00:22:24.000Z</time>
      </trkpt>
      <trkpt lat="44.36214" lon="3.82979">
        <ele>1360</ele>
        <time>1970-01-01T00:22:25.000Z</time>
      </trkpt>
      <trkpt lat="44.36222" lon="3.82972">
        <ele>1360</ele>
        <time>1970-01-01T00:22:26.000Z</time>
      </trkpt>
      <trkpt lat="44.36229" lon="3.82966">
        <ele>1360</ele>
        <time>1970-01-01T00:22:27.000Z</time>
      </trkpt>
      <trkpt lat="44.36237" lon="3.8296">
        <ele>1360</ele>
        <time>1970-01-01T00:22:28.000Z</time>
      </trkpt>
      <trkpt lat="44.36245" lon="3.82953">
        <ele>1360</ele>
        <time>1970-01-01T00:22:29.000Z</time>
      </trkpt>
      <trkpt lat="44.36252" lon="3.82947">
        <ele>1365</ele>
        <time>1970-01-01T00:22:30.000Z</time>
      </trkpt>
      <trkpt lat="44.36255" lon="3.82945">
        <ele>1365</ele>
        <time>1970-01-01T00:22:31.000Z</time>
      </trkpt>
      <trkpt lat="44.36263" lon="3.82939">
        <ele>1365</ele>
        <time>1970-01-01T00:22:32.000Z</time>
      </trkpt>
      <trkpt lat="44.36271" lon="3.82933">
        <ele>1365</ele>
        <time>1970-01-01T00:22:33.000Z</time>
      </trkpt>
      <trkpt lat="44.36279" lon="3.82927">
        <ele>1366</ele>
        <time>1970-01-01T00:22:34.000Z</time>
      </trkpt>
      <trkpt lat="44.36287" lon="3.82921">
        <ele>1367</ele>
        <time>1970-01-01T00:22:35.000Z</time>
      </trkpt>
      <trkpt lat="44.36294" lon="3.82915">
        <ele>1363</ele>
        <time>1970-01-01T00:22:36.000Z</time>
      </trkpt>
      <trkpt lat="44.36302" lon="3.82909">
        <ele>1364</ele>
        <time>1970-01-01T00:22:37.000Z</time>
      </trkpt>
      <trkpt lat="44.3631" lon="3.82903">
        <ele>1364</ele>
        <time>1970-01-01T00:22:38.000Z</time>
      </trkpt>
      <trkpt lat="44.36318" lon="3.82897">
        <ele>1365</ele>
        <time>1970-01-01T00:22:39.000Z</time>
      </trkpt>
      <trkpt lat="44.36326" lon="3.82891">
        <ele>1365</ele>
        <time>1970-01-01T00:22:40.000Z</time>
      </trkpt>
      <trkpt lat="44.36334" lon="3.82885">
        <ele>1370</ele>
        <time>1970-01-01T00:22:41.000Z</time>
      </trkpt>
      <trkpt lat="44.36342" lon="3.82879">
        <ele>1369</ele>
        <time>1970-01-01T00:22:42.000Z</time>
      </trkpt>
      <trkpt lat="44.36349" lon="3.82873">
        <ele>1369</ele>
        <time>1970-01-01T00:22:43.000Z</time>
      </trkpt>
      <trkpt lat="44.36357" lon="3.82867">
        <ele>1369</ele>
        <time>1970-01-01T00:22:44.000Z</time>
      </trkpt>
      <trkpt lat="44.36364" lon="3.82859">
        <ele>1369</ele>
        <time>1970-01-01T00:22:45.000Z</time>
      </trkpt>
      <trkpt lat="44.36371" lon="3.82852">
        <ele>1369</ele>
        <time>1970-01-01T00:22:46.000Z</time>
      </trkpt>
      <trkpt lat="44.36378" lon="3.82844">
        <ele>1369</ele>
        <time>1970-01-01T00:22:47.000Z</time>
      </trkpt>
      <trkpt lat="44.36385" lon="3.82836">
        <ele>1369</ele>
        <time>1970-01-01T00:22:48.000Z</time>
      </trkpt>
      <trkpt lat="44.36392" lon="3.82828">
        <ele>1364</ele>
        <time>1970-01-01T00:22:49.000Z</time>
      </trkpt>
      <trkpt lat="44.36399" lon="3.8282">
        <ele>1364</ele>
        <time>1970-01-01T00:22:50.000Z</time>
      </trkpt>
      <trkpt lat="44.36406" lon="3.82812">
        <ele>1364</ele>
        <time>1970-01-01T00:22:51.000Z</time>
      </trkpt>
      <trkpt lat="44.36413" lon="3.82804">
        <ele>1363</ele>
        <time>1970-01-01T00:22:52.000Z</time>
      </trkpt>
      <trkpt lat="44.3642" lon="3.82796">
        <ele>1367</ele>
        <time>1970-01-01T00:22:53.000Z</time>
      </trkpt>
      <trkpt lat="44.36427" lon="3.82788">
        <ele>1366</ele>
        <time>1970-01-01T00:22:54.000Z</time>
      </trkpt>
      <trkpt lat="44.36434" lon="3.8278">
        <ele>1365</ele>
        <time>1970-01-01T00:22:55.000Z</time>
      </trkpt>
      <trkpt lat="44.36441" lon="3.82773">
        <ele>1365</ele>
        <time>1970-01-01T00:22:56.000Z</time>
      </trkpt>
      <trkpt lat="44.36448" lon="3.82765">
        <ele>1365</ele>
        <time>1970-01-01T00:22:57.000Z</time>
      </trkpt>
      <trkpt lat="44.36455" lon="3.82757">
        <ele>1365</ele>
        <time>1970-01-01T00:22:58.000Z</time>
      </trkpt>
      <trkpt lat="44.36462" lon="3.82749">
        <ele>1358</ele>
        <time>1970-01-01T00:22:59.000Z</time>
      </trkpt>
      <trkpt lat="44.36469" lon="3.82741">
        <ele>1358</ele>
        <time>1970-01-01T00:23:00.000Z</time>
      </trkpt>
      <trkpt lat="44.36476" lon="3.82733">
        <ele>1358</ele>
        <time>1970-01-01T00:23:01.000Z</time>
      </trkpt>
      <trkpt lat="44.36483" lon="3.82725">
        <ele>1358</ele>
        <time>1970-01-01T00:23:02.000Z</time>
      </trkpt>
      <trkpt lat="44.36487" lon="3.82721">
        <ele>1357</ele>
        <time>1970-01-01T00:23:03.000Z</time>
      </trkpt>
      <trkpt lat="44.36495" lon="3.82716">
        <ele>1357</ele>
        <time>1970-01-01T00:23:04.000Z</time>
      </trkpt>
      <trkpt lat="44.36503" lon="3.82711">
        <ele>1359</ele>
        <time>1970-01-01T00:23:05.000Z</time>
      </trkpt>
      <trkpt lat="44.36511" lon="3.82705">
        <ele>1359</ele>
        <time>1970-01-01T00:23:06.000Z</time>
      </trkpt>
      <trkpt lat="44.36519" lon="3.827">
        <ele>1358</ele>
        <time>1970-01-01T00:23:07.000Z</time>
      </trkpt>
      <trkpt lat="44.36528" lon="3.82694">
        <ele>1358</ele>
        <time>1970-01-01T00:23:08.000Z</time>
      </trkpt>
      <trkpt lat="44.36536" lon="3.82689">
        <ele>1358</ele>
        <time>1970-01-01T00:23:09.000Z</time>
      </trkpt>
      <trkpt lat="44.36544" lon="3.82684">
        <ele>1358</ele>
        <time>1970-01-01T00:23:10.000Z</time>
      </trkpt>
      <trkpt lat="44.36552" lon="3.82678">
        <ele>1358</ele>
        <time>1970-01-01T00:23:11.000Z</time>
      </trkpt>
      <trkpt lat="44.3656" lon="3.82673">
        <ele>1358</ele>
        <time>1970-01-01T00:23:12.000Z</time>
      </trkpt>
      <trkpt lat="44.36568" lon="3.82668">
        <ele>1357</ele>
        <time>1970-01-01T00:23:13.000Z</time>
      </trkpt>
      <trkpt lat="44.36576" lon="3.82662">
        <ele>1354</ele>
        <time>1970-01-01T00:23:14.000Z</time>
      </trkpt>
      <trkpt lat="44.36579" lon="3.82661">
        <ele>1354</ele>
        <time>1970-01-01T00:23:15.000Z</time>
      </trkpt>
      <trkpt lat="44.36588" lon="3.82659">
        <ele>1355</ele>
        <time>1970-01-01T00:23:16.000Z</time>
      </trkpt>
      <trkpt lat="44.36596" lon="3.82656">
        <ele>1354</ele>
        <time>1970-01-01T00:23:17.000Z</time>
      </trkpt>
      <trkpt lat="44.36605" lon="3.82653">
        <ele>1354</ele>
        <time>1970-01-01T00:23:18.000Z</time>
      </trkpt>
      <trkpt lat="44.36614" lon="3.82651">
        <ele>1353</ele>
        <time>1970-01-01T00:23:19.000Z</time>
      </trkpt>
      <trkpt lat="44.36623" lon="3.82648">
        <ele>1353</ele>
        <time>1970-01-01T00:23:20.000Z</time>
      </trkpt>
      <trkpt lat="44.36631" lon="3.82646">
        <ele>1353</ele>
        <time>1970-01-01T00:23:21.000Z</time>
      </trkpt>
      <trkpt lat="44.3664" lon="3.82643">
        <ele>1353</ele>
        <time>1970-01-01T00:23:22.000Z</time>
      </trkpt>
      <trkpt lat="44.36649" lon="3.82641">
        <ele>1353</ele>
        <time>1970-01-01T00:23:23.000Z</time>
      </trkpt>
      <trkpt lat="44.36658" lon="3.82638">
        <ele>1353</ele>
        <time>1970-01-01T00:23:24.000Z</time>
      </trkpt>
      <trkpt lat="44.36666" lon="3.82635">
        <ele>1353</ele>
        <time>1970-01-01T00:23:25.000Z</time>
      </trkpt>
      <trkpt lat="44.36675" lon="3.82633">
        <ele>1351</ele>
        <time>1970-01-01T00:23:26.000Z</time>
      </trkpt>
      <trkpt lat="44.36684" lon="3.8263">
        <ele>1351</ele>
        <time>1970-01-01T00:23:27.000Z</time>
      </trkpt>
      <trkpt lat="44.36693" lon="3.82628">
        <ele>1351</ele>
        <time>1970-01-01T00:23:28.000Z</time>
      </trkpt>
      <trkpt lat="44.36697" lon="3.82627">
        <ele>1350</ele>
        <time>1970-01-01T00:23:29.000Z</time>
      </trkpt>
      <trkpt lat="44.36705" lon="3.82621">
        <ele>1350</ele>
        <time>1970-01-01T00:23:30.000Z</time>
      </trkpt>
      <trkpt lat="44.36713" lon="3.82615">
        <ele>1350</ele>
        <time>1970-01-01T00:23:31.000Z</time>
      </trkpt>
      <trkpt lat="44.36721" lon="3.8261">
        <ele>1349</ele>
        <time>1970-01-01T00:23:32.000Z</time>
      </trkpt>
      <trkpt lat="44.36729" lon="3.82604">
        <ele>1348</ele>
        <time>1970-01-01T00:23:33.000Z</time>
      </trkpt>
      <trkpt lat="44.36737" lon="3.82598">
        <ele>1348</ele>
        <time>1970-01-01T00:23:34.000Z</time>
      </trkpt>
      <trkpt lat="44.36745" lon="3.82593">
        <ele>1347</ele>
        <time>1970-01-01T00:23:35.000Z</time>
      </trkpt>
      <trkpt lat="44.36753" lon="3.82587">
        <ele>1345</ele>
        <time>1970-01-01T00:23:36.000Z</time>
      </trkpt>
      <trkpt lat="44.36761" lon="3.82581">
        <ele>1345</ele>
        <time>1970-01-01T00:23:37.000Z</time>
      </trkpt>
      <trkpt lat="44.36769" lon="3.82575">
        <ele>1345</ele>
        <time>1970-01-01T00:23:38.000Z</time>
      </trkpt>
      <trkpt lat="44.36777" lon="3.8257">
        <ele>1345</ele>
        <time>1970-01-01T00:23:39.000Z</time>
      </trkpt>
      <trkpt lat="44.36786" lon="3.82564">
        <ele>1345</ele>
        <time>1970-01-01T00:23:40.000Z</time>
      </trkpt>
      <trkpt lat="44.36794" lon="3.82558">
        <ele>1345</ele>
        <time>1970-01-01T00:23:41.000Z</time>
      </trkpt>
      <trkpt lat="44.36795" lon="3.82558">
        <ele>1345</ele>
        <time>1970-01-01T00:23:42.000Z</time>
      </trkpt>
      <trkpt lat="44.36803" lon="3.82555">
        <ele>1345</ele>
        <time>1970-01-01T00:23:43.000Z</time>
      </trkpt>
      <trkpt lat="44.36812" lon="3.82551">
        <ele>1345</ele>
        <time>1970-01-01T00:23:44.000Z</time>
      </trkpt>
      <trkpt lat="44.36821" lon="3.82548">
        <ele>1345</ele>
        <time>1970-01-01T00:23:45.000Z</time>
      </trkpt>
      <trkpt lat="44.36829" lon="3.82545">
        <ele>1345</ele>
        <time>1970-01-01T00:23:46.000Z</time>
      </trkpt>
      <trkpt lat="44.36838" lon="3.82542">
        <ele>1342</ele>
        <time>1970-01-01T00:23:47.000Z</time>
      </trkpt>
      <trkpt lat="44.36847" lon="3.82538">
        <ele>1342</ele>
        <time>1970-01-01T00:23:48.000Z</time>
      </trkpt>
      <trkpt lat="44.36855" lon="3.82535">
        <ele>1342</ele>
        <time>1970-01-01T00:23:49.000Z</time>
      </trkpt>
      <trkpt lat="44.36864" lon="3.82532">
        <ele>1341</ele>
        <time>1970-01-01T00:23:50.000Z</time>
      </trkpt>
      <trkpt lat="44.36873" lon="3.82529">
        <ele>1341</ele>
        <time>1970-01-01T00:23:51.000Z</time>
      </trkpt>
      <trkpt lat="44.36881" lon="3.82525">
        <ele>1341</ele>
        <time>1970-01-01T00:23:52.000Z</time>
      </trkpt>
      <trkpt lat="44.36886" lon="3.82523">
        <ele>1341</ele>
        <time>1970-01-01T00:23:53.000Z</time>
      </trkpt>
      <trkpt lat="44.36895" lon="3.82522">
        <ele>1340</ele>
        <time>1970-01-01T00:23:54.000Z</time>
      </trkpt>
      <trkpt lat="44.36904" lon="3.82521">
        <ele>1340</ele>
        <time>1970-01-01T00:23:55.000Z</time>
      </trkpt>
      <trkpt lat="44.36913" lon="3.82519">
        <ele>1340</ele>
        <time>1970-01-01T00:23:56.000Z</time>
      </trkpt>
      <trkpt lat="44.36922" lon="3.82518">
        <ele>1337</ele>
        <time>1970-01-01T00:23:57.000Z</time>
      </trkpt>
      <trkpt lat="44.36931" lon="3.82516">
        <ele>1337</ele>
        <time>1970-01-01T00:23:58.000Z</time>
      </trkpt>
      <trkpt lat="44.3694" lon="3.82515">
        <ele>1336</ele>
        <time>1970-01-01T00:23:59.000Z</time>
      </trkpt>
      <trkpt lat="44.36949" lon="3.82513">
        <ele>1336</ele>
        <time>1970-01-01T00:24:00.000Z</time>
      </trkpt>
      <trkpt lat="44.36958" lon="3.82512">
        <ele>1335</ele>
        <time>1970-01-01T00:24:01.000Z</time>
      </trkpt>
      <trkpt lat="44.36967" lon="3.8251">
        <ele>1335</ele>
        <time>1970-01-01T00:24:02.000Z</time>
      </trkpt>
      <trkpt lat="44.36975" lon="3.82509">
        <ele>1334</ele>
        <time>1970-01-01T00:24:03.000Z</time>
      </trkpt>
      <trkpt lat="44.36985" lon="3.82507">
        <ele>1334</ele>
        <time>1970-01-01T00:24:04.000Z</time>
      </trkpt>
      <trkpt lat="44.36993" lon="3.82506">
        <ele>1333</ele>
        <time>1970-01-01T00:24:05.000Z</time>
      </trkpt>
      <trkpt lat="44.37002" lon="3.82504">
        <ele>1332</ele>
        <time>1970-01-01T00:24:06.000Z</time>
      </trkpt>
      <trkpt lat="44.37011" lon="3.82503">
        <ele>1332</ele>
        <time>1970-01-01T00:24:07.000Z</time>
      </trkpt>
      <trkpt lat="44.3702" lon="3.82501">
        <ele>1333</ele>
        <time>1970-01-01T00:24:08.000Z</time>
      </trkpt>
      <trkpt lat="44.37029" lon="3.825">
        <ele>1333</ele>
        <time>1970-01-01T00:24:09.000Z</time>
      </trkpt>
      <trkpt lat="44.37038" lon="3.82498">
        <ele>1333</ele>
        <time>1970-01-01T00:24:10.000Z</time>
      </trkpt>
      <trkpt lat="44.37043" lon="3.82498">
        <ele>1333</ele>
        <time>1970-01-01T00:24:11.000Z</time>
      </trkpt>
      <trkpt lat="44.37049" lon="3.82488">
        <ele>1333</ele>
        <time>1970-01-01T00:24:12.000Z</time>
      </trkpt>
      <trkpt lat="44.37055" lon="3.82479">
        <ele>1333</ele>
        <time>1970-01-01T00:24:13.000Z</time>
      </trkpt>
      <trkpt lat="44.37061" lon="3.82469">
        <ele>1333</ele>
        <time>1970-01-01T00:24:14.000Z</time>
      </trkpt>
      <trkpt lat="44.37067" lon="3.8246">
        <ele>1333</ele>
        <time>1970-01-01T00:24:15.000Z</time>
      </trkpt>
      <trkpt lat="44.37072" lon="3.8245">
        <ele>1333</ele>
        <time>1970-01-01T00:24:16.000Z</time>
      </trkpt>
      <trkpt lat="44.37078" lon="3.82441">
        <ele>1333</ele>
        <time>1970-01-01T00:24:17.000Z</time>
      </trkpt>
      <trkpt lat="44.37084" lon="3.82432">
        <ele>1332</ele>
        <time>1970-01-01T00:24:18.000Z</time>
      </trkpt>
      <trkpt lat="44.3709" lon="3.82422">
        <ele>1332</ele>
        <time>1970-01-01T00:24:19.000Z</time>
      </trkpt>
      <trkpt lat="44.37096" lon="3.82413">
        <ele>1332</ele>
        <time>1970-01-01T00:24:20.000Z</time>
      </trkpt>
      <trkpt lat="44.37102" lon="3.82403">
        <ele>1332</ele>
        <time>1970-01-01T00:24:21.000Z</time>
      </trkpt>
      <trkpt lat="44.37108" lon="3.82395">
        <ele>1331</ele>
        <time>1970-01-01T00:24:22.000Z</time>
      </trkpt>
      <trkpt lat="44.37115" lon="3.82388">
        <ele>1331</ele>
        <time>1970-01-01T00:24:23.000Z</time>
      </trkpt>
      <trkpt lat="44.37123" lon="3.82382">
        <ele>1331</ele>
        <time>1970-01-01T00:24:24.000Z</time>
      </trkpt>
      <trkpt lat="44.37131" lon="3.82376">
        <ele>1331</ele>
        <time>1970-01-01T00:24:25.000Z</time>
      </trkpt>
      <trkpt lat="44.37139" lon="3.8237">
        <ele>1331</ele>
        <time>1970-01-01T00:24:26.000Z</time>
      </trkpt>
      <trkpt lat="44.37147" lon="3.82363">
        <ele>1331</ele>
        <time>1970-01-01T00:24:27.000Z</time>
      </trkpt>
      <trkpt lat="44.37154" lon="3.82357">
        <ele>1331</ele>
        <time>1970-01-01T00:24:28.000Z</time>
      </trkpt>
      <trkpt lat="44.37162" lon="3.82351">
        <ele>1331</ele>
        <time>1970-01-01T00:24:29.000Z</time>
      </trkpt>
      <trkpt lat="44.3717" lon="3.82345">
        <ele>1331</ele>
        <time>1970-01-01T00:24:30.000Z</time>
      </trkpt>
      <trkpt lat="44.37178" lon="3.82338">
        <ele>1331</ele>
        <time>1970-01-01T00:24:31.000Z</time>
      </trkpt>
      <trkpt lat="44.37186" lon="3.82332">
        <ele>1330</ele>
        <time>1970-01-01T00:24:32.000Z</time>
      </trkpt>
      <trkpt lat="44.37193" lon="3.82326">
        <ele>1330</ele>
        <time>1970-01-01T00:24:33.000Z</time>
      </trkpt>
      <trkpt lat="44.37201" lon="3.8232">
        <ele>1330</ele>
        <time>1970-01-01T00:24:34.000Z</time>
      </trkpt>
      <trkpt lat="44.37209" lon="3.82313">
        <ele>1329</ele>
        <time>1970-01-01T00:24:35.000Z</time>
      </trkpt>
      <trkpt lat="44.37216" lon="3.82309">
        <ele>1329</ele>
        <time>1970-01-01T00:24:36.000Z</time>
      </trkpt>
      <trkpt lat="44.37225" lon="3.82309">
        <ele>1329</ele>
        <time>1970-01-01T00:24:37.000Z</time>
      </trkpt>
      <trkpt lat="44.37234" lon="3.82309">
        <ele>1329</ele>
        <time>1970-01-01T00:24:38.000Z</time>
      </trkpt>
      <trkpt lat="44.37243" lon="3.82309">
        <ele>1329</ele>
        <time>1970-01-01T00:24:39.000Z</time>
      </trkpt>
      <trkpt lat="44.37252" lon="3.82309">
        <ele>1329</ele>
        <time>1970-01-01T00:24:40.000Z</time>
      </trkpt>
      <trkpt lat="44.37254" lon="3.82309">
        <ele>1329</ele>
        <time>1970-01-01T00:24:41.000Z</time>
      </trkpt>
      <trkpt lat="44.37262" lon="3.82311">
        <ele>1329</ele>
        <time>1970-01-01T00:24:42.000Z</time>
      </trkpt>
      <trkpt lat="44.37271" lon="3.82313">
        <ele>1329</ele>
        <time>1970-01-01T00:24:43.000Z</time>
      </trkpt>
      <trkpt lat="44.3728" lon="3.82316">
        <ele>1329</ele>
        <time>1970-01-01T00:24:44.000Z</time>
      </trkpt>
      <trkpt lat="44.37289" lon="3.82318">
        <ele>1329</ele>
        <time>1970-01-01T00:24:45.000Z</time>
      </trkpt>
      <trkpt lat="44.37297" lon="3.8232">
        <ele>1330</ele>
        <time>1970-01-01T00:24:46.000Z</time>
      </trkpt>
      <trkpt lat="44.37306" lon="3.82323">
        <ele>1330</ele>
        <time>1970-01-01T00:24:47.000Z</time>
      </trkpt>
      <trkpt lat="44.37315" lon="3.82325">
        <ele>1330</ele>
        <time>1970-01-01T00:24:48.000Z</time>
      </trkpt>
      <trkpt lat="44.37324" lon="3.82327">
        <ele>1330</ele>
        <time>1970-01-01T00:24:49.000Z</time>
      </trkpt>
      <trkpt lat="44.37333" lon="3.8233">
        <ele>1331</ele>
        <time>1970-01-01T00:24:50.000Z</time>
      </trkpt>
      <trkpt lat="44.37342" lon="3.82332">
        <ele>1331</ele>
        <time>1970-01-01T00:24:51.000Z</time>
      </trkpt>
      <trkpt lat="44.3735" lon="3.82334">
        <ele>1332</ele>
        <time>1970-01-01T00:24:52.000Z</time>
      </trkpt>
      <trkpt lat="44.3736" lon="3.82333">
        <ele>1331</ele>
        <time>1970-01-01T00:24:53.000Z</time>
      </trkpt>
      <trkpt lat="44.37368" lon="3.82331">
        <ele>1331</ele>
        <time>1970-01-01T00:24:54.000Z</time>
      </trkpt>
      <trkpt lat="44.37377" lon="3.82329">
        <ele>1331</ele>
        <time>1970-01-01T00:24:55.000Z</time>
      </trkpt>
      <trkpt lat="44.37386" lon="3.82327">
        <ele>1331</ele>
        <time>1970-01-01T00:24:56.000Z</time>
      </trkpt>
      <trkpt lat="44.37395" lon="3.82325">
        <ele>1331</ele>
        <time>1970-01-01T00:24:57.000Z</time>
      </trkpt>
      <trkpt lat="44.37404" lon="3.82324">
        <ele>1331</ele>
        <time>1970-01-01T00:24:58.000Z</time>
      </trkpt>
      <trkpt lat="44.37413" lon="3.82322">
        <ele>1331</ele>
        <time>1970-01-01T00:24:59.000Z</time>
      </trkpt>
      <trkpt lat="44.37422" lon="3.8232">
        <ele>1331</ele>
        <time>1970-01-01T00:25:00.000Z</time>
      </trkpt>
      <trkpt lat="44.37431" lon="3.82318">
        <ele>1331</ele>
        <time>1970-01-01T00:25:01.000Z</time>
      </trkpt>
      <trkpt lat="44.37437" lon="3.82317">
        <ele>1331</ele>
        <time>1970-01-01T00:25:02.000Z</time>
      </trkpt>
      <trkpt lat="44.37444" lon="3.82325">
        <ele>1331</ele>
        <time>1970-01-01T00:25:03.000Z</time>
      </trkpt>
      <trkpt lat="44.37451" lon="3.82333">
        <ele>1331</ele>
        <time>1970-01-01T00:25:04.000Z</time>
      </trkpt>
      <trkpt lat="44.37458" lon="3.8234">
        <ele>1333</ele>
        <time>1970-01-01T00:25:05.000Z</time>
      </trkpt>
      <trkpt lat="44.37465" lon="3.82348">
        <ele>1333</ele>
        <time>1970-01-01T00:25:06.000Z</time>
      </trkpt>
      <trkpt lat="44.37473" lon="3.82356">
        <ele>1333</ele>
        <time>1970-01-01T00:25:07.000Z</time>
      </trkpt>
      <trkpt lat="44.37479" lon="3.82364">
        <ele>1333</ele>
        <time>1970-01-01T00:25:08.000Z</time>
      </trkpt>
      <trkpt lat="44.37487" lon="3.82371">
        <ele>1334</ele>
        <time>1970-01-01T00:25:09.000Z</time>
      </trkpt>
      <trkpt lat="44.37494" lon="3.82379">
        <ele>1334</ele>
        <time>1970-01-01T00:25:10.000Z</time>
      </trkpt>
      <trkpt lat="44.37501" lon="3.82387">
        <ele>1334</ele>
        <time>1970-01-01T00:25:11.000Z</time>
      </trkpt>
      <trkpt lat="44.37508" lon="3.82395">
        <ele>1334</ele>
        <time>1970-01-01T00:25:12.000Z</time>
      </trkpt>
      <trkpt lat="44.37515" lon="3.82402">
        <ele>1334</ele>
        <time>1970-01-01T00:25:13.000Z</time>
      </trkpt>
      <trkpt lat="44.37522" lon="3.8241">
        <ele>1334</ele>
        <time>1970-01-01T00:25:14.000Z</time>
      </trkpt>
      <trkpt lat="44.37529" lon="3.82418">
        <ele>1336</ele>
        <time>1970-01-01T00:25:15.000Z</time>
      </trkpt>
      <trkpt lat="44.37536" lon="3.82425">
        <ele>1336</ele>
        <time>1970-01-01T00:25:16.000Z</time>
      </trkpt>
      <trkpt lat="44.3754" lon="3.82429">
        <ele>1336</ele>
        <time>1970-01-01T00:25:17.000Z</time>
      </trkpt>
      <trkpt lat="44.37545" lon="3.82439">
        <ele>1336</ele>
        <time>1970-01-01T00:25:18.000Z</time>
      </trkpt>
      <trkpt lat="44.3755" lon="3.82449">
        <ele>1336</ele>
        <time>1970-01-01T00:25:19.000Z</time>
      </trkpt>
      <trkpt lat="44.37555" lon="3.8246">
        <ele>1336</ele>
        <time>1970-01-01T00:25:20.000Z</time>
      </trkpt>
      <trkpt lat="44.3756" lon="3.8247">
        <ele>1336</ele>
        <time>1970-01-01T00:25:21.000Z</time>
      </trkpt>
      <trkpt lat="44.37566" lon="3.8248">
        <ele>1336</ele>
        <time>1970-01-01T00:25:22.000Z</time>
      </trkpt>
      <trkpt lat="44.37571" lon="3.8249">
        <ele>1336</ele>
        <time>1970-01-01T00:25:23.000Z</time>
      </trkpt>
      <trkpt lat="44.37576" lon="3.825">
        <ele>1337</ele>
        <time>1970-01-01T00:25:24.000Z</time>
      </trkpt>
      <trkpt lat="44.37581" lon="3.82511">
        <ele>1337</ele>
        <time>1970-01-01T00:25:25.000Z</time>
      </trkpt>
      <trkpt lat="44.37587" lon="3.82521">
        <ele>1335</ele>
        <time>1970-01-01T00:25:26.000Z</time>
      </trkpt>
      <trkpt lat="44.37588" lon="3.82523">
        <ele>1335</ele>
        <time>1970-01-01T00:25:27.000Z</time>
      </trkpt>
      <trkpt lat="44.37588" lon="3.82536">
        <ele>1334</ele>
        <time>1970-01-01T00:25:28.000Z</time>
      </trkpt>
      <trkpt lat="44.37587" lon="3.82549">
        <ele>1334</ele>
        <time>1970-01-01T00:25:29.000Z</time>
      </trkpt>
      <trkpt lat="44.37587" lon="3.82561">
        <ele>1335</ele>
        <time>1970-01-01T00:25:30.000Z</time>
      </trkpt>
      <trkpt lat="44.37587" lon="3.82574">
        <ele>1335</ele>
        <time>1970-01-01T00:25:31.000Z</time>
      </trkpt>
      <trkpt lat="44.37586" lon="3.82586">
        <ele>1336</ele>
        <time>1970-01-01T00:25:32.000Z</time>
      </trkpt>
      <trkpt lat="44.37586" lon="3.82599">
        <ele>1335</ele>
        <time>1970-01-01T00:25:33.000Z</time>
      </trkpt>
      <trkpt lat="44.37585" lon="3.82611">
        <ele>1335</ele>
        <time>1970-01-01T00:25:34.000Z</time>
      </trkpt>
      <trkpt lat="44.37585" lon="3.82624">
        <ele>1335</ele>
        <time>1970-01-01T00:25:35.000Z</time>
      </trkpt>
      <trkpt lat="44.37585" lon="3.82636">
        <ele>1335</ele>
        <time>1970-01-01T00:25:36.000Z</time>
      </trkpt>
      <trkpt lat="44.37584" lon="3.82649">
        <ele>1335</ele>
        <time>1970-01-01T00:25:37.000Z</time>
      </trkpt>
      <trkpt lat="44.37584" lon="3.82662">
        <ele>1336</ele>
        <time>1970-01-01T00:25:38.000Z</time>
      </trkpt>
      <trkpt lat="44.37584" lon="3.82674">
        <ele>1336</ele>
        <time>1970-01-01T00:25:39.000Z</time>
      </trkpt>
      <trkpt lat="44.37583" lon="3.82687">
        <ele>1337</ele>
        <time>1970-01-01T00:25:40.000Z</time>
      </trkpt>
      <trkpt lat="44.37583" lon="3.82699">
        <ele>1337</ele>
        <time>1970-01-01T00:25:41.000Z</time>
      </trkpt>
      <trkpt lat="44.37583" lon="3.82704">
        <ele>1337</ele>
        <time>1970-01-01T00:25:42.000Z</time>
      </trkpt>
      <trkpt lat="44.37577" lon="3.82714">
        <ele>1337</ele>
        <time>1970-01-01T00:25:43.000Z</time>
      </trkpt>
      <trkpt lat="44.37571" lon="3.82723">
        <ele>1337</ele>
        <time>1970-01-01T00:25:44.000Z</time>
      </trkpt>
      <trkpt lat="44.37566" lon="3.82733">
        <ele>1337</ele>
        <time>1970-01-01T00:25:45.000Z</time>
      </trkpt>
      <trkpt lat="44.3756" lon="3.82743">
        <ele>1337</ele>
        <time>1970-01-01T00:25:46.000Z</time>
      </trkpt>
      <trkpt lat="44.37554" lon="3.82753">
        <ele>1336</ele>
        <time>1970-01-01T00:25:47.000Z</time>
      </trkpt>
      <trkpt lat="44.37548" lon="3.82762">
        <ele>1336</ele>
        <time>1970-01-01T00:25:48.000Z</time>
      </trkpt>
      <trkpt lat="44.37543" lon="3.82772">
        <ele>1336</ele>
        <time>1970-01-01T00:25:49.000Z</time>
      </trkpt>
      <trkpt lat="44.37537" lon="3.82782">
        <ele>1337</ele>
        <time>1970-01-01T00:25:50.000Z</time>
      </trkpt>
      <trkpt lat="44.37532" lon="3.82792">
        <ele>1337</ele>
        <time>1970-01-01T00:25:51.000Z</time>
      </trkpt>
      <trkpt lat="44.37526" lon="3.82801">
        <ele>1337</ele>
        <time>1970-01-01T00:25:52.000Z</time>
      </trkpt>
      <trkpt lat="44.3752" lon="3.82811">
        <ele>1337</ele>
        <time>1970-01-01T00:25:53.000Z</time>
      </trkpt>
      <trkpt lat="44.37514" lon="3.82821">
        <ele>1337</ele>
        <time>1970-01-01T00:25:54.000Z</time>
      </trkpt>
      <trkpt lat="44.37509" lon="3.82831">
        <ele>1337</ele>
        <time>1970-01-01T00:25:55.000Z</time>
      </trkpt>
      <trkpt lat="44.37507" lon="3.82833">
        <ele>1337</ele>
        <time>1970-01-01T00:25:56.000Z</time>
      </trkpt>
      <trkpt lat="44.375" lon="3.8284">
        <ele>1338</ele>
        <time>1970-01-01T00:25:57.000Z</time>
      </trkpt>
      <trkpt lat="44.37492" lon="3.82846">
        <ele>1339</ele>
        <time>1970-01-01T00:25:58.000Z</time>
      </trkpt>
      <trkpt lat="44.37484" lon="3.82853">
        <ele>1340</ele>
        <time>1970-01-01T00:25:59.000Z</time>
      </trkpt>
      <trkpt lat="44.37476" lon="3.82859">
        <ele>1340</ele>
        <time>1970-01-01T00:26:00.000Z</time>
      </trkpt>
      <trkpt lat="44.37469" lon="3.82866">
        <ele>1341</ele>
        <time>1970-01-01T00:26:01.000Z</time>
      </trkpt>
      <trkpt lat="44.37461" lon="3.82873">
        <ele>1341</ele>
        <time>1970-01-01T00:26:02.000Z</time>
      </trkpt>
      <trkpt lat="44.37453" lon="3.82879">
        <ele>1342</ele>
        <time>1970-01-01T00:26:03.000Z</time>
      </trkpt>
      <trkpt lat="44.37446" lon="3.82886">
        <ele>1342</ele>
        <time>1970-01-01T00:26:04.000Z</time>
      </trkpt>
      <trkpt lat="44.37438" lon="3.82892">
        <ele>1343</ele>
        <time>1970-01-01T00:26:05.000Z</time>
      </trkpt>
      <trkpt lat="44.37437" lon="3.82893">
        <ele>1343</ele>
        <time>1970-01-01T00:26:06.000Z</time>
      </trkpt>
      <trkpt lat="44.3744" lon="3.82905">
        <ele>1344</ele>
        <time>1970-01-01T00:26:07.000Z</time>
      </trkpt>
      <trkpt lat="44.37444" lon="3.82917">
        <ele>1343</ele>
        <time>1970-01-01T00:26:08.000Z</time>
      </trkpt>
      <trkpt lat="44.37447" lon="3.82928">
        <ele>1347</ele>
        <time>1970-01-01T00:26:09.000Z</time>
      </trkpt>
      <trkpt lat="44.3745" lon="3.8294">
        <ele>1347</ele>
        <time>1970-01-01T00:26:10.000Z</time>
      </trkpt>
      <trkpt lat="44.37453" lon="3.82952">
        <ele>1347</ele>
        <time>1970-01-01T00:26:11.000Z</time>
      </trkpt>
      <trkpt lat="44.37457" lon="3.82963">
        <ele>1347</ele>
        <time>1970-01-01T00:26:12.000Z</time>
      </trkpt>
      <trkpt lat="44.3746" lon="3.82975">
        <ele>1348</ele>
        <time>1970-01-01T00:26:13.000Z</time>
      </trkpt>
      <trkpt lat="44.37463" lon="3.82987">
        <ele>1348</ele>
        <time>1970-01-01T00:26:14.000Z</time>
      </trkpt>
      <trkpt lat="44.37466" lon="3.82998">
        <ele>1347</ele>
        <time>1970-01-01T00:26:15.000Z</time>
      </trkpt>
      <trkpt lat="44.3747" lon="3.8301">
        <ele>1351</ele>
        <time>1970-01-01T00:26:16.000Z</time>
      </trkpt>
      <trkpt lat="44.37473" lon="3.83022">
        <ele>1351</ele>
        <time>1970-01-01T00:26:17.000Z</time>
      </trkpt>
      <trkpt lat="44.37476" lon="3.83034">
        <ele>1352</ele>
        <time>1970-01-01T00:26:18.000Z</time>
      </trkpt>
      <trkpt lat="44.3748" lon="3.83045">
        <ele>1352</ele>
        <time>1970-01-01T00:26:19.000Z</time>
      </trkpt>
      <trkpt lat="44.37483" lon="3.83057">
        <ele>1351</ele>
        <time>1970-01-01T00:26:20.000Z</time>
      </trkpt>
      <trkpt lat="44.37486" lon="3.83065">
        <ele>1351</ele>
        <time>1970-01-01T00:26:21.000Z</time>
      </trkpt>
      <trkpt lat="44.37483" lon="3.83077">
        <ele>1350</ele>
        <time>1970-01-01T00:26:22.000Z</time>
      </trkpt>
      <trkpt lat="44.37481" lon="3.8309">
        <ele>1352</ele>
        <time>1970-01-01T00:26:23.000Z</time>
      </trkpt>
      <trkpt lat="44.37479" lon="3.83102">
        <ele>1354</ele>
        <time>1970-01-01T00:26:24.000Z</time>
      </trkpt>
      <trkpt lat="44.37477" lon="3.83114">
        <ele>1355</ele>
        <time>1970-01-01T00:26:25.000Z</time>
      </trkpt>
      <trkpt lat="44.37475" lon="3.83126">
        <ele>1355</ele>
        <time>1970-01-01T00:26:26.000Z</time>
      </trkpt>
      <trkpt lat="44.37473" lon="3.83138">
        <ele>1355</ele>
        <time>1970-01-01T00:26:27.000Z</time>
      </trkpt>
      <trkpt lat="44.3747" lon="3.8315">
        <ele>1355</ele>
        <time>1970-01-01T00:26:28.000Z</time>
      </trkpt>
      <trkpt lat="44.37468" lon="3.83163">
        <ele>1355</ele>
        <time>1970-01-01T00:26:29.000Z</time>
      </trkpt>
      <trkpt lat="44.37466" lon="3.83175">
        <ele>1354</ele>
        <time>1970-01-01T00:26:30.000Z</time>
      </trkpt>
      <trkpt lat="44.37464" lon="3.83187">
        <ele>1354</ele>
        <time>1970-01-01T00:26:31.000Z</time>
      </trkpt>
      <trkpt lat="44.37461" lon="3.83199">
        <ele>1354</ele>
        <time>1970-01-01T00:26:32.000Z</time>
      </trkpt>
      <trkpt lat="44.3746" lon="3.83211">
        <ele>1354</ele>
        <time>1970-01-01T00:26:33.000Z</time>
      </trkpt>
      <trkpt lat="44.37457" lon="3.83224">
        <ele>1354</ele>
        <time>1970-01-01T00:26:34.000Z</time>
      </trkpt>
      <trkpt lat="44.37455" lon="3.83236">
        <ele>1354</ele>
        <time>1970-01-01T00:26:35.000Z</time>
      </trkpt>
      <trkpt lat="44.37453" lon="3.83248">
        <ele>1354</ele>
        <time>1970-01-01T00:26:36.000Z</time>
      </trkpt>
      <trkpt lat="44.37451" lon="3.8326">
        <ele>1352</ele>
        <time>1970-01-01T00:26:37.000Z</time>
      </trkpt>
      <trkpt lat="44.37449" lon="3.83272">
        <ele>1352</ele>
        <time>1970-01-01T00:26:38.000Z</time>
      </trkpt>
      <trkpt lat="44.37446" lon="3.83285">
        <ele>1352</ele>
        <time>1970-01-01T00:26:39.000Z</time>
      </trkpt>
      <trkpt lat="44.37444" lon="3.83297">
        <ele>1351</ele>
        <time>1970-01-01T00:26:40.000Z</time>
      </trkpt>
      <trkpt lat="44.37442" lon="3.83306">
        <ele>1351</ele>
        <time>1970-01-01T00:26:41.000Z</time>
      </trkpt>
      <trkpt lat="44.37437" lon="3.83316">
        <ele>1351</ele>
        <time>1970-01-01T00:26:42.000Z</time>
      </trkpt>
      <trkpt lat="44.37431" lon="3.83326">
        <ele>1351</ele>
        <time>1970-01-01T00:26:43.000Z</time>
      </trkpt>
      <trkpt lat="44.37426" lon="3.83335">
        <ele>1352</ele>
        <time>1970-01-01T00:26:44.000Z</time>
      </trkpt>
      <trkpt lat="44.3742" lon="3.83345">
        <ele>1352</ele>
        <time>1970-01-01T00:26:45.000Z</time>
      </trkpt>
      <trkpt lat="44.37415" lon="3.83355">
        <ele>1355</ele>
        <time>1970-01-01T00:26:46.000Z</time>
      </trkpt>
      <trkpt lat="44.37409" lon="3.83365">
        <ele>1356</ele>
        <time>1970-01-01T00:26:47.000Z</time>
      </trkpt>
      <trkpt lat="44.37403" lon="3.83375">
        <ele>1357</ele>
        <time>1970-01-01T00:26:48.000Z</time>
      </trkpt>
      <trkpt lat="44.37398" lon="3.83385">
        <ele>1357</ele>
        <time>1970-01-01T00:26:49.000Z</time>
      </trkpt>
      <trkpt lat="44.37392" lon="3.83395">
        <ele>1357</ele>
        <time>1970-01-01T00:26:50.000Z</time>
      </trkpt>
      <trkpt lat="44.37387" lon="3.83404">
        <ele>1357</ele>
        <time>1970-01-01T00:26:51.000Z</time>
      </trkpt>
      <trkpt lat="44.37381" lon="3.83414">
        <ele>1357</ele>
        <time>1970-01-01T00:26:52.000Z</time>
      </trkpt>
      <trkpt lat="44.37375" lon="3.83424">
        <ele>1359</ele>
        <time>1970-01-01T00:26:53.000Z</time>
      </trkpt>
      <trkpt lat="44.3737" lon="3.83434">
        <ele>1359</ele>
        <time>1970-01-01T00:26:54.000Z</time>
      </trkpt>
      <trkpt lat="44.37364" lon="3.83444">
        <ele>1359</ele>
        <time>1970-01-01T00:26:55.000Z</time>
      </trkpt>
      <trkpt lat="44.37359" lon="3.83454">
        <ele>1359</ele>
        <time>1970-01-01T00:26:56.000Z</time>
      </trkpt>
      <trkpt lat="44.37353" lon="3.83464">
        <ele>1360</ele>
        <time>1970-01-01T00:26:57.000Z</time>
      </trkpt>
      <trkpt lat="44.37347" lon="3.83473">
        <ele>1360</ele>
        <time>1970-01-01T00:26:58.000Z</time>
      </trkpt>
      <trkpt lat="44.37342" lon="3.83483">
        <ele>1360</ele>
        <time>1970-01-01T00:26:59.000Z</time>
      </trkpt>
      <trkpt lat="44.3734" lon="3.83486">
        <ele>1360</ele>
        <time>1970-01-01T00:27:00.000Z</time>
      </trkpt>
      <trkpt lat="44.37349" lon="3.83486">
        <ele>1360</ele>
        <time>1970-01-01T00:27:01.000Z</time>
      </trkpt>
      <trkpt lat="44.37358" lon="3.83485">
        <ele>1360</ele>
        <time>1970-01-01T00:27:02.000Z</time>
      </trkpt>
      <trkpt lat="44.37367" lon="3.83484">
        <ele>1360</ele>
        <time>1970-01-01T00:27:03.000Z</time>
      </trkpt>
      <trkpt lat="44.37376" lon="3.83483">
        <ele>1360</ele>
        <time>1970-01-01T00:27:04.000Z</time>
      </trkpt>
      <trkpt lat="44.37385" lon="3.83482">
        <ele>1360</ele>
        <time>1970-01-01T00:27:05.000Z</time>
      </trkpt>
      <trkpt lat="44.37394" lon="3.83482">
        <ele>1360</ele>
        <time>1970-01-01T00:27:06.000Z</time>
      </trkpt>
      <trkpt lat="44.37403" lon="3.83481">
        <ele>1361</ele>
        <time>1970-01-01T00:27:07.000Z</time>
      </trkpt>
      <trkpt lat="44.37411" lon="3.8348">
        <ele>1361</ele>
        <time>1970-01-01T00:27:08.000Z</time>
      </trkpt>
      <trkpt lat="44.37421" lon="3.83479">
        <ele>1360</ele>
        <time>1970-01-01T00:27:09.000Z</time>
      </trkpt>
      <trkpt lat="44.37429" lon="3.83478">
        <ele>1360</ele>
        <time>1970-01-01T00:27:10.000Z</time>
      </trkpt>
      <trkpt lat="44.37439" lon="3.83478">
        <ele>1359</ele>
        <time>1970-01-01T00:27:11.000Z</time>
      </trkpt>
      <trkpt lat="44.37447" lon="3.83477">
        <ele>1359</ele>
        <time>1970-01-01T00:27:12.000Z</time>
      </trkpt>
      <trkpt lat="44.37457" lon="3.83476">
        <ele>1359</ele>
        <time>1970-01-01T00:27:13.000Z</time>
      </trkpt>
      <trkpt lat="44.37465" lon="3.83475">
        <ele>1359</ele>
        <time>1970-01-01T00:27:14.000Z</time>
      </trkpt>
      <trkpt lat="44.37474" lon="3.83474">
        <ele>1359</ele>
        <time>1970-01-01T00:27:15.000Z</time>
      </trkpt>
      <trkpt lat="44.37483" lon="3.83474">
        <ele>1359</ele>
        <time>1970-01-01T00:27:16.000Z</time>
      </trkpt>
      <trkpt lat="44.37492" lon="3.83473">
        <ele>1359</ele>
        <time>1970-01-01T00:27:17.000Z</time>
      </trkpt>
      <trkpt lat="44.37501" lon="3.83472">
        <ele>1358</ele>
        <time>1970-01-01T00:27:18.000Z</time>
      </trkpt>
      <trkpt lat="44.3751" lon="3.83471">
        <ele>1358</ele>
        <time>1970-01-01T00:27:19.000Z</time>
      </trkpt>
      <trkpt lat="44.37519" lon="3.83471">
        <ele>1358</ele>
        <time>1970-01-01T00:27:20.000Z</time>
      </trkpt>
      <trkpt lat="44.37528" lon="3.8347">
        <ele>1358</ele>
        <time>1970-01-01T00:27:21.000Z</time>
      </trkpt>
      <trkpt lat="44.37534" lon="3.83469">
        <ele>1357</ele>
        <time>1970-01-01T00:27:22.000Z</time>
      </trkpt>
      <trkpt lat="44.37543" lon="3.83468">
        <ele>1357</ele>
        <time>1970-01-01T00:27:23.000Z</time>
      </trkpt>
      <trkpt lat="44.37552" lon="3.83467">
        <ele>1357</ele>
        <time>1970-01-01T00:27:24.000Z</time>
      </trkpt>
      <trkpt lat="44.37561" lon="3.83465">
        <ele>1357</ele>
        <time>1970-01-01T00:27:25.000Z</time>
      </trkpt>
      <trkpt lat="44.3757" lon="3.83464">
        <ele>1357</ele>
        <time>1970-01-01T00:27:26.000Z</time>
      </trkpt>
      <trkpt lat="44.37579" lon="3.83463">
        <ele>1357</ele>
        <time>1970-01-01T00:27:27.000Z</time>
      </trkpt>
      <trkpt lat="44.37588" lon="3.83461">
        <ele>1357</ele>
        <time>1970-01-01T00:27:28.000Z</time>
      </trkpt>
      <trkpt lat="44.37597" lon="3.8346">
        <ele>1357</ele>
        <time>1970-01-01T00:27:29.000Z</time>
      </trkpt>
      <trkpt lat="44.37606" lon="3.83459">
        <ele>1356</ele>
        <time>1970-01-01T00:27:30.000Z</time>
      </trkpt>
      <trkpt lat="44.37614" lon="3.83458">
        <ele>1356</ele>
        <time>1970-01-01T00:27:31.000Z</time>
      </trkpt>
      <trkpt lat="44.37624" lon="3.83456">
        <ele>1356</ele>
        <time>1970-01-01T00:27:32.000Z</time>
      </trkpt>
      <trkpt lat="44.37632" lon="3.83455">
        <ele>1356</ele>
        <time>1970-01-01T00:27:33.000Z</time>
      </trkpt>
      <trkpt lat="44.37642" lon="3.83454">
        <ele>1356</ele>
        <time>1970-01-01T00:27:34.000Z</time>
      </trkpt>
      <trkpt lat="44.3765" lon="3.83452">
        <ele>1356</ele>
        <time>1970-01-01T00:27:35.000Z</time>
      </trkpt>
      <trkpt lat="44.37653" lon="3.83452">
        <ele>1356</ele>
        <time>1970-01-01T00:27:36.000Z</time>
      </trkpt>
      <trkpt lat="44.37661" lon="3.83457">
        <ele>1356</ele>
        <time>1970-01-01T00:27:37.000Z</time>
      </trkpt>
      <trkpt lat="44.37669" lon="3.83462">
        <ele>1355</ele>
        <time>1970-01-01T00:27:38.000Z</time>
      </trkpt>
      <trkpt lat="44.37677" lon="3.83468">
        <ele>1355</ele>
        <time>1970-01-01T00:27:39.000Z</time>
      </trkpt>
      <trkpt lat="44.37685" lon="3.83473">
        <ele>1355</ele>
        <time>1970-01-01T00:27:40.000Z</time>
      </trkpt>
      <trkpt lat="44.37694" lon="3.83478">
        <ele>1355</ele>
        <time>1970-01-01T00:27:41.000Z</time>
      </trkpt>
      <trkpt lat="44.37702" lon="3.83483">
        <ele>1355</ele>
        <time>1970-01-01T00:27:42.000Z</time>
      </trkpt>
      <trkpt lat="44.37707" lon="3.83486">
        <ele>1355</ele>
        <time>1970-01-01T00:27:43.000Z</time>
      </trkpt>
      <trkpt lat="44.37715" lon="3.83481">
        <ele>1354</ele>
        <time>1970-01-01T00:27:44.000Z</time>
      </trkpt>
      <trkpt lat="44.37723" lon="3.83476">
        <ele>1354</ele>
        <time>1970-01-01T00:27:45.000Z</time>
      </trkpt>
      <trkpt lat="44.37732" lon="3.83471">
        <ele>1354</ele>
        <time>1970-01-01T00:27:46.000Z</time>
      </trkpt>
      <trkpt lat="44.3774" lon="3.83466">
        <ele>1353</ele>
        <time>1970-01-01T00:27:47.000Z</time>
      </trkpt>
      <trkpt lat="44.37748" lon="3.8346">
        <ele>1353</ele>
        <time>1970-01-01T00:27:48.000Z</time>
      </trkpt>
      <trkpt lat="44.37756" lon="3.83455">
        <ele>1352</ele>
        <time>1970-01-01T00:27:49.000Z</time>
      </trkpt>
      <trkpt lat="44.37764" lon="3.8345">
        <ele>1351</ele>
        <time>1970-01-01T00:27:50.000Z</time>
      </trkpt>
      <trkpt lat="44.37772" lon="3.83445">
        <ele>1351</ele>
        <time>1970-01-01T00:27:51.000Z</time>
      </trkpt>
      <trkpt lat="44.3778" lon="3.83439">
        <ele>1351</ele>
        <time>1970-01-01T00:27:52.000Z</time>
      </trkpt>
      <trkpt lat="44.37788" lon="3.83434">
        <ele>1351</ele>
        <time>1970-01-01T00:27:53.000Z</time>
      </trkpt>
      <trkpt lat="44.37797" lon="3.83429">
        <ele>1351</ele>
        <time>1970-01-01T00:27:54.000Z</time>
      </trkpt>
      <trkpt lat="44.37805" lon="3.83424">
        <ele>1351</ele>
        <time>1970-01-01T00:27:55.000Z</time>
      </trkpt>
      <trkpt lat="44.37813" lon="3.83419">
        <ele>1351</ele>
        <time>1970-01-01T00:27:56.000Z</time>
      </trkpt>
      <trkpt lat="44.37821" lon="3.83413">
        <ele>1350</ele>
        <time>1970-01-01T00:27:57.000Z</time>
      </trkpt>
      <trkpt lat="44.3783" lon="3.83408">
        <ele>1350</ele>
        <time>1970-01-01T00:27:58.000Z</time>
      </trkpt>
      <trkpt lat="44.37838" lon="3.83403">
        <ele>1350</ele>
        <time>1970-01-01T00:27:59.000Z</time>
      </trkpt>
      <trkpt lat="44.37842" lon="3.834">
        <ele>1350</ele>
        <time>1970-01-01T00:28:00.000Z</time>
      </trkpt>
      <trkpt lat="44.3785" lon="3.83405">
        <ele>1351</ele>
        <time>1970-01-01T00:28:01.000Z</time>
      </trkpt>
      <trkpt lat="44.37859" lon="3.8341">
        <ele>1351</ele>
        <time>1970-01-01T00:28:02.000Z</time>
      </trkpt>
      <trkpt lat="44.37867" lon="3.83415">
        <ele>1351</ele>
        <time>1970-01-01T00:28:03.000Z</time>
      </trkpt>
      <trkpt lat="44.37875" lon="3.8342">
        <ele>1352</ele>
        <time>1970-01-01T00:28:04.000Z</time>
      </trkpt>
      <trkpt lat="44.37883" lon="3.83425">
        <ele>1352</ele>
        <time>1970-01-01T00:28:05.000Z</time>
      </trkpt>
      <trkpt lat="44.37892" lon="3.83429">
        <ele>1352</ele>
        <time>1970-01-01T00:28:06.000Z</time>
      </trkpt>
      <trkpt lat="44.379" lon="3.83434">
        <ele>1352</ele>
        <time>1970-01-01T00:28:07.000Z</time>
      </trkpt>
      <trkpt lat="44.37908" lon="3.83439">
        <ele>1352</ele>
        <time>1970-01-01T00:28:08.000Z</time>
      </trkpt>
      <trkpt lat="44.37917" lon="3.83444">
        <ele>1352</ele>
        <time>1970-01-01T00:28:09.000Z</time>
      </trkpt>
      <trkpt lat="44.37925" lon="3.83449">
        <ele>1355</ele>
        <time>1970-01-01T00:28:10.000Z</time>
      </trkpt>
      <trkpt lat="44.37933" lon="3.83453">
        <ele>1355</ele>
        <time>1970-01-01T00:28:11.000Z</time>
      </trkpt>
      <trkpt lat="44.37941" lon="3.83458">
        <ele>1355</ele>
        <time>1970-01-01T00:28:12.000Z</time>
      </trkpt>
      <trkpt lat="44.3795" lon="3.83463">
        <ele>1356</ele>
        <time>1970-01-01T00:28:13.000Z</time>
      </trkpt>
      <trkpt lat="44.37958" lon="3.83468">
        <ele>1356</ele>
        <time>1970-01-01T00:28:14.000Z</time>
      </trkpt>
      <trkpt lat="44.3796" lon="3.83469">
        <ele>1356</ele>
        <time>1970-01-01T00:28:15.000Z</time>
      </trkpt>
      <trkpt lat="44.37969" lon="3.83474">
        <ele>1356</ele>
        <time>1970-01-01T00:28:16.000Z</time>
      </trkpt>
      <trkpt lat="44.37977" lon="3.83478">
        <ele>1357</ele>
        <time>1970-01-01T00:28:17.000Z</time>
      </trkpt>
      <trkpt lat="44.37986" lon="3.83483">
        <ele>1357</ele>
        <time>1970-01-01T00:28:18.000Z</time>
      </trkpt>
      <trkpt lat="44.37993" lon="3.83486">
        <ele>1358</ele>
        <time>1970-01-01T00:28:19.000Z</time>
      </trkpt>
      <trkpt lat="44.37999" lon="3.83477">
        <ele>1357</ele>
        <time>1970-01-01T00:28:20.000Z</time>
      </trkpt>
      <trkpt lat="44.38005" lon="3.83468">
        <ele>1360</ele>
        <time>1970-01-01T00:28:21.000Z</time>
      </trkpt>
      <trkpt lat="44.38011" lon="3.83458">
        <ele>1360</ele>
        <time>1970-01-01T00:28:22.000Z</time>
      </trkpt>
      <trkpt lat="44.38017" lon="3.83449">
        <ele>1360</ele>
        <time>1970-01-01T00:28:23.000Z</time>
      </trkpt>
      <trkpt lat="44.38023" lon="3.83439">
        <ele>1360</ele>
        <time>1970-01-01T00:28:24.000Z</time>
      </trkpt>
      <trkpt lat="44.38028" lon="3.8343">
        <ele>1360</ele>
        <time>1970-01-01T00:28:25.000Z</time>
      </trkpt>
      <trkpt lat="44.38031" lon="3.83426">
        <ele>1360</ele>
        <time>1970-01-01T00:28:26.000Z</time>
      </trkpt>
      <trkpt lat="44.38037" lon="3.83417">
        <ele>1360</ele>
        <time>1970-01-01T00:28:27.000Z</time>
      </trkpt>
      <trkpt lat="44.38044" lon="3.83409">
        <ele>1360</ele>
        <time>1970-01-01T00:28:28.000Z</time>
      </trkpt>
      <trkpt lat="44.3805" lon="3.834">
        <ele>1360</ele>
        <time>1970-01-01T00:28:29.000Z</time>
      </trkpt>
      <trkpt lat="44.38057" lon="3.83391">
        <ele>1360</ele>
        <time>1970-01-01T00:28:30.000Z</time>
      </trkpt>
      <trkpt lat="44.38063" lon="3.83382">
        <ele>1360</ele>
        <time>1970-01-01T00:28:31.000Z</time>
      </trkpt>
      <trkpt lat="44.38068" lon="3.83375">
        <ele>1360</ele>
        <time>1970-01-01T00:28:32.000Z</time>
      </trkpt>
      <trkpt lat="44.38077" lon="3.83372">
        <ele>1360</ele>
        <time>1970-01-01T00:28:33.000Z</time>
      </trkpt>
      <trkpt lat="44.38086" lon="3.83369">
        <ele>1363</ele>
        <time>1970-01-01T00:28:34.000Z</time>
      </trkpt>
      <trkpt lat="44.38095" lon="3.83366">
        <ele>1363</ele>
        <time>1970-01-01T00:28:35.000Z</time>
      </trkpt>
      <trkpt lat="44.38103" lon="3.83363">
        <ele>1363</ele>
        <time>1970-01-01T00:28:36.000Z</time>
      </trkpt>
      <trkpt lat="44.38112" lon="3.8336">
        <ele>1364</ele>
        <time>1970-01-01T00:28:37.000Z</time>
      </trkpt>
      <trkpt lat="44.38121" lon="3.83357">
        <ele>1364</ele>
        <time>1970-01-01T00:28:38.000Z</time>
      </trkpt>
      <trkpt lat="44.3813" lon="3.83354">
        <ele>1364</ele>
        <time>1970-01-01T00:28:39.000Z</time>
      </trkpt>
      <trkpt lat="44.38139" lon="3.83351">
        <ele>1365</ele>
        <time>1970-01-01T00:28:40.000Z</time>
      </trkpt>
      <trkpt lat="44.38147" lon="3.83348">
        <ele>1365</ele>
        <time>1970-01-01T00:28:41.000Z</time>
      </trkpt>
      <trkpt lat="44.38156" lon="3.83345">
        <ele>1366</ele>
        <time>1970-01-01T00:28:42.000Z</time>
      </trkpt>
      <trkpt lat="44.38165" lon="3.83342">
        <ele>1366</ele>
        <time>1970-01-01T00:28:43.000Z</time>
      </trkpt>
      <trkpt lat="44.38171" lon="3.8334">
        <ele>1369</ele>
        <time>1970-01-01T00:28:44.000Z</time>
      </trkpt>
      <trkpt lat="44.38175" lon="3.83352">
        <ele>1370</ele>
        <time>1970-01-01T00:28:45.000Z</time>
      </trkpt>
      <trkpt lat="44.38179" lon="3.83363">
        <ele>1371</ele>
        <time>1970-01-01T00:28:46.000Z</time>
      </trkpt>
      <trkpt lat="44.38182" lon="3.83375">
        <ele>1371</ele>
        <time>1970-01-01T00:28:47.000Z</time>
      </trkpt>
      <trkpt lat="44.38186" lon="3.83386">
        <ele>1371</ele>
        <time>1970-01-01T00:28:48.000Z</time>
      </trkpt>
      <trkpt lat="44.3819" lon="3.83397">
        <ele>1371</ele>
        <time>1970-01-01T00:28:49.000Z</time>
      </trkpt>
      <trkpt lat="44.38194" lon="3.83409">
        <ele>1371</ele>
        <time>1970-01-01T00:28:50.000Z</time>
      </trkpt>
      <trkpt lat="44.38197" lon="3.8342">
        <ele>1372</ele>
        <time>1970-01-01T00:28:51.000Z</time>
      </trkpt>
      <trkpt lat="44.38201" lon="3.83432">
        <ele>1372</ele>
        <time>1970-01-01T00:28:52.000Z</time>
      </trkpt>
      <trkpt lat="44.38205" lon="3.83443">
        <ele>1372</ele>
        <time>1970-01-01T00:28:53.000Z</time>
      </trkpt>
      <trkpt lat="44.38209" lon="3.83454">
        <ele>1373</ele>
        <time>1970-01-01T00:28:54.000Z</time>
      </trkpt>
      <trkpt lat="44.38213" lon="3.83466">
        <ele>1373</ele>
        <time>1970-01-01T00:28:55.000Z</time>
      </trkpt>
      <trkpt lat="44.38216" lon="3.83477">
        <ele>1373</ele>
        <time>1970-01-01T00:28:56.000Z</time>
      </trkpt>
      <trkpt lat="44.3822" lon="3.83489">
        <ele>1373</ele>
        <time>1970-01-01T00:28:57.000Z</time>
      </trkpt>
      <trkpt lat="44.38224" lon="3.835">
        <ele>1374</ele>
        <time>1970-01-01T00:28:58.000Z</time>
      </trkpt>
      <trkpt lat="44.38225" lon="3.83504">
        <ele>1374</ele>
        <time>1970-01-01T00:28:59.000Z</time>
      </trkpt>
      <trkpt lat="44.38227" lon="3.83516">
        <ele>1374</ele>
        <time>1970-01-01T00:29:00.000Z</time>
      </trkpt>
      <trkpt lat="44.38229" lon="3.83528">
        <ele>1374</ele>
        <time>1970-01-01T00:29:01.000Z</time>
      </trkpt>
      <trkpt lat="44.38231" lon="3.8354">
        <ele>1374</ele>
        <time>1970-01-01T00:29:02.000Z</time>
      </trkpt>
      <trkpt lat="44.38233" lon="3.83553">
        <ele>1374</ele>
        <time>1970-01-01T00:29:03.000Z</time>
      </trkpt>
      <trkpt lat="44.38235" lon="3.83565">
        <ele>1375</ele>
        <time>1970-01-01T00:29:04.000Z</time>
      </trkpt>
      <trkpt lat="44.38237" lon="3.83577">
        <ele>1376</ele>
        <time>1970-01-01T00:29:05.000Z</time>
      </trkpt>
      <trkpt lat="44.38239" lon="3.83589">
        <ele>1376</ele>
        <time>1970-01-01T00:29:06.000Z</time>
      </trkpt>
      <trkpt lat="44.38242" lon="3.83602">
        <ele>1375</ele>
        <time>1970-01-01T00:29:07.000Z</time>
      </trkpt>
      <trkpt lat="44.38243" lon="3.83614">
        <ele>1374</ele>
        <time>1970-01-01T00:29:08.000Z</time>
      </trkpt>
      <trkpt lat="44.38245" lon="3.83626">
        <ele>1374</ele>
        <time>1970-01-01T00:29:09.000Z</time>
      </trkpt>
      <trkpt lat="44.38248" lon="3.83638">
        <ele>1374</ele>
        <time>1970-01-01T00:29:10.000Z</time>
      </trkpt>
      <trkpt lat="44.3825" lon="3.8365">
        <ele>1374</ele>
        <time>1970-01-01T00:29:11.000Z</time>
      </trkpt>
      <trkpt lat="44.38251" lon="3.83663">
        <ele>1378</ele>
        <time>1970-01-01T00:29:12.000Z</time>
      </trkpt>
      <trkpt lat="44.38254" lon="3.83675">
        <ele>1378</ele>
        <time>1970-01-01T00:29:13.000Z</time>
      </trkpt>
      <trkpt lat="44.38256" lon="3.83687">
        <ele>1379</ele>
        <time>1970-01-01T00:29:14.000Z</time>
      </trkpt>
      <trkpt lat="44.38258" lon="3.83699">
        <ele>1379</ele>
        <time>1970-01-01T00:29:15.000Z</time>
      </trkpt>
      <trkpt lat="44.3826" lon="3.83712">
        <ele>1379</ele>
        <time>1970-01-01T00:29:16.000Z</time>
      </trkpt>
      <trkpt lat="44.38262" lon="3.83724">
        <ele>1378</ele>
        <time>1970-01-01T00:29:17.000Z</time>
      </trkpt>
      <trkpt lat="44.38264" lon="3.83736">
        <ele>1376</ele>
        <time>1970-01-01T00:29:18.000Z</time>
      </trkpt>
      <trkpt lat="44.38266" lon="3.83748">
        <ele>1375</ele>
        <time>1970-01-01T00:29:19.000Z</time>
      </trkpt>
      <trkpt lat="44.38268" lon="3.83761">
        <ele>1372</ele>
        <time>1970-01-01T00:29:20.000Z</time>
      </trkpt>
      <trkpt lat="44.38268" lon="3.83762">
        <ele>1373</ele>
        <time>1970-01-01T00:29:21.000Z</time>
      </trkpt>
      <trkpt lat="44.3827" lon="3.83774">
        <ele>1373</ele>
        <time>1970-01-01T00:29:22.000Z</time>
      </trkpt>
      <trkpt lat="44.38271" lon="3.83786">
        <ele>1373</ele>
        <time>1970-01-01T00:29:23.000Z</time>
      </trkpt>
      <trkpt lat="44.38273" lon="3.83799">
        <ele>1372</ele>
        <time>1970-01-01T00:29:24.000Z</time>
      </trkpt>
      <trkpt lat="44.38275" lon="3.83811">
        <ele>1372</ele>
        <time>1970-01-01T00:29:25.000Z</time>
      </trkpt>
      <trkpt lat="44.38276" lon="3.83823">
        <ele>1371</ele>
        <time>1970-01-01T00:29:26.000Z</time>
      </trkpt>
      <trkpt lat="44.38278" lon="3.83836">
        <ele>1367</ele>
        <time>1970-01-01T00:29:27.000Z</time>
      </trkpt>
      <trkpt lat="44.3828" lon="3.83848">
        <ele>1367</ele>
        <time>1970-01-01T00:29:28.000Z</time>
      </trkpt>
      <trkpt lat="44.38281" lon="3.8386">
        <ele>1367</ele>
        <time>1970-01-01T00:29:29.000Z</time>
      </trkpt>
      <trkpt lat="44.38283" lon="3.83873">
        <ele>1366</ele>
        <time>1970-01-01T00:29:30.000Z</time>
      </trkpt>
      <trkpt lat="44.38285" lon="3.83885">
        <ele>1366</ele>
        <time>1970-01-01T00:29:31.000Z</time>
      </trkpt>
      <trkpt lat="44.38286" lon="3.83898">
        <ele>1366</ele>
        <time>1970-01-01T00:29:32.000Z</time>
      </trkpt>
      <trkpt lat="44.38288" lon="3.8391">
        <ele>1365</ele>
        <time>1970-01-01T00:29:33.000Z</time>
      </trkpt>
      <trkpt lat="44.38289" lon="3.83922">
        <ele>1364</ele>
        <time>1970-01-01T00:29:34.000Z</time>
      </trkpt>
      <trkpt lat="44.3829" lon="3.83925">
        <ele>1364</ele>
        <time>1970-01-01T00:29:35.000Z</time>
      </trkpt>
      <trkpt lat="44.3829" lon="3.83937">
        <ele>1364</ele>
        <time>1970-01-01T00:29:36.000Z</time>
      </trkpt>
      <trkpt lat="44.3829" lon="3.8395">
        <ele>1364</ele>
        <time>1970-01-01T00:29:37.000Z</time>
      </trkpt>
      <trkpt lat="44.38291" lon="3.83963">
        <ele>1365</ele>
        <time>1970-01-01T00:29:38.000Z</time>
      </trkpt>
      <trkpt lat="44.38291" lon="3.83975">
        <ele>1365</ele>
        <time>1970-01-01T00:29:39.000Z</time>
      </trkpt>
      <trkpt lat="44.38291" lon="3.83988">
        <ele>1365</ele>
        <time>1970-01-01T00:29:40.000Z</time>
      </trkpt>
      <trkpt lat="44.38292" lon="3.84">
        <ele>1367</ele>
        <time>1970-01-01T00:29:41.000Z</time>
      </trkpt>
      <trkpt lat="44.38292" lon="3.84013">
        <ele>1367</ele>
        <time>1970-01-01T00:29:42.000Z</time>
      </trkpt>
      <trkpt lat="44.38292" lon="3.84025">
        <ele>1367</ele>
        <time>1970-01-01T00:29:43.000Z</time>
      </trkpt>
      <trkpt lat="44.38292" lon="3.84038">
        <ele>1368</ele>
        <time>1970-01-01T00:29:44.000Z</time>
      </trkpt>
      <trkpt lat="44.38292" lon="3.84051">
        <ele>1368</ele>
        <time>1970-01-01T00:29:45.000Z</time>
      </trkpt>
      <trkpt lat="44.38293" lon="3.84063">
        <ele>1368</ele>
        <time>1970-01-01T00:29:46.000Z</time>
      </trkpt>
      <trkpt lat="44.38293" lon="3.84076">
        <ele>1368</ele>
        <time>1970-01-01T00:29:47.000Z</time>
      </trkpt>
      <trkpt lat="44.38293" lon="3.84088">
        <ele>1370</ele>
        <time>1970-01-01T00:29:48.000Z</time>
      </trkpt>
      <trkpt lat="44.38293" lon="3.84101">
        <ele>1370</ele>
        <time>1970-01-01T00:29:49.000Z</time>
      </trkpt>
      <trkpt lat="44.38294" lon="3.84113">
        <ele>1370</ele>
        <time>1970-01-01T00:29:50.000Z</time>
      </trkpt>
      <trkpt lat="44.38294" lon="3.84126">
        <ele>1370</ele>
        <time>1970-01-01T00:29:51.000Z</time>
      </trkpt>
      <trkpt lat="44.38294" lon="3.84139">
        <ele>1370</ele>
        <time>1970-01-01T00:29:52.000Z</time>
      </trkpt>
      <trkpt lat="44.38295" lon="3.84151">
        <ele>1370</ele>
        <time>1970-01-01T00:29:53.000Z</time>
      </trkpt>
      <trkpt lat="44.38295" lon="3.84164">
        <ele>1370</ele>
        <time>1970-01-01T00:29:54.000Z</time>
      </trkpt>
      <trkpt lat="44.38295" lon="3.84176">
        <ele>1372</ele>
        <time>1970-01-01T00:29:55.000Z</time>
      </trkpt>
      <trkpt lat="44.38295" lon="3.84189">
        <ele>1372</ele>
        <time>1970-01-01T00:29:56.000Z</time>
      </trkpt>
      <trkpt lat="44.38295" lon="3.84191">
        <ele>1373</ele>
        <time>1970-01-01T00:29:57.000Z</time>
      </trkpt>
      <trkpt lat="44.3829" lon="3.84202">
        <ele>1373</ele>
        <time>1970-01-01T00:29:58.000Z</time>
      </trkpt>
      <trkpt lat="44.38285" lon="3.84212">
        <ele>1373</ele>
        <time>1970-01-01T00:29:59.000Z</time>
      </trkpt>
      <trkpt lat="44.38279" lon="3.84222">
        <ele>1374</ele>
        <time>1970-01-01T00:30:00.000Z</time>
      </trkpt>
      <trkpt lat="44.38274" lon="3.84232">
        <ele>1374</ele>
        <time>1970-01-01T00:30:01.000Z</time>
      </trkpt>
      <trkpt lat="44.38269" lon="3.84242">
        <ele>1375</ele>
        <time>1970-01-01T00:30:02.000Z</time>
      </trkpt>
      <trkpt lat="44.38263" lon="3.84252">
        <ele>1378</ele>
        <time>1970-01-01T00:30:03.000Z</time>
      </trkpt>
      <trkpt lat="44.38258" lon="3.84262">
        <ele>1379</ele>
        <time>1970-01-01T00:30:04.000Z</time>
      </trkpt>
      <trkpt lat="44.38253" lon="3.84272">
        <ele>1380</ele>
        <time>1970-01-01T00:30:05.000Z</time>
      </trkpt>
      <trkpt lat="44.38247" lon="3.84282">
        <ele>1383</ele>
        <time>1970-01-01T00:30:06.000Z</time>
      </trkpt>
      <trkpt lat="44.38242" lon="3.84292">
        <ele>1385</ele>
        <time>1970-01-01T00:30:07.000Z</time>
      </trkpt>
      <trkpt lat="44.38237" lon="3.84303">
        <ele>1386</ele>
        <time>1970-01-01T00:30:08.000Z</time>
      </trkpt>
      <trkpt lat="44.38236" lon="3.84303">
        <ele>1386</ele>
        <time>1970-01-01T00:30:09.000Z</time>
      </trkpt>
      <trkpt lat="44.38227" lon="3.843">
        <ele>1385</ele>
        <time>1970-01-01T00:30:10.000Z</time>
      </trkpt>
      <trkpt lat="44.38219" lon="3.84296">
        <ele>1385</ele>
        <time>1970-01-01T00:30:11.000Z</time>
      </trkpt>
      <trkpt lat="44.3821" lon="3.84293">
        <ele>1385</ele>
        <time>1970-01-01T00:30:12.000Z</time>
      </trkpt>
      <trkpt lat="44.38201" lon="3.84289">
        <ele>1385</ele>
        <time>1970-01-01T00:30:13.000Z</time>
      </trkpt>
      <trkpt lat="44.38193" lon="3.84286">
        <ele>1385</ele>
        <time>1970-01-01T00:30:14.000Z</time>
      </trkpt>
      <trkpt lat="44.38184" lon="3.84282">
        <ele>1385</ele>
        <time>1970-01-01T00:30:15.000Z</time>
      </trkpt>
      <trkpt lat="44.38176" lon="3.84279">
        <ele>1385</ele>
        <time>1970-01-01T00:30:16.000Z</time>
      </trkpt>
      <trkpt lat="44.38167" lon="3.84276">
        <ele>1385</ele>
        <time>1970-01-01T00:30:17.000Z</time>
      </trkpt>
      <trkpt lat="44.38158" lon="3.84272">
        <ele>1385</ele>
        <time>1970-01-01T00:30:18.000Z</time>
      </trkpt>
      <trkpt lat="44.3815" lon="3.84269">
        <ele>1385</ele>
        <time>1970-01-01T00:30:19.000Z</time>
      </trkpt>
      <trkpt lat="44.38143" lon="3.84277">
        <ele>1386</ele>
        <time>1970-01-01T00:30:20.000Z</time>
      </trkpt>
      <trkpt lat="44.38136" lon="3.84286">
        <ele>1387</ele>
        <time>1970-01-01T00:30:21.000Z</time>
      </trkpt>
      <trkpt lat="44.3813" lon="3.84295">
        <ele>1387</ele>
        <time>1970-01-01T00:30:22.000Z</time>
      </trkpt>
      <trkpt lat="44.38123" lon="3.84303">
        <ele>1388</ele>
        <time>1970-01-01T00:30:23.000Z</time>
      </trkpt>
      <trkpt lat="44.38117" lon="3.84312">
        <ele>1388</ele>
        <time>1970-01-01T00:30:24.000Z</time>
      </trkpt>
      <trkpt lat="44.3811" lon="3.8432">
        <ele>1389</ele>
        <time>1970-01-01T00:30:25.000Z</time>
      </trkpt>
      <trkpt lat="44.38104" lon="3.84329">
        <ele>1389</ele>
        <time>1970-01-01T00:30:26.000Z</time>
      </trkpt>
      <trkpt lat="44.38097" lon="3.84338">
        <ele>1393</ele>
        <time>1970-01-01T00:30:27.000Z</time>
      </trkpt>
      <trkpt lat="44.38091" lon="3.84346">
        <ele>1393</ele>
        <time>1970-01-01T00:30:28.000Z</time>
      </trkpt>
      <trkpt lat="44.38084" lon="3.84355">
        <ele>1394</ele>
        <time>1970-01-01T00:30:29.000Z</time>
      </trkpt>
      <trkpt lat="44.38078" lon="3.84364">
        <ele>1389</ele>
        <time>1970-01-01T00:30:30.000Z</time>
      </trkpt>
      <trkpt lat="44.38071" lon="3.84372">
        <ele>1389</ele>
        <time>1970-01-01T00:30:31.000Z</time>
      </trkpt>
      <trkpt lat="44.38065" lon="3.84381">
        <ele>1389</ele>
        <time>1970-01-01T00:30:32.000Z</time>
      </trkpt>
      <trkpt lat="44.38058" lon="3.84389">
        <ele>1389</ele>
        <time>1970-01-01T00:30:33.000Z</time>
      </trkpt>
      <trkpt lat="44.38058" lon="3.84402">
        <ele>1390</ele>
        <time>1970-01-01T00:30:34.000Z</time>
      </trkpt>
      <trkpt lat="44.38059" lon="3.84414">
        <ele>1391</ele>
        <time>1970-01-01T00:30:35.000Z</time>
      </trkpt>
      <trkpt lat="44.38059" lon="3.84427">
        <ele>1393</ele>
        <time>1970-01-01T00:30:36.000Z</time>
      </trkpt>
      <trkpt lat="44.3806" lon="3.84439">
        <ele>1393</ele>
        <time>1970-01-01T00:30:37.000Z</time>
      </trkpt>
      <trkpt lat="44.3806" lon="3.84452">
        <ele>1393</ele>
        <time>1970-01-01T00:30:38.000Z</time>
      </trkpt>
      <trkpt lat="44.38061" lon="3.84464">
        <ele>1393</ele>
        <time>1970-01-01T00:30:39.000Z</time>
      </trkpt>
      <trkpt lat="44.38062" lon="3.84477">
        <ele>1394</ele>
        <time>1970-01-01T00:30:40.000Z</time>
      </trkpt>
      <trkpt lat="44.38062" lon="3.8449">
        <ele>1395</ele>
        <time>1970-01-01T00:30:41.000Z</time>
      </trkpt>
      <trkpt lat="44.38063" lon="3.84502">
        <ele>1396</ele>
        <time>1970-01-01T00:30:42.000Z</time>
      </trkpt>
      <trkpt lat="44.38063" lon="3.8451">
        <ele>1396</ele>
        <time>1970-01-01T00:30:43.000Z</time>
      </trkpt>
      <trkpt lat="44.38069" lon="3.84519">
        <ele>1396</ele>
        <time>1970-01-01T00:30:44.000Z</time>
      </trkpt>
      <trkpt lat="44.38075" lon="3.84528">
        <ele>1396</ele>
        <time>1970-01-01T00:30:45.000Z</time>
      </trkpt>
      <trkpt lat="44.38081" lon="3.84538">
        <ele>1396</ele>
        <time>1970-01-01T00:30:46.000Z</time>
      </trkpt>
      <trkpt lat="44.38087" lon="3.84547">
        <ele>1402</ele>
        <time>1970-01-01T00:30:47.000Z</time>
      </trkpt>
      <trkpt lat="44.38093" lon="3.84557">
        <ele>1402</ele>
        <time>1970-01-01T00:30:48.000Z</time>
      </trkpt>
      <trkpt lat="44.38095" lon="3.84561">
        <ele>1401</ele>
        <time>1970-01-01T00:30:49.000Z</time>
      </trkpt>
      <trkpt lat="44.381" lon="3.84572">
        <ele>1401</ele>
        <time>1970-01-01T00:30:50.000Z</time>
      </trkpt>
      <trkpt lat="44.38105" lon="3.84583">
        <ele>1401</ele>
        <time>1970-01-01T00:30:51.000Z</time>
      </trkpt>
      <trkpt lat="44.3811" lon="3.84593">
        <ele>1401</ele>
        <time>1970-01-01T00:30:52.000Z</time>
      </trkpt>
      <trkpt lat="44.38114" lon="3.84604">
        <ele>1401</ele>
        <time>1970-01-01T00:30:53.000Z</time>
      </trkpt>
      <trkpt lat="44.38119" lon="3.84615">
        <ele>1401</ele>
        <time>1970-01-01T00:30:54.000Z</time>
      </trkpt>
      <trkpt lat="44.38123" lon="3.84626">
        <ele>1401</ele>
        <time>1970-01-01T00:30:55.000Z</time>
      </trkpt>
      <trkpt lat="44.38128" lon="3.84637">
        <ele>1401</ele>
        <time>1970-01-01T00:30:56.000Z</time>
      </trkpt>
      <trkpt lat="44.38132" lon="3.84647">
        <ele>1401</ele>
        <time>1970-01-01T00:30:57.000Z</time>
      </trkpt>
      <trkpt lat="44.38137" lon="3.84658">
        <ele>1402</ele>
        <time>1970-01-01T00:30:58.000Z</time>
      </trkpt>
      <trkpt lat="44.38142" lon="3.84669">
        <ele>1402</ele>
        <time>1970-01-01T00:30:59.000Z</time>
      </trkpt>
      <trkpt lat="44.38147" lon="3.8468">
        <ele>1402</ele>
        <time>1970-01-01T00:31:00.000Z</time>
      </trkpt>
      <trkpt lat="44.38151" lon="3.8469">
        <ele>1402</ele>
        <time>1970-01-01T00:31:01.000Z</time>
      </trkpt>
      <trkpt lat="44.38155" lon="3.84699">
        <ele>1403</ele>
        <time>1970-01-01T00:31:02.000Z</time>
      </trkpt>
      <trkpt lat="44.38156" lon="3.84711">
        <ele>1403</ele>
        <time>1970-01-01T00:31:03.000Z</time>
      </trkpt>
      <trkpt lat="44.38158" lon="3.84724">
        <ele>1403</ele>
        <time>1970-01-01T00:31:04.000Z</time>
      </trkpt>
      <trkpt lat="44.38159" lon="3.84736">
        <ele>1404</ele>
        <time>1970-01-01T00:31:05.000Z</time>
      </trkpt>
      <trkpt lat="44.3816" lon="3.84748">
        <ele>1405</ele>
        <time>1970-01-01T00:31:06.000Z</time>
      </trkpt>
      <trkpt lat="44.38161" lon="3.84761">
        <ele>1406</ele>
        <time>1970-01-01T00:31:07.000Z</time>
      </trkpt>
      <trkpt lat="44.38163" lon="3.84773">
        <ele>1406</ele>
        <time>1970-01-01T00:31:08.000Z</time>
      </trkpt>
      <trkpt lat="44.38164" lon="3.84786">
        <ele>1406</ele>
        <time>1970-01-01T00:31:09.000Z</time>
      </trkpt>
      <trkpt lat="44.38165" lon="3.84798">
        <ele>1407</ele>
        <time>1970-01-01T00:31:10.000Z</time>
      </trkpt>
      <trkpt lat="44.38166" lon="3.84811">
        <ele>1407</ele>
        <time>1970-01-01T00:31:11.000Z</time>
      </trkpt>
      <trkpt lat="44.38168" lon="3.84823">
        <ele>1411</ele>
        <time>1970-01-01T00:31:12.000Z</time>
      </trkpt>
      <trkpt lat="44.38169" lon="3.84836">
        <ele>1411</ele>
        <time>1970-01-01T00:31:13.000Z</time>
      </trkpt>
      <trkpt lat="44.38171" lon="3.84848">
        <ele>1414</ele>
        <time>1970-01-01T00:31:14.000Z</time>
      </trkpt>
      <trkpt lat="44.38171" lon="3.84853">
        <ele>1415</ele>
        <time>1970-01-01T00:31:15.000Z</time>
      </trkpt>
      <trkpt lat="44.38174" lon="3.84865">
        <ele>1417</ele>
        <time>1970-01-01T00:31:16.000Z</time>
      </trkpt>
      <trkpt lat="44.38177" lon="3.84877">
        <ele>1418</ele>
        <time>1970-01-01T00:31:17.000Z</time>
      </trkpt>
      <trkpt lat="44.3818" lon="3.84889">
        <ele>1418</ele>
        <time>1970-01-01T00:31:18.000Z</time>
      </trkpt>
      <trkpt lat="44.38183" lon="3.84901">
        <ele>1418</ele>
        <time>1970-01-01T00:31:19.000Z</time>
      </trkpt>
      <trkpt lat="44.38186" lon="3.84913">
        <ele>1419</ele>
        <time>1970-01-01T00:31:20.000Z</time>
      </trkpt>
      <trkpt lat="44.38189" lon="3.84924">
        <ele>1421</ele>
        <time>1970-01-01T00:31:21.000Z</time>
      </trkpt>
      <trkpt lat="44.38192" lon="3.84936">
        <ele>1422</ele>
        <time>1970-01-01T00:31:22.000Z</time>
      </trkpt>
      <trkpt lat="44.38195" lon="3.84948">
        <ele>1423</ele>
        <time>1970-01-01T00:31:23.000Z</time>
      </trkpt>
      <trkpt lat="44.38198" lon="3.8496">
        <ele>1423</ele>
        <time>1970-01-01T00:31:24.000Z</time>
      </trkpt>
      <trkpt lat="44.38202" lon="3.84972">
        <ele>1423</ele>
        <time>1970-01-01T00:31:25.000Z</time>
      </trkpt>
      <trkpt lat="44.38205" lon="3.84984">
        <ele>1423</ele>
        <time>1970-01-01T00:31:26.000Z</time>
      </trkpt>
      <trkpt lat="44.38208" lon="3.84995">
        <ele>1424</ele>
        <time>1970-01-01T00:31:27.000Z</time>
      </trkpt>
      <trkpt lat="44.38209" lon="3.85">
        <ele>1424</ele>
        <time>1970-01-01T00:31:28.000Z</time>
      </trkpt>
      <trkpt lat="44.38217" lon="3.85004">
        <ele>1423</ele>
        <time>1970-01-01T00:31:29.000Z</time>
      </trkpt>
      <trkpt lat="44.38225" lon="3.85008">
        <ele>1424</ele>
        <time>1970-01-01T00:31:30.000Z</time>
      </trkpt>
      <trkpt lat="44.38234" lon="3.85012">
        <ele>1425</ele>
        <time>1970-01-01T00:31:31.000Z</time>
      </trkpt>
      <trkpt lat="44.38242" lon="3.85015">
        <ele>1426</ele>
        <time>1970-01-01T00:31:32.000Z</time>
      </trkpt>
      <trkpt lat="44.38251" lon="3.85018">
        <ele>1428</ele>
        <time>1970-01-01T00:31:33.000Z</time>
      </trkpt>
      <trkpt lat="44.3826" lon="3.85021">
        <ele>1427</ele>
        <time>1970-01-01T00:31:34.000Z</time>
      </trkpt>
      <trkpt lat="44.38268" lon="3.85025">
        <ele>1427</ele>
        <time>1970-01-01T00:31:35.000Z</time>
      </trkpt>
      <trkpt lat="44.38277" lon="3.85028">
        <ele>1427</ele>
        <time>1970-01-01T00:31:36.000Z</time>
      </trkpt>
      <trkpt lat="44.38286" lon="3.85031">
        <ele>1427</ele>
        <time>1970-01-01T00:31:37.000Z</time>
      </trkpt>
      <trkpt lat="44.38295" lon="3.85035">
        <ele>1426</ele>
        <time>1970-01-01T00:31:38.000Z</time>
      </trkpt>
      <trkpt lat="44.38303" lon="3.85038">
        <ele>1426</ele>
        <time>1970-01-01T00:31:39.000Z</time>
      </trkpt>
      <trkpt lat="44.38312" lon="3.85041">
        <ele>1426</ele>
        <time>1970-01-01T00:31:40.000Z</time>
      </trkpt>
      <trkpt lat="44.38321" lon="3.85045">
        <ele>1426</ele>
        <time>1970-01-01T00:31:41.000Z</time>
      </trkpt>
      <trkpt lat="44.38329" lon="3.85048">
        <ele>1426</ele>
        <time>1970-01-01T00:31:42.000Z</time>
      </trkpt>
      <trkpt lat="44.38338" lon="3.85051">
        <ele>1427</ele>
        <time>1970-01-01T00:31:43.000Z</time>
      </trkpt>
      <trkpt lat="44.38338" lon="3.85051">
        <ele>1427</ele>
        <time>1970-01-01T00:31:44.000Z</time>
      </trkpt>
      <trkpt lat="44.38347" lon="3.85053">
        <ele>1427</ele>
        <time>1970-01-01T00:31:45.000Z</time>
      </trkpt>
      <trkpt lat="44.38356" lon="3.85054">
        <ele>1427</ele>
        <time>1970-01-01T00:31:46.000Z</time>
      </trkpt>
      <trkpt lat="44.38365" lon="3.85056">
        <ele>1427</ele>
        <time>1970-01-01T00:31:47.000Z</time>
      </trkpt>
      <trkpt lat="44.38374" lon="3.85057">
        <ele>1428</ele>
        <time>1970-01-01T00:31:48.000Z</time>
      </trkpt>
      <trkpt lat="44.38383" lon="3.85059">
        <ele>1428</ele>
        <time>1970-01-01T00:31:49.000Z</time>
      </trkpt>
      <trkpt lat="44.38392" lon="3.8506">
        <ele>1428</ele>
        <time>1970-01-01T00:31:50.000Z</time>
      </trkpt>
      <trkpt lat="44.38401" lon="3.85062">
        <ele>1428</ele>
        <time>1970-01-01T00:31:51.000Z</time>
      </trkpt>
      <trkpt lat="44.3841" lon="3.85063">
        <ele>1428</ele>
        <time>1970-01-01T00:31:52.000Z</time>
      </trkpt>
      <trkpt lat="44.38419" lon="3.85065">
        <ele>1429</ele>
        <time>1970-01-01T00:31:53.000Z</time>
      </trkpt>
      <trkpt lat="44.38428" lon="3.85066">
        <ele>1429</ele>
        <time>1970-01-01T00:31:54.000Z</time>
      </trkpt>
      <trkpt lat="44.38437" lon="3.85068">
        <ele>1430</ele>
        <time>1970-01-01T00:31:55.000Z</time>
      </trkpt>
      <trkpt lat="44.38441" lon="3.85068">
        <ele>1430</ele>
        <time>1970-01-01T00:31:56.000Z</time>
      </trkpt>
      <trkpt lat="44.38446" lon="3.85079">
        <ele>1430</ele>
        <time>1970-01-01T00:31:57.000Z</time>
      </trkpt>
      <trkpt lat="44.38451" lon="3.85089">
        <ele>1428</ele>
        <time>1970-01-01T00:31:58.000Z</time>
      </trkpt>
      <trkpt lat="44.38457" lon="3.85099">
        <ele>1428</ele>
        <time>1970-01-01T00:31:59.000Z</time>
      </trkpt>
      <trkpt lat="44.38462" lon="3.85109">
        <ele>1428</ele>
        <time>1970-01-01T00:32:00.000Z</time>
      </trkpt>
      <trkpt lat="44.38467" lon="3.85119">
        <ele>1428</ele>
        <time>1970-01-01T00:32:01.000Z</time>
      </trkpt>
      <trkpt lat="44.38472" lon="3.8513">
        <ele>1428</ele>
        <time>1970-01-01T00:32:02.000Z</time>
      </trkpt>
      <trkpt lat="44.38478" lon="3.8514">
        <ele>1428</ele>
        <time>1970-01-01T00:32:03.000Z</time>
      </trkpt>
      <trkpt lat="44.38483" lon="3.8515">
        <ele>1429</ele>
        <time>1970-01-01T00:32:04.000Z</time>
      </trkpt>
      <trkpt lat="44.38488" lon="3.8516">
        <ele>1429</ele>
        <time>1970-01-01T00:32:05.000Z</time>
      </trkpt>
      <trkpt lat="44.3849" lon="3.85163">
        <ele>1429</ele>
        <time>1970-01-01T00:32:06.000Z</time>
      </trkpt>
      <trkpt lat="44.38491" lon="3.85175">
        <ele>1430</ele>
        <time>1970-01-01T00:32:07.000Z</time>
      </trkpt>
      <trkpt lat="44.38491" lon="3.85188">
        <ele>1430</ele>
        <time>1970-01-01T00:32:08.000Z</time>
      </trkpt>
      <trkpt lat="44.38493" lon="3.852">
        <ele>1430</ele>
        <time>1970-01-01T00:32:09.000Z</time>
      </trkpt>
      <trkpt lat="44.38493" lon="3.85213">
        <ele>1430</ele>
        <time>1970-01-01T00:32:10.000Z</time>
      </trkpt>
      <trkpt lat="44.38494" lon="3.85225">
        <ele>1431</ele>
        <time>1970-01-01T00:32:11.000Z</time>
      </trkpt>
      <trkpt lat="44.38495" lon="3.85232">
        <ele>1431</ele>
        <time>1970-01-01T00:32:12.000Z</time>
      </trkpt>
      <trkpt lat="44.3849" lon="3.85242">
        <ele>1431</ele>
        <time>1970-01-01T00:32:13.000Z</time>
      </trkpt>
      <trkpt lat="44.38485" lon="3.85253">
        <ele>1434</ele>
        <time>1970-01-01T00:32:14.000Z</time>
      </trkpt>
      <trkpt lat="44.3848" lon="3.85263">
        <ele>1434</ele>
        <time>1970-01-01T00:32:15.000Z</time>
      </trkpt>
      <trkpt lat="44.38475" lon="3.85274">
        <ele>1435</ele>
        <time>1970-01-01T00:32:16.000Z</time>
      </trkpt>
      <trkpt lat="44.3847" lon="3.85284">
        <ele>1435</ele>
        <time>1970-01-01T00:32:17.000Z</time>
      </trkpt>
      <trkpt lat="44.38465" lon="3.85294">
        <ele>1436</ele>
        <time>1970-01-01T00:32:18.000Z</time>
      </trkpt>
      <trkpt lat="44.3846" lon="3.85305">
        <ele>1436</ele>
        <time>1970-01-01T00:32:19.000Z</time>
      </trkpt>
      <trkpt lat="44.38455" lon="3.85315">
        <ele>1436</ele>
        <time>1970-01-01T00:32:20.000Z</time>
      </trkpt>
      <trkpt lat="44.3845" lon="3.85326">
        <ele>1437</ele>
        <time>1970-01-01T00:32:21.000Z</time>
      </trkpt>
      <trkpt lat="44.38445" lon="3.85336">
        <ele>1442</ele>
        <time>1970-01-01T00:32:22.000Z</time>
      </trkpt>
      <trkpt lat="44.3844" lon="3.85347">
        <ele>1442</ele>
        <time>1970-01-01T00:32:23.000Z</time>
      </trkpt>
      <trkpt lat="44.38435" lon="3.85357">
        <ele>1443</ele>
        <time>1970-01-01T00:32:24.000Z</time>
      </trkpt>
      <trkpt lat="44.3843" lon="3.85368">
        <ele>1443</ele>
        <time>1970-01-01T00:32:25.000Z</time>
      </trkpt>
      <trkpt lat="44.38425" lon="3.85378">
        <ele>1444</ele>
        <time>1970-01-01T00:32:26.000Z</time>
      </trkpt>
      <trkpt lat="44.38425" lon="3.85378">
        <ele>1444</ele>
        <time>1970-01-01T00:32:27.000Z</time>
      </trkpt>
      <trkpt lat="44.38418" lon="3.85386">
        <ele>1444</ele>
        <time>1970-01-01T00:32:28.000Z</time>
      </trkpt>
      <trkpt lat="44.38411" lon="3.85395">
        <ele>1443</ele>
        <time>1970-01-01T00:32:29.000Z</time>
      </trkpt>
      <trkpt lat="44.38404" lon="3.85403">
        <ele>1443</ele>
        <time>1970-01-01T00:32:30.000Z</time>
      </trkpt>
      <trkpt lat="44.38398" lon="3.85411">
        <ele>1443</ele>
        <time>1970-01-01T00:32:31.000Z</time>
      </trkpt>
      <trkpt lat="44.38391" lon="3.85419">
        <ele>1444</ele>
        <time>1970-01-01T00:32:32.000Z</time>
      </trkpt>
      <trkpt lat="44.38384" lon="3.85428">
        <ele>1443</ele>
        <time>1970-01-01T00:32:33.000Z</time>
      </trkpt>
      <trkpt lat="44.38377" lon="3.85436">
        <ele>1443</ele>
        <time>1970-01-01T00:32:34.000Z</time>
      </trkpt>
      <trkpt lat="44.38371" lon="3.85444">
        <ele>1443</ele>
        <time>1970-01-01T00:32:35.000Z</time>
      </trkpt>
      <trkpt lat="44.38364" lon="3.85453">
        <ele>1442</ele>
        <time>1970-01-01T00:32:36.000Z</time>
      </trkpt>
      <trkpt lat="44.38357" lon="3.85461">
        <ele>1442</ele>
        <time>1970-01-01T00:32:37.000Z</time>
      </trkpt>
      <trkpt lat="44.38354" lon="3.85464">
        <ele>1442</ele>
        <time>1970-01-01T00:32:38.000Z</time>
      </trkpt>
      <trkpt lat="44.38358" lon="3.85476">
        <ele>1442</ele>
        <time>1970-01-01T00:32:39.000Z</time>
      </trkpt>
      <trkpt lat="44.38361" lon="3.85488">
        <ele>1441</ele>
        <time>1970-01-01T00:32:40.000Z</time>
      </trkpt>
      <trkpt lat="44.38364" lon="3.85499">
        <ele>1442</ele>
        <time>1970-01-01T00:32:41.000Z</time>
      </trkpt>
      <trkpt lat="44.38367" lon="3.85511">
        <ele>1441</ele>
        <time>1970-01-01T00:32:42.000Z</time>
      </trkpt>
      <trkpt lat="44.3837" lon="3.85523">
        <ele>1441</ele>
        <time>1970-01-01T00:32:43.000Z</time>
      </trkpt>
      <trkpt lat="44.38373" lon="3.85535">
        <ele>1441</ele>
        <time>1970-01-01T00:32:44.000Z</time>
      </trkpt>
      <trkpt lat="44.38376" lon="3.85547">
        <ele>1441</ele>
        <time>1970-01-01T00:32:45.000Z</time>
      </trkpt>
      <trkpt lat="44.38379" lon="3.85558">
        <ele>1441</ele>
        <time>1970-01-01T00:32:46.000Z</time>
      </trkpt>
      <trkpt lat="44.38382" lon="3.8557">
        <ele>1441</ele>
        <time>1970-01-01T00:32:47.000Z</time>
      </trkpt>
      <trkpt lat="44.38385" lon="3.85582">
        <ele>1442</ele>
        <time>1970-01-01T00:32:48.000Z</time>
      </trkpt>
      <trkpt lat="44.38388" lon="3.85594">
        <ele>1440</ele>
        <time>1970-01-01T00:32:49.000Z</time>
      </trkpt>
      <trkpt lat="44.38391" lon="3.85606">
        <ele>1439</ele>
        <time>1970-01-01T00:32:50.000Z</time>
      </trkpt>
      <trkpt lat="44.38392" lon="3.8561">
        <ele>1439</ele>
        <time>1970-01-01T00:32:51.000Z</time>
      </trkpt>
      <trkpt lat="44.38394" lon="3.85622">
        <ele>1439</ele>
        <time>1970-01-01T00:32:52.000Z</time>
      </trkpt>
      <trkpt lat="44.38396" lon="3.85635">
        <ele>1439</ele>
        <time>1970-01-01T00:32:53.000Z</time>
      </trkpt>
      <trkpt lat="44.38398" lon="3.85647">
        <ele>1439</ele>
        <time>1970-01-01T00:32:54.000Z</time>
      </trkpt>
      <trkpt lat="44.384" lon="3.85659">
        <ele>1439</ele>
        <time>1970-01-01T00:32:55.000Z</time>
      </trkpt>
      <trkpt lat="44.38401" lon="3.85672">
        <ele>1438</ele>
        <time>1970-01-01T00:32:56.000Z</time>
      </trkpt>
      <trkpt lat="44.38403" lon="3.85684">
        <ele>1437</ele>
        <time>1970-01-01T00:32:57.000Z</time>
      </trkpt>
      <trkpt lat="44.38405" lon="3.85696">
        <ele>1436</ele>
        <time>1970-01-01T00:32:58.000Z</time>
      </trkpt>
      <trkpt lat="44.38406" lon="3.85709">
        <ele>1436</ele>
        <time>1970-01-01T00:32:59.000Z</time>
      </trkpt>
      <trkpt lat="44.38408" lon="3.85721">
        <ele>1436</ele>
        <time>1970-01-01T00:33:00.000Z</time>
      </trkpt>
      <trkpt lat="44.3841" lon="3.85733">
        <ele>1436</ele>
        <time>1970-01-01T00:33:01.000Z</time>
      </trkpt>
      <trkpt lat="44.38412" lon="3.85746">
        <ele>1436</ele>
        <time>1970-01-01T00:33:02.000Z</time>
      </trkpt>
      <trkpt lat="44.38414" lon="3.85758">
        <ele>1436</ele>
        <time>1970-01-01T00:33:03.000Z</time>
      </trkpt>
      <trkpt lat="44.38415" lon="3.8577">
        <ele>1435</ele>
        <time>1970-01-01T00:33:04.000Z</time>
      </trkpt>
      <trkpt lat="44.38417" lon="3.85783">
        <ele>1438</ele>
        <time>1970-01-01T00:33:05.000Z</time>
      </trkpt>
      <trkpt lat="44.38419" lon="3.85795">
        <ele>1438</ele>
        <time>1970-01-01T00:33:06.000Z</time>
      </trkpt>
      <trkpt lat="44.38419" lon="3.85799">
        <ele>1438</ele>
        <time>1970-01-01T00:33:07.000Z</time>
      </trkpt>
      <trkpt lat="44.38418" lon="3.85812">
        <ele>1438</ele>
        <time>1970-01-01T00:33:08.000Z</time>
      </trkpt>
      <trkpt lat="44.38417" lon="3.85824">
        <ele>1437</ele>
        <time>1970-01-01T00:33:09.000Z</time>
      </trkpt>
      <trkpt lat="44.38416" lon="3.85837">
        <ele>1436</ele>
        <time>1970-01-01T00:33:10.000Z</time>
      </trkpt>
      <trkpt lat="44.38415" lon="3.85849">
        <ele>1435</ele>
        <time>1970-01-01T00:33:11.000Z</time>
      </trkpt>
      <trkpt lat="44.38413" lon="3.85861">
        <ele>1434</ele>
        <time>1970-01-01T00:33:12.000Z</time>
      </trkpt>
      <trkpt lat="44.38412" lon="3.85874">
        <ele>1434</ele>
        <time>1970-01-01T00:33:13.000Z</time>
      </trkpt>
      <trkpt lat="44.38411" lon="3.85886">
        <ele>1434</ele>
        <time>1970-01-01T00:33:14.000Z</time>
      </trkpt>
      <trkpt lat="44.3841" lon="3.85899">
        <ele>1434</ele>
        <time>1970-01-01T00:33:15.000Z</time>
      </trkpt>
      <trkpt lat="44.38409" lon="3.85911">
        <ele>1434</ele>
        <time>1970-01-01T00:33:16.000Z</time>
      </trkpt>
      <trkpt lat="44.38408" lon="3.85924">
        <ele>1434</ele>
        <time>1970-01-01T00:33:17.000Z</time>
      </trkpt>
      <trkpt lat="44.38406" lon="3.85936">
        <ele>1434</ele>
        <time>1970-01-01T00:33:18.000Z</time>
      </trkpt>
      <trkpt lat="44.38405" lon="3.85949">
        <ele>1433</ele>
        <time>1970-01-01T00:33:19.000Z</time>
      </trkpt>
      <trkpt lat="44.38404" lon="3.85961">
        <ele>1433</ele>
        <time>1970-01-01T00:33:20.000Z</time>
      </trkpt>
      <trkpt lat="44.38403" lon="3.85974">
        <ele>1434</ele>
        <time>1970-01-01T00:33:21.000Z</time>
      </trkpt>
      <trkpt lat="44.38401" lon="3.85986">
        <ele>1434</ele>
        <time>1970-01-01T00:33:22.000Z</time>
      </trkpt>
      <trkpt lat="44.384" lon="3.85999">
        <ele>1434</ele>
        <time>1970-01-01T00:33:23.000Z</time>
      </trkpt>
      <trkpt lat="44.38399" lon="3.86011">
        <ele>1434</ele>
        <time>1970-01-01T00:33:24.000Z</time>
      </trkpt>
      <trkpt lat="44.38398" lon="3.86023">
        <ele>1434</ele>
        <time>1970-01-01T00:33:25.000Z</time>
      </trkpt>
      <trkpt lat="44.38397" lon="3.86035">
        <ele>1434</ele>
        <time>1970-01-01T00:33:26.000Z</time>
      </trkpt>
      <trkpt lat="44.38397" lon="3.86048">
        <ele>1434</ele>
        <time>1970-01-01T00:33:27.000Z</time>
      </trkpt>
      <trkpt lat="44.38396" lon="3.8606">
        <ele>1434</ele>
        <time>1970-01-01T00:33:28.000Z</time>
      </trkpt>
      <trkpt lat="44.38396" lon="3.86073">
        <ele>1434</ele>
        <time>1970-01-01T00:33:29.000Z</time>
      </trkpt>
      <trkpt lat="44.38395" lon="3.86085">
        <ele>1434</ele>
        <time>1970-01-01T00:33:30.000Z</time>
      </trkpt>
      <trkpt lat="44.38395" lon="3.86098">
        <ele>1434</ele>
        <time>1970-01-01T00:33:31.000Z</time>
      </trkpt>
      <trkpt lat="44.38394" lon="3.86111">
        <ele>1435</ele>
        <time>1970-01-01T00:33:32.000Z</time>
      </trkpt>
      <trkpt lat="44.38393" lon="3.86123">
        <ele>1435</ele>
        <time>1970-01-01T00:33:33.000Z</time>
      </trkpt>
      <trkpt lat="44.38393" lon="3.86136">
        <ele>1435</ele>
        <time>1970-01-01T00:33:34.000Z</time>
      </trkpt>
      <trkpt lat="44.38392" lon="3.86143">
        <ele>1435</ele>
        <time>1970-01-01T00:33:35.000Z</time>
      </trkpt>
      <trkpt lat="44.38393" lon="3.86156">
        <ele>1436</ele>
        <time>1970-01-01T00:33:36.000Z</time>
      </trkpt>
      <trkpt lat="44.38394" lon="3.86168">
        <ele>1437</ele>
        <time>1970-01-01T00:33:37.000Z</time>
      </trkpt>
      <trkpt lat="44.38395" lon="3.86181">
        <ele>1437</ele>
        <time>1970-01-01T00:33:38.000Z</time>
      </trkpt>
      <trkpt lat="44.38396" lon="3.86193">
        <ele>1437</ele>
        <time>1970-01-01T00:33:39.000Z</time>
      </trkpt>
      <trkpt lat="44.38396" lon="3.86206">
        <ele>1437</ele>
        <time>1970-01-01T00:33:40.000Z</time>
      </trkpt>
      <trkpt lat="44.38397" lon="3.86218">
        <ele>1438</ele>
        <time>1970-01-01T00:33:41.000Z</time>
      </trkpt>
      <trkpt lat="44.38398" lon="3.86231">
        <ele>1438</ele>
        <time>1970-01-01T00:33:42.000Z</time>
      </trkpt>
      <trkpt lat="44.38399" lon="3.86243">
        <ele>1439</ele>
        <time>1970-01-01T00:33:43.000Z</time>
      </trkpt>
      <trkpt lat="44.384" lon="3.86256">
        <ele>1439</ele>
        <time>1970-01-01T00:33:44.000Z</time>
      </trkpt>
      <trkpt lat="44.384" lon="3.86268">
        <ele>1439</ele>
        <time>1970-01-01T00:33:45.000Z</time>
      </trkpt>
      <trkpt lat="44.38401" lon="3.86281">
        <ele>1438</ele>
        <time>1970-01-01T00:33:46.000Z</time>
      </trkpt>
      <trkpt lat="44.38402" lon="3.86293">
        <ele>1438</ele>
        <time>1970-01-01T00:33:47.000Z</time>
      </trkpt>
      <trkpt lat="44.38403" lon="3.86306">
        <ele>1438</ele>
        <time>1970-01-01T00:33:48.000Z</time>
      </trkpt>
      <trkpt lat="44.38403" lon="3.86315">
        <ele>1439</ele>
        <time>1970-01-01T00:33:49.000Z</time>
      </trkpt>
      <trkpt lat="44.38408" lon="3.86326">
        <ele>1440</ele>
        <time>1970-01-01T00:33:50.000Z</time>
      </trkpt>
      <trkpt lat="44.38412" lon="3.86336">
        <ele>1440</ele>
        <time>1970-01-01T00:33:51.000Z</time>
      </trkpt>
      <trkpt lat="44.38417" lon="3.86347">
        <ele>1441</ele>
        <time>1970-01-01T00:33:52.000Z</time>
      </trkpt>
      <trkpt lat="44.38422" lon="3.86358">
        <ele>1441</ele>
        <time>1970-01-01T00:33:53.000Z</time>
      </trkpt>
      <trkpt lat="44.38427" lon="3.86369">
        <ele>1441</ele>
        <time>1970-01-01T00:33:54.000Z</time>
      </trkpt>
      <trkpt lat="44.38432" lon="3.86379">
        <ele>1441</ele>
        <time>1970-01-01T00:33:55.000Z</time>
      </trkpt>
      <trkpt lat="44.38436" lon="3.8639">
        <ele>1441</ele>
        <time>1970-01-01T00:33:56.000Z</time>
      </trkpt>
      <trkpt lat="44.38441" lon="3.86401">
        <ele>1441</ele>
        <time>1970-01-01T00:33:57.000Z</time>
      </trkpt>
      <trkpt lat="44.38441" lon="3.86401">
        <ele>1441</ele>
        <time>1970-01-01T00:33:58.000Z</time>
      </trkpt>
      <trkpt lat="44.3844" lon="3.86413">
        <ele>1440</ele>
        <time>1970-01-01T00:33:59.000Z</time>
      </trkpt>
      <trkpt lat="44.38438" lon="3.86426">
        <ele>1439</ele>
        <time>1970-01-01T00:34:00.000Z</time>
      </trkpt>
      <trkpt lat="44.38437" lon="3.86438">
        <ele>1439</ele>
        <time>1970-01-01T00:34:01.000Z</time>
      </trkpt>
      <trkpt lat="44.38435" lon="3.86451">
        <ele>1439</ele>
        <time>1970-01-01T00:34:02.000Z</time>
      </trkpt>
      <trkpt lat="44.38433" lon="3.86463">
        <ele>1438</ele>
        <time>1970-01-01T00:34:03.000Z</time>
      </trkpt>
      <trkpt lat="44.38432" lon="3.86475">
        <ele>1438</ele>
        <time>1970-01-01T00:34:04.000Z</time>
      </trkpt>
      <trkpt lat="44.3843" lon="3.86487">
        <ele>1437</ele>
        <time>1970-01-01T00:34:05.000Z</time>
      </trkpt>
      <trkpt lat="44.38436" lon="3.86496">
        <ele>1437</ele>
        <time>1970-01-01T00:34:06.000Z</time>
      </trkpt>
      <trkpt lat="44.38442" lon="3.86506">
        <ele>1436</ele>
        <time>1970-01-01T00:34:07.000Z</time>
      </trkpt>
      <trkpt lat="44.38448" lon="3.86515">
        <ele>1437</ele>
        <time>1970-01-01T00:34:08.000Z</time>
      </trkpt>
      <trkpt lat="44.38454" lon="3.86525">
        <ele>1438</ele>
        <time>1970-01-01T00:34:09.000Z</time>
      </trkpt>
      <trkpt lat="44.3846" lon="3.86534">
        <ele>1438</ele>
        <time>1970-01-01T00:34:10.000Z</time>
      </trkpt>
      <trkpt lat="44.38466" lon="3.86544">
        <ele>1438</ele>
        <time>1970-01-01T00:34:11.000Z</time>
      </trkpt>
      <trkpt lat="44.38472" lon="3.86553">
        <ele>1439</ele>
        <time>1970-01-01T00:34:12.000Z</time>
      </trkpt>
      <trkpt lat="44.38478" lon="3.86563">
        <ele>1439</ele>
        <time>1970-01-01T00:34:13.000Z</time>
      </trkpt>
      <trkpt lat="44.38483" lon="3.86572">
        <ele>1440</ele>
        <time>1970-01-01T00:34:14.000Z</time>
      </trkpt>
      <trkpt lat="44.3849" lon="3.86582">
        <ele>1441</ele>
        <time>1970-01-01T00:34:15.000Z</time>
      </trkpt>
      <trkpt lat="44.3849" lon="3.86582">
        <ele>1441</ele>
        <time>1970-01-01T00:34:16.000Z</time>
      </trkpt>
      <trkpt lat="44.38495" lon="3.86592">
        <ele>1440</ele>
        <time>1970-01-01T00:34:17.000Z</time>
      </trkpt>
      <trkpt lat="44.385" lon="3.86602">
        <ele>1442</ele>
        <time>1970-01-01T00:34:18.000Z</time>
      </trkpt>
      <trkpt lat="44.38505" lon="3.86612">
        <ele>1442</ele>
        <time>1970-01-01T00:34:19.000Z</time>
      </trkpt>
      <trkpt lat="44.38511" lon="3.86622">
        <ele>1441</ele>
        <time>1970-01-01T00:34:20.000Z</time>
      </trkpt>
      <trkpt lat="44.38516" lon="3.86633">
        <ele>1441</ele>
        <time>1970-01-01T00:34:21.000Z</time>
      </trkpt>
      <trkpt lat="44.38521" lon="3.86643">
        <ele>1440</ele>
        <time>1970-01-01T00:34:22.000Z</time>
      </trkpt>
      <trkpt lat="44.38527" lon="3.86653">
        <ele>1440</ele>
        <time>1970-01-01T00:34:23.000Z</time>
      </trkpt>
      <trkpt lat="44.38531" lon="3.86663">
        <ele>1440</ele>
        <time>1970-01-01T00:34:24.000Z</time>
      </trkpt>
      <trkpt lat="44.38537" lon="3.86673">
        <ele>1436</ele>
        <time>1970-01-01T00:34:25.000Z</time>
      </trkpt>
      <trkpt lat="44.38542" lon="3.86684">
        <ele>1436</ele>
        <time>1970-01-01T00:34:26.000Z</time>
      </trkpt>
      <trkpt lat="44.38548" lon="3.86694">
        <ele>1436</ele>
        <time>1970-01-01T00:34:27.000Z</time>
      </trkpt>
      <trkpt lat="44.38552" lon="3.86704">
        <ele>1436</ele>
        <time>1970-01-01T00:34:28.000Z</time>
      </trkpt>
      <trkpt lat="44.38558" lon="3.86714">
        <ele>1436</ele>
        <time>1970-01-01T00:34:29.000Z</time>
      </trkpt>
      <trkpt lat="44.38563" lon="3.86724">
        <ele>1436</ele>
        <time>1970-01-01T00:34:30.000Z</time>
      </trkpt>
      <trkpt lat="44.38565" lon="3.86728">
        <ele>1436</ele>
        <time>1970-01-01T00:34:31.000Z</time>
      </trkpt>
      <trkpt lat="44.3857" lon="3.86738">
        <ele>1436</ele>
        <time>1970-01-01T00:34:32.000Z</time>
      </trkpt>
      <trkpt lat="44.38576" lon="3.86748">
        <ele>1436</ele>
        <time>1970-01-01T00:34:33.000Z</time>
      </trkpt>
      <trkpt lat="44.38581" lon="3.86758">
        <ele>1435</ele>
        <time>1970-01-01T00:34:34.000Z</time>
      </trkpt>
      <trkpt lat="44.38587" lon="3.86768">
        <ele>1438</ele>
        <time>1970-01-01T00:34:35.000Z</time>
      </trkpt>
      <trkpt lat="44.38592" lon="3.86778">
        <ele>1439</ele>
        <time>1970-01-01T00:34:36.000Z</time>
      </trkpt>
      <trkpt lat="44.38597" lon="3.86788">
        <ele>1439</ele>
        <time>1970-01-01T00:34:37.000Z</time>
      </trkpt>
      <trkpt lat="44.38603" lon="3.86798">
        <ele>1439</ele>
        <time>1970-01-01T00:34:38.000Z</time>
      </trkpt>
      <trkpt lat="44.38608" lon="3.86808">
        <ele>1439</ele>
        <time>1970-01-01T00:34:39.000Z</time>
      </trkpt>
      <trkpt lat="44.38614" lon="3.86818">
        <ele>1439</ele>
        <time>1970-01-01T00:34:40.000Z</time>
      </trkpt>
      <trkpt lat="44.38619" lon="3.86828">
        <ele>1440</ele>
        <time>1970-01-01T00:34:41.000Z</time>
      </trkpt>
      <trkpt lat="44.38625" lon="3.86838">
        <ele>1441</ele>
        <time>1970-01-01T00:34:42.000Z</time>
      </trkpt>
      <trkpt lat="44.3863" lon="3.86848">
        <ele>1441</ele>
        <time>1970-01-01T00:34:43.000Z</time>
      </trkpt>
      <trkpt lat="44.3863" lon="3.86861">
        <ele>1441</ele>
        <time>1970-01-01T00:34:44.000Z</time>
      </trkpt>
      <trkpt lat="44.3863" lon="3.86873">
        <ele>1442</ele>
        <time>1970-01-01T00:34:45.000Z</time>
      </trkpt>
      <trkpt lat="44.3863" lon="3.86886">
        <ele>1442</ele>
        <time>1970-01-01T00:34:46.000Z</time>
      </trkpt>
      <trkpt lat="44.3863" lon="3.86898">
        <ele>1442</ele>
        <time>1970-01-01T00:34:47.000Z</time>
      </trkpt>
      <trkpt lat="44.3863" lon="3.86911">
        <ele>1442</ele>
        <time>1970-01-01T00:34:48.000Z</time>
      </trkpt>
      <trkpt lat="44.3863" lon="3.86924">
        <ele>1442</ele>
        <time>1970-01-01T00:34:49.000Z</time>
      </trkpt>
      <trkpt lat="44.3863" lon="3.86936">
        <ele>1442</ele>
        <time>1970-01-01T00:34:50.000Z</time>
      </trkpt>
      <trkpt lat="44.3863" lon="3.86949">
        <ele>1442</ele>
        <time>1970-01-01T00:34:51.000Z</time>
      </trkpt>
      <trkpt lat="44.3863" lon="3.86961">
        <ele>1442</ele>
        <time>1970-01-01T00:34:52.000Z</time>
      </trkpt>
      <trkpt lat="44.3863" lon="3.86974">
        <ele>1442</ele>
        <time>1970-01-01T00:34:53.000Z</time>
      </trkpt>
      <trkpt lat="44.3863" lon="3.86986">
        <ele>1441</ele>
        <time>1970-01-01T00:34:54.000Z</time>
      </trkpt>
      <trkpt lat="44.3863" lon="3.86999">
        <ele>1441</ele>
        <time>1970-01-01T00:34:55.000Z</time>
      </trkpt>
      <trkpt lat="44.3863" lon="3.87003">
        <ele>1440</ele>
        <time>1970-01-01T00:34:56.000Z</time>
      </trkpt>
      <trkpt lat="44.38635" lon="3.87013">
        <ele>1440</ele>
        <time>1970-01-01T00:34:57.000Z</time>
      </trkpt>
      <trkpt lat="44.38639" lon="3.87024">
        <ele>1440</ele>
        <time>1970-01-01T00:34:58.000Z</time>
      </trkpt>
      <trkpt lat="44.38644" lon="3.87035">
        <ele>1440</ele>
        <time>1970-01-01T00:34:59.000Z</time>
      </trkpt>
      <trkpt lat="44.38649" lon="3.87045">
        <ele>1440</ele>
        <time>1970-01-01T00:35:00.000Z</time>
      </trkpt>
      <trkpt lat="44.38654" lon="3.87056">
        <ele>1440</ele>
        <time>1970-01-01T00:35:01.000Z</time>
      </trkpt>
      <trkpt lat="44.38659" lon="3.87066">
        <ele>1440</ele>
        <time>1970-01-01T00:35:02.000Z</time>
      </trkpt>
      <trkpt lat="44.38664" lon="3.87077">
        <ele>1440</ele>
        <time>1970-01-01T00:35:03.000Z</time>
      </trkpt>
      <trkpt lat="44.38669" lon="3.87087">
        <ele>1442</ele>
        <time>1970-01-01T00:35:04.000Z</time>
      </trkpt>
      <trkpt lat="44.38674" lon="3.87098">
        <ele>1443</ele>
        <time>1970-01-01T00:35:05.000Z</time>
      </trkpt>
      <trkpt lat="44.38678" lon="3.87109">
        <ele>1444</ele>
        <time>1970-01-01T00:35:06.000Z</time>
      </trkpt>
      <trkpt lat="44.38683" lon="3.87119">
        <ele>1444</ele>
        <time>1970-01-01T00:35:07.000Z</time>
      </trkpt>
      <trkpt lat="44.38688" lon="3.8713">
        <ele>1444</ele>
        <time>1970-01-01T00:35:08.000Z</time>
      </trkpt>
      <trkpt lat="44.38689" lon="3.87132">
        <ele>1444</ele>
        <time>1970-01-01T00:35:09.000Z</time>
      </trkpt>
      <trkpt lat="44.3869" lon="3.87144">
        <ele>1443</ele>
        <time>1970-01-01T00:35:10.000Z</time>
      </trkpt>
      <trkpt lat="44.3869" lon="3.87157">
        <ele>1443</ele>
        <time>1970-01-01T00:35:11.000Z</time>
      </trkpt>
      <trkpt lat="44.38691" lon="3.8717">
        <ele>1440</ele>
        <time>1970-01-01T00:35:12.000Z</time>
      </trkpt>
      <trkpt lat="44.38691" lon="3.87182">
        <ele>1440</ele>
        <time>1970-01-01T00:35:13.000Z</time>
      </trkpt>
      <trkpt lat="44.38692" lon="3.87195">
        <ele>1440</ele>
        <time>1970-01-01T00:35:14.000Z</time>
      </trkpt>
      <trkpt lat="44.38692" lon="3.87207">
        <ele>1440</ele>
        <time>1970-01-01T00:35:15.000Z</time>
      </trkpt>
      <trkpt lat="44.38692" lon="3.8722">
        <ele>1440</ele>
        <time>1970-01-01T00:35:16.000Z</time>
      </trkpt>
      <trkpt lat="44.38693" lon="3.87232">
        <ele>1439</ele>
        <time>1970-01-01T00:35:17.000Z</time>
      </trkpt>
      <trkpt lat="44.38694" lon="3.87245">
        <ele>1438</ele>
        <time>1970-01-01T00:35:18.000Z</time>
      </trkpt>
      <trkpt lat="44.38694" lon="3.87257">
        <ele>1438</ele>
        <time>1970-01-01T00:35:19.000Z</time>
      </trkpt>
      <trkpt lat="44.38694" lon="3.8727">
        <ele>1439</ele>
        <time>1970-01-01T00:35:20.000Z</time>
      </trkpt>
      <trkpt lat="44.38695" lon="3.87278">
        <ele>1439</ele>
        <time>1970-01-01T00:35:21.000Z</time>
      </trkpt>
      <trkpt lat="44.38691" lon="3.8729">
        <ele>1439</ele>
        <time>1970-01-01T00:35:22.000Z</time>
      </trkpt>
      <trkpt lat="44.38688" lon="3.87301">
        <ele>1439</ele>
        <time>1970-01-01T00:35:23.000Z</time>
      </trkpt>
      <trkpt lat="44.38685" lon="3.87313">
        <ele>1438</ele>
        <time>1970-01-01T00:35:24.000Z</time>
      </trkpt>
      <trkpt lat="44.38682" lon="3.87325">
        <ele>1437</ele>
        <time>1970-01-01T00:35:25.000Z</time>
      </trkpt>
      <trkpt lat="44.38679" lon="3.87337">
        <ele>1437</ele>
        <time>1970-01-01T00:35:26.000Z</time>
      </trkpt>
      <trkpt lat="44.38675" lon="3.87348">
        <ele>1438</ele>
        <time>1970-01-01T00:35:27.000Z</time>
      </trkpt>
      <trkpt lat="44.38672" lon="3.8736">
        <ele>1440</ele>
        <time>1970-01-01T00:35:28.000Z</time>
      </trkpt>
      <trkpt lat="44.38669" lon="3.87372">
        <ele>1441</ele>
        <time>1970-01-01T00:35:29.000Z</time>
      </trkpt>
      <trkpt lat="44.38666" lon="3.87384">
        <ele>1432</ele>
        <time>1970-01-01T00:35:30.000Z</time>
      </trkpt>
      <trkpt lat="44.38663" lon="3.87395">
        <ele>1433</ele>
        <time>1970-01-01T00:35:31.000Z</time>
      </trkpt>
      <trkpt lat="44.38659" lon="3.87407">
        <ele>1434</ele>
        <time>1970-01-01T00:35:32.000Z</time>
      </trkpt>
      <trkpt lat="44.38657" lon="3.87416">
        <ele>1434</ele>
        <time>1970-01-01T00:35:33.000Z</time>
      </trkpt>
      <trkpt lat="44.38652" lon="3.87426">
        <ele>1434</ele>
        <time>1970-01-01T00:35:34.000Z</time>
      </trkpt>
      <trkpt lat="44.38648" lon="3.87437">
        <ele>1434</ele>
        <time>1970-01-01T00:35:35.000Z</time>
      </trkpt>
      <trkpt lat="44.38643" lon="3.87448">
        <ele>1434</ele>
        <time>1970-01-01T00:35:36.000Z</time>
      </trkpt>
      <trkpt lat="44.38639" lon="3.87459">
        <ele>1434</ele>
        <time>1970-01-01T00:35:37.000Z</time>
      </trkpt>
      <trkpt lat="44.38634" lon="3.8747">
        <ele>1434</ele>
        <time>1970-01-01T00:35:38.000Z</time>
      </trkpt>
      <trkpt lat="44.3863" lon="3.8748">
        <ele>1434</ele>
        <time>1970-01-01T00:35:39.000Z</time>
      </trkpt>
      <trkpt lat="44.38625" lon="3.87491">
        <ele>1433</ele>
        <time>1970-01-01T00:35:40.000Z</time>
      </trkpt>
      <trkpt lat="44.3862" lon="3.87502">
        <ele>1433</ele>
        <time>1970-01-01T00:35:41.000Z</time>
      </trkpt>
      <trkpt lat="44.38616" lon="3.87513">
        <ele>1433</ele>
        <time>1970-01-01T00:35:42.000Z</time>
      </trkpt>
      <trkpt lat="44.38611" lon="3.87524">
        <ele>1432</ele>
        <time>1970-01-01T00:35:43.000Z</time>
      </trkpt>
      <trkpt lat="44.38607" lon="3.87534">
        <ele>1432</ele>
        <time>1970-01-01T00:35:44.000Z</time>
      </trkpt>
      <trkpt lat="44.38602" lon="3.87545">
        <ele>1431</ele>
        <time>1970-01-01T00:35:45.000Z</time>
      </trkpt>
      <trkpt lat="44.38597" lon="3.87556">
        <ele>1431</ele>
        <time>1970-01-01T00:35:46.000Z</time>
      </trkpt>
      <trkpt lat="44.38593" lon="3.87567">
        <ele>1430</ele>
        <time>1970-01-01T00:35:47.000Z</time>
      </trkpt>
      <trkpt lat="44.38588" lon="3.87578">
        <ele>1428</ele>
        <time>1970-01-01T00:35:48.000Z</time>
      </trkpt>
      <trkpt lat="44.38584" lon="3.87589">
        <ele>1427</ele>
        <time>1970-01-01T00:35:49.000Z</time>
      </trkpt>
      <trkpt lat="44.38579" lon="3.87599">
        <ele>1424</ele>
        <time>1970-01-01T00:35:50.000Z</time>
      </trkpt>
      <trkpt lat="44.38575" lon="3.8761">
        <ele>1422</ele>
        <time>1970-01-01T00:35:51.000Z</time>
      </trkpt>
      <trkpt lat="44.3857" lon="3.87621">
        <ele>1422</ele>
        <time>1970-01-01T00:35:52.000Z</time>
      </trkpt>
      <trkpt lat="44.38565" lon="3.87632">
        <ele>1421</ele>
        <time>1970-01-01T00:35:53.000Z</time>
      </trkpt>
      <trkpt lat="44.38561" lon="3.87643">
        <ele>1421</ele>
        <time>1970-01-01T00:35:54.000Z</time>
      </trkpt>
      <trkpt lat="44.38556" lon="3.87653">
        <ele>1420</ele>
        <time>1970-01-01T00:35:55.000Z</time>
      </trkpt>
      <trkpt lat="44.38551" lon="3.87664">
        <ele>1420</ele>
        <time>1970-01-01T00:35:56.000Z</time>
      </trkpt>
      <trkpt lat="44.38547" lon="3.87675">
        <ele>1419</ele>
        <time>1970-01-01T00:35:57.000Z</time>
      </trkpt>
      <trkpt lat="44.38544" lon="3.87682">
        <ele>1419</ele>
        <time>1970-01-01T00:35:58.000Z</time>
      </trkpt>
    </trkseg>
  </trk>
</gpx>